[[{"header":{"parameterUnit":"m.s-1","parameterCategory":1,"la1":31.0,"la2":29.5877,"lo1":-88.7671,"lo2":-86.6584,"dy":0.0162,"dx":0.0185,"nx":115,"ny":88,"refTime":"2023-06-28T00:00:00:Z","depth":0,"parameterNumber":2,"parameterNumberName":"U-component_of_WINDS"},"data":[0.0,0.0,0.0,0.0,0.0,0.0,0.0,0.0,0.0,0.0,0.0,0.0,0.0,0.0,0.0,0.0,0.0,0.0,0.0,0.0,0.0,0.0,0.0,0.0,0.0,0.0,0.0,0.0,0.0,0.0,0.0,0.0,0.0,0.0,0.0,0.0,0.0,0.0,0.0,0.0,0.0,0.0,0.0,0.0,0.0,0.0,0.0,0.0,0.0,0.0,0.0,0.0,0.0,0.0,0.0,0.0,0.0,0.0,0.0,0.0,0.0,0.0,0.0,0.0,0.0,0.0,0.0,0.0,0.0,0.0,0.0,0.0,0.0,0.0,0.0,0.0,0.0,0.0,0.0,0.0,0.0,0.0,0.0,0.0,0.0,0.0,0.0,0.0,0.0,0.0,0.0,0.0,0.0,0.0,0.0,0.0,0.0,0.0,0.0,0.0,0.0,0.0,0.0,0.0,0.0,0.0,0.0,0.0,0.0,0.0,0.0,0.0,0.0,0.0,0.0,0.0,0.0,0.0,0.0,0.0,0.0,0.0,0.0,0.0,0.0,0.0,0.0,0.0,0.0,0.0,0.0,0.0,0.0,0.0,0.0,0.0,0.0,0.0,0.0,0.0,0.0,0.0,0.0,0.0,0.0,0.0,0.0,0.0,0.0,0.0,0.0,0.0,0.0,0.0,0.0,0.0,0.0,0.0,0.0,0.0,0.0,0.0,0.0,0.0,0.0,0.0,0.0,0.0,0.0,0.0,0.0,0.0,0.0,0.0,0.0,0.0,0.0,0.0,0.0,0.0,0.0,0.0,0.0,0.0,0.0,0.0,0.0,0.0,0.0,0.0,0.0,0.0,0.0,0.0,0.0,0.0,0.0,0.0,0.0,0.0,0.0,0.0,0.0,0.0,0.0,0.0,0.0,0.0,0.0,0.0,0.0,0.0,0.0,0.0,0.0,0.0,0.0,0.0,0.0,0.0,0.0,0.0,0.0,0.0,0.0,0.0,0.0,0.0,0.0,0.0,0.0,0.0,0.0,0.0,0.0,0.0,0.0,0.0,0.0,0.0,0.0,0.0,0.0,0.0,0.0,0.0,0.0,0.0,0.0,0.0,0.0,0.0,0.0,0.0,0.0,0.0,0.0,0.0,0.0,0.0,0.0,0.0,0.0,0.0,0.0,0.0,0.0,0.0,0.0,0.0,0.0,0.0,0.0,0.0,0.0,0.0,0.0,0.0,0.0,0.0,0.0,0.0,0.0,0.0,0.0,0.0,0.0,0.0,0.0,0.0,0.0,0.0,0.0,0.0,0.0,0.0,0.0,0.0,0.0,0.0,0.0,0.0,0.0,0.0,0.0,0.0,0.0,0.0,0.0,0.0,0.0,0.0,0.0,0.0,0.0,0.0,0.0,0.0,0.0,0.0,0.0,0.0,0.0,0.0,0.0,0.0,0.0,0.0,0.0,0.0,0.0,0.0,0.0,0.0,0.0,0.0,0.0,0.0,0.0,0.0,0.0,0.0,0.0,0.0,0.0,0.0,0.0,0.0,0.0,0.0,0.0,0.0,0.0,0.0,0.0,0.0,0.0,0.0,0.0,0.0,0.0,0.0,0.0,0.0,0.0,0.0,0.0,0.0,0.0,0.0,0.0,0.0,0.0,0.0,0.0,0.0,0.0,0.0,0.0,0.0,0.0,0.0,0.0,0.0,0.0,0.0,0.0,0.0,0.0,0.0,0.0,0.0,0.0,0.0,0.0,0.0,0.0,0.0,0.0,0.0,0.0,0.0,0.0,0.0,0.0,0.0,0.0,0.0,0.0,0.0,0.0,0.0,0.0,0.0,0.0,0.0,0.0,0.0,0.0,0.0,0.0,0.0,0.0,0.0,0.0,0.0,0.0,0.0,0.0,0.0,0.0,0.0,0.0,0.0,0.0,0.0,0.0,0.0,0.0,0.0,0.0,0.0,0.0,0.0,0.0,0.0,0.0,0.0,0.0,0.0,0.0,0.0,0.0,0.0,0.0,0.0,0.0,0.0,0.0,0.0,0.0,0.0,0.0,0.0,0.0,0.0,0.0,0.0,0.0,0.0,0.0,0.0,0.0,0.0,0.0,0.0,0.0,0.0,0.0,0.0,0.0,0.0,0.0,0.0,0.0,0.0,0.0,0.0,0.0,0.0,0.0,0.0,0.0,0.0,0.0,0.0,0.0,0.0,0.0,0.0,0.0,0.0,0.0,0.0,0.0,0.0,0.0,0.0,0.0,0.0,0.0,0.0,0.0,0.0,0.0,0.0,0.0,0.0,0.0,0.0,0.0,0.0,0.0,0.0,0.0,0.0,0.0,0.0,0.0,0.0,0.0,0.0,0.0,0.0,0.0,0.0,0.0,0.0,0.0,0.0,0.0,0.0,0.0,0.0,0.0,0.0,0.0,0.0,0.0,0.0,0.0,0.0,0.0,0.0,0.0,0.0,0.0,0.0,0.0,0.0,0.0,0.0,0.0,0.0,0.0,0.0,0.0,0.0,0.0,0.0,0.0,0.0,0.0,0.0,0.0,0.0,0.0,0.0,0.0,0.0,0.0,0.0,0.0,0.0,0.0,0.0,0.0,0.0,0.0,0.0,0.0,0.0,0.0,0.0,0.0,0.0,0.0,0.0,0.0,0.0,0.0,0.0,0.0,0.0,0.0,0.0,0.0,0.0,0.0,0.0,0.0,0.0,0.0,0.0,0.0,0.0,0.0,0.0,0.0,0.0,0.0,0.0,0.0,0.0,0.0,0.0,0.0,0.0,0.0,0.0,0.0,0.0,0.0,0.0,0.0,0.0,0.0,0.0,0.0,0.0,0.0,0.0,0.0,0.0,0.0,0.0,0.0,0.0,0.0,0.0,0.0,0.0,0.0,0.0,0.0,0.0,0.0,0.0,0.0,0.0,0.0,0.0,0.0,0.0,0.0,0.0,0.0,0.0,0.0,0.0,0.0,0.0,0.0,0.0,0.0,0.0,0.0,0.0,0.0,0.0,0.0,0.0,0.0,0.0,0.0,0.0,0.0,0.0,0.0,0.0,0.0,0.0,0.0,0.0,0.0,0.0,0.0,0.0,0.0,0.0,0.0,0.0,0.0,0.0,0.0,0.0,0.0,0.0,0.0,0.0,0.0,0.0,0.0,0.0,0.0,0.0,0.0,0.0,0.0,0.0,0.0,0.0,0.0,0.0,0.0,0.0,0.0,0.0,0.0,0.0,0.0,0.0,0.0,0.0,0.0,0.0,0.0,0.0,0.0,0.0,0.0,0.0,0.0,0.0,0.0,0.0,0.0,0.0,0.0,0.0,0.0,0.0,0.0,0.0,0.0,0.0,0.0,0.0,0.0,0.0,0.0,0.0,0.0,0.0,0.0,0.0,0.0,0.0,0.0,0.0,0.0,0.0,0.0,0.0,0.0,0.0,0.0,0.0,0.0,0.0,0.0,0.0,0.0,0.0,0.0,0.0,0.0,0.0,0.0,0.0,0.0,0.0,0.0,0.0,0.0,0.0,0.0,0.0,0.0,0.0,0.0,0.0,0.0,0.0,0.0,0.0,0.0,0.0,0.0,0.0,0.0,0.0,0.0,0.0,0.0,0.0,0.0,0.0,0.0,0.0,0.0,0.0,0.0,0.0,0.0,0.0,0.0,0.0,0.0,0.0,0.0,0.0,0.0,0.0,0.0,0.0,0.0,0.0,0.0,0.0,0.0,0.0,0.0,0.0,0.0,0.0,0.0,0.0,0.0,0.0,0.0,0.0,0.0,0.0,0.0,0.0,0.0,0.0,0.0,0.0,0.0,0.0,0.0,0.0,0.0,0.0,0.0,0.0,0.0,0.0,0.0,0.0,0.0,0.0,0.0,0.0,0.0,0.0,0.0,0.0,0.0,0.0,0.0,0.0,0.0,0.0,0.0,0.0,0.0,0.0,0.0,0.0,0.0,0.0,0.0,0.0,0.0,0.0,0.0,0.0,0.0,0.0,0.0,0.0,0.0,0.0,0.0,0.0,0.0,0.0,0.0,0.0,0.0,0.0,0.0,0.0,0.0,0.0,0.0,0.0,0.0,0.0,0.0,0.0,0.0,0.0,0.0,0.0,0.0,0.0,0.0,0.0,0.0,0.0,0.0,0.0,0.0,0.0,0.0,0.0,0.0,0.0,0.0,0.0,0.0,0.0,0.0,0.0,0.0,0.0,0.0,0.0,0.0,0.0,0.0,0.0,0.0,0.0,0.0,0.0,0.0,0.0,0.0,0.0,0.0,0.0,-3.5201,0.0,0.0,0.0,0.0,0.0,0.0,0.0,0.0,0.0,0.0,0.0,0.0,0.0,0.0,0.0,0.0,0.0,0.0,0.0,0.0,0.0,0.0,0.0,0.0,0.0,0.0,0.0,0.0,0.0,0.0,0.0,0.0,0.0,0.0,0.0,0.0,0.0,0.0,0.0,0.0,0.0,0.0,0.0,0.0,0.0,0.0,0.0,0.0,0.0,0.0,0.0,0.0,0.0,0.0,0.0,0.0,0.0,0.0,0.0,0.0,0.0,0.0,0.0,0.0,0.0,0.0,0.0,0.0,0.0,0.0,0.0,0.0,0.0,0.0,0.0,0.0,0.0,0.0,0.0,0.0,0.0,0.0,0.0,0.0,0.0,0.0,0.0,0.0,0.0,0.0,0.0,0.0,0.0,0.0,0.0,0.0,0.0,0.0,0.0,0.0,0.0,0.0,0.0,0.0,0.0,0.0,0.0,0.0,0.0,0.0,-3.4622,-3.4577,-3.4106,-3.4023,-3.4361,0.0,0.0,0.0,0.0,0.0,0.0,0.0,0.0,0.0,0.0,0.0,0.0,0.0,0.0,0.0,0.0,0.0,0.0,0.0,0.0,0.0,0.0,0.0,0.0,0.0,0.0,0.0,0.0,0.0,0.0,0.0,0.0,0.0,0.0,0.0,0.0,0.0,0.0,0.0,0.0,0.0,0.0,0.0,0.0,0.0,0.0,0.0,0.0,0.0,0.0,0.0,0.0,0.0,0.0,0.0,0.0,0.0,0.0,0.0,0.0,0.0,0.0,0.0,0.0,0.0,0.0,0.0,0.0,0.0,0.0,0.0,0.0,0.0,0.0,0.0,0.0,0.0,0.0,0.0,0.0,0.0,0.0,0.0,0.0,0.0,0.0,0.0,0.0,0.0,0.0,0.0,0.0,0.0,0.0,0.0,0.0,0.0,0.0,0.0,0.0,0.0,0.0,0.0,0.0,0.0,0.0,0.0,0.0,0.0,0.0,0.0,0.0,-3.3409,-3.316,-3.361,0.0,0.0,0.0,0.0,0.0,0.0,0.0,0.0,0.0,0.0,0.0,0.0,0.0,0.0,0.0,0.0,0.0,0.0,0.0,0.0,0.0,0.0,0.0,0.0,0.0,0.0,0.0,0.0,0.0,0.0,0.0,0.0,0.0,0.0,0.0,0.0,0.0,0.0,0.0,0.0,0.0,0.0,0.0,0.0,0.0,0.0,0.0,0.0,0.0,0.0,0.0,0.0,0.0,0.0,0.0,0.0,0.0,0.0,0.0,0.0,0.0,0.0,0.0,0.0,0.0,0.0,0.0,0.0,0.0,0.0,0.0,0.0,0.0,0.0,0.0,0.0,0.0,0.0,0.0,0.0,0.0,0.0,0.0,0.0,0.0,0.0,0.0,0.0,0.0,0.0,0.0,0.0,0.0,0.0,0.0,0.0,0.0,0.0,0.0,0.0,0.0,0.0,0.0,0.0,0.0,0.0,0.0,0.0,0.0,0.0,-3.5102,-3.5075,-3.4179,0.0,-3.3449,0.0,0.0,0.0,0.0,0.0,0.0,0.0,0.0,0.0,0.0,0.0,0.0,0.0,0.0,0.0,0.0,0.0,0.0,0.0,0.0,0.0,0.0,0.0,0.0,0.0,0.0,0.0,0.0,0.0,0.0,0.0,0.0,0.0,0.0,0.0,0.0,0.0,0.0,0.0,0.0,0.0,0.0,0.0,0.0,0.0,0.0,0.0,0.0,0.0,0.0,0.0,0.0,0.0,0.0,0.0,0.0,0.0,0.0,0.0,0.0,0.0,0.0,0.0,0.0,0.0,0.0,0.0,0.0,0.0,0.0,0.0,0.0,0.0,0.0,0.0,0.0,0.0,0.0,0.0,0.0,0.0,0.0,0.0,0.0,0.0,0.0,0.0,0.0,0.0,0.0,0.0,0.0,0.0,0.0,0.0,0.0,0.0,0.0,0.0,0.0,0.0,0.0,0.0,0.0,0.0,0.0,0.0,0.0,0.0,0.0,-3.441,-3.4376,-3.3893,-3.3318,0.0,0.0,0.0,0.0,0.0,0.0,0.0,0.0,0.0,0.0,0.0,0.0,0.0,0.0,0.0,0.0,0.0,0.0,0.0,0.0,0.0,0.0,0.0,0.0,0.0,0.0,0.0,0.0,0.0,0.0,0.0,0.0,0.0,0.0,0.0,0.0,0.0,0.0,0.0,0.0,0.0,0.0,0.0,0.0,0.0,0.0,0.0,0.0,0.0,0.0,0.0,0.0,0.0,0.0,0.0,0.0,0.0,0.0,0.0,0.0,0.0,0.0,0.0,0.0,0.0,0.0,0.0,0.0,0.0,0.0,0.0,0.0,0.0,0.0,0.0,0.0,0.0,0.0,0.0,0.0,0.0,0.0,0.0,0.0,0.0,0.0,0.0,0.0,0.0,0.0,0.0,0.0,0.0,0.0,0.0,0.0,0.0,0.0,0.0,0.0,0.0,0.0,0.0,0.0,0.0,0.0,0.0,0.0,0.0,0.0,-3.456,-3.4063,-3.3757,-3.3583,-3.306,-3.2142,0.0,0.0,0.0,0.0,0.0,0.0,0.0,0.0,0.0,0.0,0.0,0.0,0.0,0.0,0.0,0.0,0.0,0.0,0.0,0.0,0.0,0.0,0.0,0.0,0.0,0.0,0.0,0.0,0.0,0.0,0.0,0.0,0.0,0.0,0.0,0.0,0.0,0.0,0.0,0.0,0.0,0.0,0.0,0.0,0.0,0.0,0.0,0.0,0.0,0.0,0.0,0.0,0.0,0.0,0.0,0.0,0.0,0.0,0.0,0.0,0.0,0.0,0.0,0.0,0.0,0.0,0.0,0.0,0.0,0.0,0.0,0.0,0.0,0.0,0.0,0.0,0.0,0.0,0.0,0.0,0.0,0.0,0.0,0.0,0.0,0.0,0.0,0.0,0.0,0.0,0.0,0.0,0.0,0.0,0.0,0.0,0.0,0.0,0.0,0.0,0.0,0.0,0.0,0.0,0.0,0.0,0.0,0.0,-3.5182,-3.5088,-3.4574,-3.3658,-3.3554,-3.3069,0.0,0.0,0.0,0.0,0.0,0.0,0.0,0.0,0.0,0.0,0.0,0.0,0.0,0.0,0.0,0.0,0.0,0.0,0.0,0.0,0.0,0.0,0.0,0.0,0.0,0.0,0.0,0.0,0.0,0.0,0.0,0.0,0.0,0.0,0.0,0.0,0.0,0.0,0.0,0.0,0.0,0.0,0.0,0.0,0.0,0.0,0.0,0.0,0.0,0.0,0.0,0.0,0.0,0.0,0.0,0.0,0.0,0.0,0.0,0.0,0.0,0.0,0.0,0.0,0.0,0.0,0.0,0.0,0.0,0.0,0.0,0.0,0.0,0.0,0.0,0.0,0.0,0.0,0.0,0.0,0.0,0.0,0.0,0.0,0.0,0.0,0.0,0.0,0.0,0.0,0.0,0.0,0.0,0.0,0.0,0.0,0.0,0.0,0.0,0.0,0.0,0.0,0.0,0.0,0.0,0.0,0.0,0.0,0.0,-3.5182,-3.5117,-3.4878,-3.4394,-3.4346,-3.385,0.0,0.0,0.0,0.0,0.0,0.0,0.0,0.0,0.0,0.0,0.0,0.0,0.0,0.0,0.0,0.0,0.0,0.0,0.0,0.0,0.0,0.0,0.0,0.0,0.0,0.0,0.0,0.0,0.0,0.0,0.0,0.0,0.0,0.0,0.0,0.0,0.0,0.0,0.0,0.0,0.0,0.0,0.0,0.0,0.0,0.0,0.0,0.0,0.0,0.0,0.0,0.0,0.0,0.0,0.0,0.0,0.0,0.0,0.0,0.0,0.0,0.0,0.0,0.0,0.0,0.0,0.0,0.0,0.0,0.0,0.0,0.0,0.0,0.0,0.0,0.0,0.0,0.0,0.0,0.0,0.0,0.0,0.0,0.0,0.0,0.0,0.0,0.0,0.0,0.0,0.0,0.0,0.0,0.0,0.0,0.0,0.0,0.0,0.0,0.0,0.0,0.0,0.0,0.0,0.0,0.0,0.0,0.0,0.0,-3.5961,0.0,-3.5818,0.0,-3.5346,-3.4695,0.0,0.0,0.0,0.0,0.0,0.0,0.0,0.0,0.0,0.0,0.0,0.0,0.0,0.0,0.0,0.0,0.0,0.0,0.0,0.0,0.0,0.0,0.0,0.0,0.0,0.0,0.0,0.0,0.0,0.0,0.0,0.0,0.0,0.0,0.0,0.0,0.0,0.0,0.0,0.0,0.0,0.0,0.0,0.0,0.0,0.0,0.0,0.0,0.0,0.0,0.0,0.0,0.0,0.0,0.0,0.0,0.0,0.0,0.0,0.0,0.0,0.0,0.0,0.0,0.0,0.0,0.0,0.0,0.0,0.0,0.0,0.0,0.0,0.0,0.0,0.0,0.0,0.0,0.0,0.0,0.0,0.0,0.0,0.0,0.0,0.0,0.0,0.0,0.0,0.0,0.0,0.0,0.0,0.0,0.0,0.0,0.0,0.0,0.0,0.0,0.0,0.0,0.0,0.0,0.0,0.0,0.0,0.0,-3.6915,-3.7566,-3.7624,-3.7527,-3.7327,-3.6497,-3.5542,0.0,0.0,0.0,0.0,0.0,0.0,0.0,0.0,0.0,0.0,0.0,0.0,0.0,0.0,0.0,0.0,0.0,0.0,0.0,0.0,0.0,0.0,0.0,0.0,0.0,0.0,0.0,0.0,0.0,0.0,0.0,0.0,0.0,0.0,0.0,0.0,0.0,0.0,0.0,0.0,0.0,0.0,0.0,0.0,0.0,0.0,0.0,0.0,0.0,0.0,0.0,0.0,0.0,0.0,0.0,0.0,0.0,0.0,0.0,0.0,0.0,0.0,0.0,0.0,0.0,0.0,0.0,0.0,0.0,0.0,0.0,0.0,0.0,0.0,0.0,0.0,0.0,0.0,0.0,0.0,0.0,0.0,0.0,0.0,0.0,0.0,0.0,0.0,0.0,0.0,0.0,0.0,0.0,0.0,0.0,0.0,0.0,0.0,0.0,0.0,0.0,0.0,0.0,0.0,0.0,0.0,0.0,0.0,0.0,-3.8537,-3.9051,-3.9247,-3.9072,-3.8202,-3.7258,0.0,0.0,0.0,0.0,0.0,0.0,0.0,0.0,0.0,0.0,0.0,0.0,0.0,0.0,0.0,0.0,0.0,0.0,0.0,0.0,0.0,0.0,0.0,0.0,0.0,0.0,0.0,0.0,0.0,0.0,0.0,0.0,0.0,0.0,0.0,0.0,0.0,0.0,0.0,0.0,0.0,0.0,0.0,0.0,0.0,0.0,0.0,0.0,0.0,0.0,0.0,0.0,0.0,0.0,0.0,0.0,0.0,0.0,0.0,0.0,0.0,0.0,0.0,0.0,0.0,0.0,0.0,0.0,0.0,0.0,0.0,0.0,0.0,0.0,0.0,0.0,0.0,0.0,0.0,0.0,0.0,0.0,0.0,0.0,0.0,0.0,0.0,0.0,0.0,0.0,0.0,0.0,0.0,0.0,0.0,0.0,0.0,0.0,0.0,0.0,0.0,0.0,0.0,0.0,0.0,0.0,0.0,0.0,0.0,-4.0825,-4.127,-4.129,-4.0798,-3.9619,-3.8663,-3.7921,0.0,0.0,0.0,0.0,0.0,0.0,0.0,0.0,0.0,0.0,0.0,0.0,0.0,0.0,0.0,0.0,0.0,0.0,0.0,0.0,0.0,0.0,0.0,0.0,0.0,0.0,0.0,0.0,0.0,0.0,0.0,0.0,0.0,0.0,0.0,0.0,0.0,0.0,0.0,0.0,0.0,0.0,0.0,0.0,0.0,0.0,0.0,0.0,0.0,0.0,0.0,0.0,0.0,0.0,0.0,0.0,0.0,0.0,0.0,0.0,0.0,0.0,0.0,0.0,0.0,0.0,0.0,0.0,0.0,0.0,0.0,0.0,0.0,0.0,0.0,0.0,0.0,0.0,0.0,0.0,0.0,0.0,0.0,0.0,0.0,0.0,0.0,0.0,0.0,0.0,0.0,0.0,0.0,0.0,0.0,0.0,0.0,0.0,0.0,0.0,0.0,0.0,0.0,0.0,0.0,0.0,0.0,0.0,-4.4007,-4.4021,-4.3521,-4.2456,-4.0873,-3.9868,0.0,0.0,0.0,0.0,0.0,0.0,0.0,0.0,0.0,0.0,0.0,0.0,0.0,0.0,0.0,0.0,0.0,0.0,0.0,0.0,0.0,0.0,0.0,0.0,0.0,0.0,0.0,0.0,0.0,0.0,0.0,0.0,0.0,0.0,0.0,0.0,0.0,0.0,0.0,0.0,0.0,0.0,0.0,0.0,0.0,0.0,0.0,0.0,0.0,0.0,0.0,0.0,0.0,0.0,0.0,0.0,0.0,0.0,0.0,0.0,0.0,0.0,0.0,0.0,0.0,0.0,0.0,0.0,0.0,0.0,0.0,0.0,0.0,0.0,0.0,0.0,0.0,0.0,0.0,0.0,0.0,0.0,0.0,0.0,0.0,0.0,0.0,0.0,0.0,0.0,0.0,0.0,0.0,0.0,0.0,0.0,0.0,0.0,0.0,0.0,0.0,0.0,0.0,0.0,0.0,0.0,0.0,0.0,0.0,-4.5627,-4.5625,-4.5159,-4.4227,-4.3126,-4.1845,0.0,0.0,0.0,0.0,0.0,0.0,0.0,0.0,0.0,0.0,0.0,0.0,0.0,0.0,0.0,0.0,0.0,0.0,0.0,0.0,0.0,0.0,0.0,0.0,0.0,0.0,0.0,0.0,0.0,0.0,0.0,0.0,0.0,0.0,0.0,0.0,0.0,0.0,0.0,0.0,0.0,0.0,0.0,0.0,0.0,0.0,0.0,0.0,0.0,0.0,0.0,0.0,0.0,0.0,0.0,0.0,0.0,0.0,0.0,0.0,0.0,0.0,0.0,0.0,0.0,0.0,0.0,0.0,0.0,0.0,0.0,0.0,0.0,0.0,0.0,0.0,0.0,0.0,0.0,0.0,0.0,0.0,0.0,0.0,0.0,0.0,0.0,0.0,0.0,0.0,0.0,0.0,0.0,0.0,0.0,0.0,0.0,0.0,0.0,0.0,0.0,0.0,0.0,0.0,0.0,0.0,0.0,0.0,-4.5494,-4.6282,-4.6133,-4.5627,-4.4738,-4.3881,-4.2709,0.0,0.0,0.0,0.0,0.0,0.0,0.0,0.0,0.0,0.0,0.0,0.0,0.0,0.0,0.0,0.0,0.0,0.0,0.0,0.0,0.0,0.0,0.0,0.0,0.0,0.0,0.0,0.0,0.0,0.0,0.0,0.0,0.0,0.0,0.0,0.0,0.0,0.0,0.0,0.0,0.0,0.0,0.0,0.0,0.0,0.0,0.0,0.0,0.0,0.0,0.0,0.0,0.0,0.0,0.0,0.0,0.0,0.0,0.0,0.0,0.0,0.0,0.0,0.0,0.0,0.0,0.0,0.0,0.0,0.0,0.0,0.0,0.0,0.0,0.0,0.0,0.0,0.0,0.0,0.0,0.0,0.0,0.0,0.0,0.0,0.0,0.0,0.0,0.0,0.0,0.0,0.0,0.0,0.0,0.0,0.0,0.0,0.0,0.0,0.0,0.0,0.0,0.0,0.0,0.0,0.0,0.0,0.0,-4.535,-4.6227,-4.587,-4.5265,-4.4473,-4.3755,-4.2875,0.0,0.0,0.0,0.0,0.0,0.0,0.0,0.0,0.0,0.0,0.0,0.0,0.0,0.0,0.0,0.0,0.0,0.0,0.0,0.0,0.0,0.0,0.0,0.0,0.0,0.0,0.0,0.0,0.0,0.0,0.0,0.0,0.0,0.0,0.0,0.0,0.0,0.0,0.0,0.0,0.0,0.0,0.0,0.0,0.0,0.0,0.0,0.0,0.0,0.0,0.0,0.0,0.0,0.0,0.0,0.0,0.0,0.0,0.0,0.0,0.0,0.0,0.0,0.0,0.0,0.0,0.0,0.0,0.0,0.0,0.0,0.0,0.0,0.0,0.0,0.0,0.0,0.0,0.0,0.0,0.0,0.0,0.0,0.0,0.0,0.0,0.0,0.0,0.0,0.0,0.0,0.0,0.0,0.0,0.0,0.0,0.0,0.0,0.0,0.0,0.0,0.0,0.0,0.0,0.0,0.0,0.0,0.0,-4.5167,-4.5863,-4.5161,-4.4594,-4.4185,-4.4057,-4.3262,0.0,0.0,0.0,0.0,0.0,0.0,0.0,0.0,0.0,0.0,0.0,0.0,0.0,0.0,0.0,0.0,0.0,0.0,0.0,0.0,0.0,0.0,0.0,0.0,0.0,0.0,0.0,0.0,0.0,0.0,0.0,0.0,0.0,0.0,0.0,0.0,0.0,0.0,0.0,0.0,0.0,0.0,0.0,0.0,0.0,0.0,0.0,0.0,-2.7434,0.0,0.0,0.0,0.0,0.0,0.0,0.0,0.0,0.0,0.0,0.0,0.0,0.0,0.0,0.0,0.0,0.0,0.0,0.0,0.0,0.0,0.0,0.0,0.0,0.0,0.0,0.0,0.0,0.0,0.0,0.0,0.0,0.0,0.0,0.0,0.0,0.0,0.0,0.0,0.0,0.0,0.0,0.0,0.0,0.0,0.0,0.0,0.0,0.0,0.0,0.0,0.0,0.0,0.0,0.0,0.0,0.0,0.0,0.0,-4.5358,-4.5726,-4.5198,-4.4644,-4.4082,-4.4017,-4.3194,0.0,0.0,0.0,0.0,0.0,0.0,0.0,0.0,0.0,0.0,0.0,0.0,0.0,0.0,0.0,0.0,0.0,0.0,0.0,0.0,0.0,0.0,0.0,0.0,0.0,0.0,0.0,0.0,0.0,0.0,0.0,0.0,0.0,0.0,0.0,0.0,0.0,0.0,0.0,0.0,0.0,0.0,0.0,0.0,0.0,0.0,0.0,0.0,0.0,0.0,0.0,0.0,0.0,0.0,0.0,0.0,0.0,0.0,0.0,0.0,0.0,0.0,0.0,0.0,0.0,0.0,0.0,0.0,0.0,0.0,0.0,0.0,0.0,0.0,0.0,0.0,0.0,0.0,0.0,0.0,0.0,0.0,0.0,0.0,0.0,0.0,0.0,0.0,0.0,0.0,0.0,0.0,0.0,0.0,0.0,0.0,0.0,0.0,0.0,0.0,0.0,0.0,0.0,0.0,0.0,0.0,0.0,-4.4646,-4.5409,-4.5448,-4.5312,-4.4808,-4.3995,-4.3851,-4.2961,-4.119,0.0,0.0,0.0,0.0,0.0,0.0,0.0,0.0,0.0,0.0,0.0,0.0,0.0,0.0,0.0,0.0,0.0,0.0,0.0,0.0,0.0,0.0,0.0,0.0,0.0,0.0,0.0,0.0,0.0,0.0,0.0,0.0,0.0,0.0,0.0,0.0,0.0,0.0,-2.7444,-2.8425,0.0,0.0,0.0,0.0,0.0,0.0,0.0,0.0,-2.8203,0.0,0.0,0.0,0.0,0.0,0.0,0.0,0.0,0.0,0.0,0.0,0.0,0.0,0.0,0.0,0.0,0.0,0.0,0.0,0.0,0.0,0.0,0.0,0.0,0.0,0.0,0.0,0.0,0.0,0.0,0.0,0.0,0.0,0.0,0.0,0.0,0.0,0.0,0.0,0.0,0.0,0.0,0.0,0.0,0.0,0.0,0.0,0.0,0.0,0.0,0.0,0.0,0.0,0.0,0.0,0.0,-4.2062,-4.3675,-4.4472,-4.4446,-4.4401,-4.4206,-4.3853,-4.382,-4.2879,-4.0928,0.0,0.0,0.0,0.0,0.0,0.0,0.0,0.0,0.0,0.0,0.0,0.0,0.0,0.0,0.0,0.0,0.0,0.0,0.0,0.0,0.0,0.0,0.0,0.0,0.0,0.0,0.0,0.0,0.0,0.0,0.0,0.0,0.0,0.0,0.0,0.0,0.0,0.0,0.0,-2.9147,-2.9767,0.0,0.0,0.0,0.0,0.0,0.0,0.0,0.0,-2.8612,0.0,0.0,0.0,0.0,0.0,0.0,0.0,0.0,0.0,0.0,0.0,0.0,0.0,0.0,0.0,0.0,0.0,0.0,0.0,0.0,0.0,0.0,0.0,0.0,0.0,0.0,0.0,0.0,0.0,0.0,0.0,0.0,0.0,0.0,0.0,0.0,0.0,0.0,0.0,0.0,0.0,0.0,0.0,0.0,0.0,0.0,0.0,0.0,0.0,0.0,0.0,0.0,0.0,0.0,0.0,-4.1706,-4.2899,-4.3703,-4.4067,-4.4058,-4.3963,-4.3804,-4.3736,-4.2777,0.0,0.0,0.0,0.0,0.0,0.0,0.0,0.0,0.0,0.0,0.0,0.0,0.0,0.0,0.0,0.0,0.0,0.0,0.0,0.0,0.0,0.0,0.0,0.0,0.0,0.0,0.0,0.0,0.0,0.0,0.0,0.0,0.0,0.0,0.0,0.0,0.0,0.0,0.0,0.0,-3.0647,-3.1185,-3.1894,0.0,0.0,0.0,0.0,0.0,0.0,-3.0445,-3.0523,0.0,0.0,0.0,0.0,0.0,0.0,0.0,0.0,0.0,0.0,0.0,0.0,0.0,0.0,0.0,0.0,0.0,0.0,0.0,0.0,0.0,0.0,0.0,0.0,0.0,0.0,0.0,0.0,0.0,0.0,0.0,0.0,0.0,0.0,0.0,0.0,0.0,0.0,0.0,0.0,0.0,0.0,0.0,0.0,0.0,0.0,0.0,0.0,0.0,0.0,0.0,0.0,0.0,0.0,0.0,-4.1084,-4.2054,-4.2946,-4.3677,-4.3521,-4.346,-4.3494,-4.3244,-4.2231,0.0,0.0,0.0,0.0,0.0,0.0,0.0,0.0,0.0,0.0,0.0,0.0,0.0,0.0,0.0,0.0,0.0,0.0,0.0,0.0,0.0,0.0,0.0,0.0,0.0,0.0,0.0,0.0,0.0,0.0,0.0,0.0,0.0,0.0,0.0,0.0,0.0,0.0,0.0,0.0,0.0,-3.2679,-3.3753,-3.3897,0.0,0.0,0.0,0.0,-3.2314,-3.2171,0.0,0.0,0.0,0.0,0.0,0.0,0.0,0.0,0.0,0.0,0.0,0.0,0.0,0.0,0.0,0.0,0.0,0.0,0.0,0.0,0.0,0.0,0.0,0.0,0.0,0.0,0.0,0.0,0.0,0.0,0.0,0.0,0.0,0.0,0.0,0.0,0.0,0.0,0.0,0.0,0.0,0.0,0.0,0.0,0.0,0.0,0.0,0.0,0.0,0.0,0.0,0.0,0.0,0.0,0.0,0.0,-3.9435,-4.094,-4.2099,-4.2764,-4.2156,-4.2023,-4.2527,-4.1848,-4.0595,0.0,0.0,0.0,0.0,0.0,0.0,0.0,0.0,0.0,0.0,0.0,0.0,0.0,0.0,0.0,0.0,0.0,0.0,0.0,0.0,0.0,0.0,0.0,0.0,0.0,0.0,0.0,0.0,0.0,0.0,0.0,0.0,0.0,0.0,0.0,0.0,0.0,0.0,0.0,0.0,0.0,-3.3648,-3.3581,-3.3639,-3.3798,0.0,0.0,0.0,-3.3656,-3.3101,0.0,0.0,0.0,0.0,0.0,0.0,0.0,0.0,0.0,0.0,0.0,0.0,0.0,0.0,0.0,0.0,0.0,0.0,0.0,0.0,0.0,0.0,0.0,0.0,0.0,0.0,0.0,0.0,0.0,0.0,0.0,0.0,0.0,0.0,0.0,0.0,0.0,0.0,0.0,0.0,0.0,0.0,0.0,0.0,0.0,0.0,0.0,0.0,0.0,0.0,0.0,0.0,0.0,0.0,0.0,-3.7645,-3.8956,-3.9715,-4.0681,-4.189,-4.1567,-4.1467,-4.1719,-4.134,-4.0306,0.0,0.0,0.0,0.0,0.0,0.0,0.0,0.0,0.0,0.0,0.0,0.0,0.0,0.0,0.0,0.0,0.0,0.0,0.0,0.0,0.0,0.0,0.0,0.0,0.0,0.0,0.0,0.0,0.0,0.0,0.0,0.0,0.0,0.0,0.0,0.0,0.0,0.0,0.0,0.0,0.0,0.0,-3.5099,-3.5211,0.0,0.0,0.0,-3.4848,-3.4991,0.0,0.0,0.0,0.0,0.0,0.0,0.0,0.0,0.0,0.0,0.0,0.0,0.0,0.0,0.0,0.0,0.0,0.0,0.0,0.0,0.0,0.0,0.0,0.0,0.0,0.0,0.0,0.0,0.0,0.0,0.0,0.0,0.0,0.0,0.0,0.0,0.0,0.0,0.0,0.0,0.0,0.0,0.0,0.0,0.0,0.0,0.0,0.0,0.0,0.0,0.0,0.0,0.0,0.0,0.0,0.0,0.0,-3.8245,-3.8504,-3.9394,-4.0982,-4.0756,-4.0672,-4.0877,-4.0428,0.0,0.0,0.0,0.0,0.0,0.0,0.0,0.0,0.0,0.0,0.0,0.0,0.0,0.0,0.0,0.0,0.0,0.0,0.0,0.0,0.0,0.0,0.0,0.0,0.0,0.0,0.0,-2.3669,0.0,0.0,0.0,0.0,0.0,0.0,0.0,0.0,0.0,0.0,0.0,0.0,0.0,0.0,-3.5042,-3.6406,-3.6449,-3.636,0.0,0.0,-3.6033,-3.5795,-3.5136,-3.4348,0.0,0.0,0.0,0.0,0.0,0.0,0.0,0.0,0.0,0.0,0.0,0.0,0.0,0.0,0.0,0.0,0.0,0.0,0.0,0.0,0.0,0.0,0.0,0.0,0.0,0.0,0.0,0.0,0.0,0.0,0.0,0.0,0.0,0.0,0.0,0.0,0.0,0.0,0.0,0.0,0.0,0.0,0.0,0.0,0.0,0.0,0.0,0.0,0.0,0.0,0.0,0.0,0.0,0.0,0.0,-3.662,-3.7414,-3.8534,-3.9989,-3.9359,-3.9277,-3.9953,-3.8521,-3.7301,0.0,0.0,0.0,0.0,0.0,0.0,0.0,0.0,0.0,0.0,0.0,0.0,0.0,0.0,0.0,0.0,0.0,0.0,0.0,0.0,0.0,0.0,0.0,0.0,0.0,0.0,0.0,0.0,0.0,0.0,0.0,0.0,0.0,0.0,0.0,0.0,0.0,0.0,0.0,0.0,0.0,-3.5625,-3.6628,-3.6472,-3.6315,0.0,0.0,-3.577,-3.5645,-3.4997,-3.4227,-3.3347,0.0,0.0,0.0,0.0,0.0,0.0,0.0,0.0,0.0,0.0,0.0,0.0,0.0,0.0,0.0,0.0,0.0,0.0,0.0,0.0,0.0,0.0,0.0,0.0,0.0,0.0,0.0,0.0,0.0,0.0,0.0,0.0,0.0,0.0,0.0,0.0,0.0,0.0,0.0,0.0,0.0,0.0,0.0,0.0,0.0,0.0,0.0,0.0,0.0,0.0,0.0,0.0,0.0,-3.4497,-3.5547,-3.6407,-3.7367,-3.8419,-3.8643,-3.8661,-3.8429,-3.7823,-3.6615,0.0,0.0,0.0,0.0,0.0,0.0,0.0,0.0,0.0,0.0,0.0,0.0,0.0,0.0,0.0,0.0,0.0,0.0,0.0,0.0,0.0,0.0,0.0,0.0,0.0,0.0,0.0,0.0,-2.5862,-2.5972,-2.5811,0.0,0.0,0.0,0.0,0.0,0.0,0.0,0.0,0.0,0.0,-3.5119,-3.5941,-3.5934,0.0,0.0,-3.5825,-3.5645,-3.5493,-3.4455,-3.334,-3.2361,-3.1549,0.0,0.0,0.0,0.0,0.0,0.0,0.0,0.0,0.0,0.0,0.0,0.0,0.0,0.0,0.0,0.0,0.0,0.0,0.0,0.0,0.0,0.0,0.0,0.0,0.0,0.0,0.0,0.0,0.0,0.0,0.0,0.0,0.0,0.0,0.0,0.0,0.0,0.0,0.0,0.0,0.0,0.0,0.0,0.0,0.0,0.0,0.0,0.0,0.0,0.0,0.0,0.0,-3.4012,-3.5004,-3.5862,-3.6703,-3.7474,-3.8046,-3.8065,-3.7511,-3.7015,-3.5807,0.0,0.0,0.0,0.0,0.0,0.0,0.0,0.0,0.0,0.0,0.0,0.0,0.0,0.0,0.0,0.0,0.0,0.0,0.0,0.0,0.0,0.0,0.0,0.0,0.0,0.0,0.0,0.0,-2.5956,-2.5846,-2.568,0.0,0.0,0.0,0.0,0.0,0.0,0.0,0.0,0.0,0.0,-3.4816,-3.5689,-3.5691,-3.5594,-3.5477,-3.5518,-3.5411,-3.5006,-3.3899,-3.2716,-3.171,0.0,0.0,0.0,0.0,0.0,0.0,0.0,0.0,0.0,0.0,0.0,0.0,0.0,0.0,0.0,0.0,0.0,0.0,0.0,0.0,0.0,0.0,0.0,0.0,0.0,0.0,0.0,0.0,0.0,0.0,0.0,0.0,0.0,0.0,0.0,0.0,0.0,0.0,0.0,0.0,0.0,0.0,0.0,0.0,0.0,0.0,0.0,0.0,0.0,0.0,0.0,0.0,0.0,0.0,-3.4954,-3.5826,-3.6666,-3.7437,-3.7511,-3.7492,-3.7419,-3.5903,-3.4656,-3.377,0.0,0.0,0.0,0.0,0.0,0.0,0.0,0.0,0.0,0.0,0.0,0.0,0.0,0.0,0.0,0.0,0.0,0.0,0.0,0.0,0.0,0.0,0.0,0.0,0.0,0.0,-2.5975,-2.5795,-2.5631,0.0,0.0,0.0,0.0,0.0,0.0,0.0,0.0,0.0,0.0,-3.3941,-3.4921,-3.6038,-3.5873,-3.5444,-3.523,-3.5324,-3.5054,-3.4094,-3.3351,-3.2569,0.0,0.0,0.0,0.0,0.0,0.0,0.0,0.0,0.0,0.0,0.0,0.0,0.0,0.0,0.0,0.0,0.0,0.0,0.0,0.0,0.0,0.0,0.0,0.0,0.0,0.0,0.0,0.0,-3.5872,0.0,0.0,0.0,0.0,0.0,0.0,0.0,0.0,0.0,0.0,0.0,-3.6435,-3.5912,0.0,0.0,0.0,0.0,0.0,0.0,0.0,0.0,0.0,0.0,0.0,0.0,-3.366,-3.4197,-3.5023,-3.5555,-3.583,-3.6413,-3.6431,-3.5862,-3.5298,-3.4124,-3.226,0.0,0.0,0.0,0.0,0.0,0.0,0.0,0.0,0.0,0.0,0.0,0.0,0.0,0.0,0.0,0.0,0.0,0.0,0.0,0.0,0.0,0.0,0.0,0.0,0.0,-2.5775,0.0,0.0,0.0,0.0,0.0,0.0,0.0,0.0,0.0,0.0,0.0,-3.1175,-3.2151,-3.3273,-3.4152,-3.4626,-3.4584,-3.4457,0.0,0.0,0.0,0.0,0.0,0.0,0.0,0.0,0.0,0.0,0.0,0.0,0.0,0.0,-2.7196,-2.7133,-2.6879,-2.6641,-2.6549,0.0,0.0,0.0,0.0,0.0,0.0,0.0,0.0,0.0,0.0,0.0,0.0,0.0,0.0,0.0,0.0,-3.6958,0.0,0.0,0.0,0.0,0.0,0.0,0.0,0.0,-3.7026,-3.6988,-3.7224,-3.6963,-3.6528,0.0,-3.5982,-3.5138,0.0,0.0,0.0,0.0,0.0,0.0,0.0,0.0,-3.3807,-3.3844,-3.4601,-3.5004,-3.5023,-3.5536,-3.5587,-3.5004,-3.4179,-3.3018,-3.1452,-2.9783,-2.8839,0.0,0.0,0.0,0.0,0.0,0.0,0.0,0.0,0.0,0.0,0.0,0.0,0.0,0.0,0.0,0.0,0.0,0.0,0.0,0.0,0.0,0.0,0.0,-2.5666,0.0,0.0,0.0,0.0,0.0,0.0,0.0,0.0,0.0,-2.8705,-3.0068,-3.1181,-3.167,-3.2864,-3.372,-3.3822,0.0,0.0,0.0,0.0,0.0,0.0,0.0,-3.1787,-3.0767,-2.9736,-2.8839,-2.8187,-2.7882,-2.7687,-2.7613,0.0,0.0,-2.7047,-2.6951,-2.6884,-2.682,-2.6794,-2.6794,-2.6794,-2.6794,-2.6794,0.0,0.0,0.0,0.0,0.0,0.0,0.0,0.0,-3.795,-3.7856,0.0,-3.7527,0.0,0.0,0.0,0.0,0.0,0.0,0.0,0.0,-3.7273,-3.7253,-3.787,-3.7164,-3.676,-3.6742,-3.6736,-3.6686,-3.6538,-3.4983,0.0,0.0,0.0,0.0,0.0,0.0,-3.3807,-3.3825,-3.4546,-3.4968,-3.4949,-3.4968,-3.4954,-3.4894,-3.2706,-3.147,-3.1347,-2.9783,-2.8881,-2.8798,-2.8558,0.0,0.0,0.0,0.0,0.0,0.0,0.0,0.0,0.0,0.0,0.0,0.0,0.0,0.0,0.0,0.0,0.0,0.0,0.0,0.0,-2.5795,0.0,0.0,0.0,0.0,0.0,0.0,0.0,0.0,0.0,0.0,-2.864,-3.0355,-3.1598,-3.163,0.0,0.0,0.0,0.0,-3.3694,-3.371,-3.3694,-3.3642,-3.3503,-3.2625,-3.1674,-3.0716,0.0,0.0,-2.8201,-2.7974,-2.7879,-2.7937,-2.7759,-2.7532,-2.708,-2.6899,-2.6806,-2.6794,-2.6794,-2.6794,-2.6794,-2.6794,-2.6794,-4.3717,0.0,0.0,0.0,0.0,-4.0833,-4.0388,-3.9671,-3.9668,-3.9564,-3.9345,-3.8679,0.0,0.0,0.0,0.0,0.0,0.0,-3.8158,-3.8824,-3.8579,-3.8552,-3.8748,-3.8507,-3.8116,-3.7559,-3.7541,-3.7262,-3.6699,-3.619,-3.5799,-3.5519,0.0,0.0,0.0,0.0,-3.3807,-3.3825,-3.4027,-3.4142,-3.4156,-3.4142,-3.4137,-3.4137,-3.2926,-3.199,-3.1415,-2.9783,-2.887,-2.8798,-2.8063,0.0,0.0,0.0,0.0,0.0,0.0,0.0,0.0,0.0,0.0,0.0,0.0,0.0,0.0,0.0,0.0,0.0,0.0,0.0,-2.5811,-2.5226,-2.4827,0.0,0.0,0.0,0.0,0.0,0.0,0.0,0.0,0.0,-2.9131,-3.0473,-3.1628,0.0,0.0,-3.345,-3.3529,-3.3555,-3.3591,-3.3684,0.0,0.0,0.0,-3.2394,-3.1404,-3.0343,-2.8867,-2.7709,-2.7398,-2.7278,-2.7267,-2.7267,-2.7161,-2.7009,-2.689,-2.6832,-2.6779,-2.6794,-2.6794,-2.6794,-2.6794,-2.6794,-2.6794,-4.577,-4.4705,-4.3685,-4.2948,-4.2476,-4.2401,-4.1817,-4.0924,-4.0912,-4.0624,-4.0109,-3.9565,-3.9115,-3.866,-3.8029,0.0,0.0,0.0,-3.8816,-3.9156,-3.9115,-3.9101,-3.9101,-3.9101,-3.8841,-3.8377,-3.8377,-3.8116,-3.7652,-3.7652,-3.7806,-3.8025,0.0,0.0,-3.5717,-3.5092,-3.478,-3.478,-3.4449,-3.427,-3.427,-3.3972,-3.3807,-3.3788,-3.3036,-3.2228,-3.1415,-2.9771,-2.8839,-2.8798,-2.7809,-2.7605,0.0,0.0,0.0,0.0,0.0,0.0,0.0,0.0,0.0,0.0,0.0,-2.5897,0.0,0.0,0.0,0.0,-2.5937,-2.5811,-2.5661,-2.5232,0.0,0.0,0.0,0.0,0.0,0.0,0.0,-2.8902,-2.9253,-2.9562,-2.9702,-3.0482,-3.1141,-3.1505,-3.2054,-3.2513,-3.2574,0.0,-3.2599,-3.2619,-3.2558,-3.2404,-3.2144,-3.1539,-3.0729,-2.9543,-2.8293,-2.7328,-2.7055,-2.7003,-2.6977,-2.6925,-2.6858,-2.6794,-2.6794,-2.6794,-2.6794,-2.6794,-2.6794,-2.6794,-2.6794,-2.6794,-2.6794,-4.7228,-4.6883,-4.4443,-4.3364,-4.3308,-4.3231,-4.2678,-4.1807,-4.1803,-4.1282,-4.0416,-4.0252,-3.9675,-3.8782,-3.858,0.0,0.0,-3.9075,-3.9325,-3.9194,-3.9212,-3.9231,-3.9305,-3.9305,-3.9305,-3.9287,-3.9287,-3.9305,-3.9305,-3.9287,-3.9695,-4.0401,-3.8072,-3.6846,-3.6791,-3.6577,-3.645,-3.6376,-3.5591,-3.5151,-3.5004,-3.4211,-3.3807,-3.3807,-3.3078,-3.2265,-3.1292,-2.9753,-2.884,-2.8676,-2.7754,-2.7566,-2.8326,0.0,0.0,0.0,0.0,0.0,0.0,0.0,0.0,0.0,0.0,0.0,0.0,0.0,0.0,0.0,-2.5811,0.0,-2.5616,-2.5597,0.0,0.0,0.0,-2.7996,-2.8709,-2.9443,-2.9852,-2.9697,0.0,0.0,0.0,0.0,-3.0259,-3.0149,-3.0749,-3.1207,-3.1182,-3.1246,-3.1133,-3.1121,-3.1008,-3.0892,-3.0788,-3.0356,-2.97,-2.8554,-2.7802,-2.7303,-2.7055,-2.6977,-2.6925,-2.6832,-2.6794,-2.6794,-2.6794,-2.6794,-2.6794,-2.6794,-2.6794,-2.6794,-2.6794,-2.6794,-2.6794,-4.7703,-4.6999,-4.5669,-4.4751,-4.4195,-4.4137,-4.3553,-4.2699,-4.2647,-4.244,-4.2135,-4.1405,-4.0509,-3.9531,-3.9422,-3.9281,-3.9108,-3.9318,-3.9661,-4.0067,-4.0085,-4.0401,-4.0996,-4.0996,-4.0996,-4.0996,-4.0996,-4.0996,-4.0996,-4.0996,-4.1107,-4.1256,-4.0552,-3.9852,-3.9228,-3.8489,-3.7826,-3.7217,-3.7015,-3.6285,-3.5041,-3.4229,-3.3807,-3.3807,-3.3605,-3.2559,-3.0577,-2.9996,-2.9138,-2.7953,-2.7495,-2.763,-2.8357,-2.8282,0.0,0.0,0.0,0.0,0.0,0.0,0.0,0.0,0.0,-2.6398,-2.622,0.0,-2.6115,0.0,-2.5749,-2.5635,-2.5597,-2.5597,0.0,0.0,-2.73,-2.7955,-2.8597,-2.9378,-2.9808,-2.9563,-2.9608,-2.9672,-2.9713,-2.9621,-2.9575,-2.9529,-3.0577,-3.1306,-3.1207,-3.1117,-3.1042,-3.0945,-3.0779,-3.0633,-3.0392,-2.9678,-2.8785,-2.782,-2.7399,-2.7196,-2.7029,-2.6925,-2.6846,-2.6806,-2.6794,-2.6794,-2.6794,-2.6794,-2.6794,-2.6794,-2.6794,-2.6794,-2.6794,-2.6779,-2.6779,-4.8469,-4.7599,-4.6708,-4.582,-4.5025,-4.4969,-4.441,-4.359,-4.35,-4.3225,-4.2814,-4.2198,-4.1575,-4.1018,-4.0873,-4.071,-4.0545,-4.051,-4.0635,-4.0936,-4.0936,-4.1163,-4.159,-4.1605,-4.1605,-4.1605,-4.1605,-4.1605,-4.1605,-4.1605,-4.1776,-4.211,-4.1943,-4.181,-4.1699,-4.0086,-3.9001,-3.8576,-3.7511,-3.6321,-3.5027,-3.4229,-3.3807,-3.3788,-3.3458,-3.2467,-3.0779,-2.9948,-2.9083,-2.819,-2.7622,-2.7662,-2.8391,-2.8358,-2.8237,0.0,0.0,0.0,0.0,0.0,0.0,0.0,0.0,0.0,0.0,0.0,-2.6114,0.0,-2.5712,0.0,-2.5597,-2.5907,-2.6377,-2.7073,-2.7769,-2.8445,-2.9108,-2.961,-2.9836,-2.9697,-2.9697,-2.9675,-2.9586,-2.9473,-2.935,-2.9305,-2.9926,-3.0307,-3.0187,-3.0115,-3.0017,-2.9862,-2.9714,-2.9539,-2.9287,-2.8702,-2.806,-2.7527,-2.7335,-2.7222,-2.7029,-2.6951,-2.6858,-2.682,-2.6794,-2.6794,-2.6794,-2.6794,-2.6794,-2.6794,-2.6794,-2.6794,-2.6806,-2.6573,-2.6355,-4.9184,-4.8333,-4.7465,-4.6577,-4.568,-4.5637,-4.5152,-4.447,-4.4392,-4.3857,-4.3024,-4.2838,-4.2653,-4.2492,-4.2288,-4.214,-4.2012,-4.187,-4.1786,-4.1768,-4.1753,-4.1813,-4.1906,-4.1906,-4.1906,-4.1906,-4.1887,-4.1906,-4.1906,-4.1906,-4.2259,-4.2927,-4.2776,-4.3031,-4.3658,-4.1319,-4.001,-3.9879,-3.7606,-3.6046,-3.5188,-3.4376,-3.3899,-3.377,-3.3005,-3.2173,-3.1268,-2.9838,-2.8924,-2.8652,-2.7931,-2.7833,-2.8456,-2.8432,-2.8345,0.0,-2.8056,0.0,0.0,0.0,0.0,0.0,0.0,0.0,0.0,-2.6185,-2.6097,-2.5915,-2.5731,-2.56,-2.5597,-2.6264,-2.696,-2.764,-2.8352,-2.9086,-2.9799,-2.9896,-2.9896,-2.9896,-2.9792,-2.972,-2.972,-2.9592,-2.9434,-2.9366,-2.9215,-2.9155,-2.8967,-2.8952,-2.8841,-2.8444,-2.8387,-2.8379,-2.8036,-2.776,-2.7579,-2.7452,-2.7376,-2.7273,-2.7055,-2.6977,-2.6925,-2.6846,-2.6794,-2.6794,-2.6794,-2.6794,-2.6794,-2.6794,-2.6692,-2.6631,-2.6588,-2.6239,-2.5778,-4.9204,-4.8333,-4.7445,-4.6557,-4.57,-4.569,-4.5552,-4.5355,-4.5236,-4.4623,-4.3718,-4.3672,-4.3205,-4.2511,-4.2288,-4.2134,-4.2064,-4.1884,-4.2118,-4.266,-4.2586,-4.2927,-4.3503,-4.354,-4.354,-4.354,-4.3559,-4.3559,-4.3559,-4.3559,-4.3615,-4.3763,-4.3645,-4.3656,0.0,0.0,0.0,0.0,-3.8153,-3.6886,-3.6064,-3.5224,-3.4468,-3.3807,-3.3023,0.0,-3.0509,-3.0009,-2.9187,-2.7934,-2.8167,0.0,0.0,0.0,0.0,0.0,0.0,0.0,0.0,0.0,0.0,0.0,-2.6469,-2.6295,-2.6278,-2.6134,-2.599,-2.5915,-2.5772,-2.5661,-2.5616,-2.6264,-2.6976,-2.764,-2.8369,-2.9102,-2.9799,-2.9896,-2.9896,-2.9896,-2.9874,-2.9852,-2.9852,-2.9637,-2.9496,-2.945,-2.9167,-2.8936,-2.8826,-2.874,-2.8645,-2.8549,-2.8275,-2.8029,-2.784,-2.7675,-2.7549,-2.7412,-2.7284,-2.7181,-2.7044,-2.6899,-2.6846,-2.6794,-2.6794,-2.6794,-2.6794,-2.6794,-2.6779,-2.6779,-2.6358,-2.5992,-2.6006,-2.5905,-2.5658,-4.9544,0.0,-4.7932,-4.694,0.0,-4.5684,-4.5654,-4.5586,-4.5448,-4.5102,-4.4586,-4.4538,-4.4216,-4.3753,-4.3529,-4.3391,-4.3331,-4.3156,-4.3258,-4.3513,-4.352,-4.3679,-4.4005,-4.4005,-4.4005,-4.4005,-4.4005,-4.4005,-4.4005,-4.4005,-4.4005,-4.4005,-4.3867,-4.3788,-4.3751,-4.2002,-4.0508,-3.9313,-3.8135,-3.7125,-3.6303,-3.5445,-3.4619,-3.3807,0.0,0.0,0.0,0.0,0.0,0.0,0.0,0.0,0.0,0.0,0.0,-2.8154,-2.8025,-2.7821,-2.7511,-2.723,-2.7022,-2.6859,-2.6572,-2.6364,-2.6241,-2.6099,-2.5956,-2.5915,-2.5772,-2.568,-2.5632,-2.6555,-2.7332,-2.7705,-2.8681,-2.9507,-2.9815,-2.9896,-2.9896,-2.9896,-2.9896,-2.9896,-2.9896,-2.9675,-2.9518,-2.9473,-2.9167,-2.8897,-2.8858,-2.8716,-2.8565,-2.8332,-2.8103,-2.7865,-2.77,-2.759,-2.7463,-2.731,-2.7181,-2.7067,-2.6925,-2.6846,-2.6794,-2.6794,-2.6794,-2.6794,-2.6794,-2.6794,-2.6718,-2.6384,-2.605,-2.5531,-2.5077,-2.4849,-2.4762,-4.9784,-4.8392,-4.8217,-4.7233,-4.5715,-4.5708,-4.5651,-4.5577,0.0,0.0,0.0,-4.517,-4.5103,-4.5091,-4.4821,-4.4685,-4.4605,-4.4463,-4.4358,-4.4244,-4.4233,-4.4135,-4.4036,-4.4005,-4.4005,-4.4005,-4.4005,-4.4005,-4.4005,-4.4005,-4.4005,-4.3989,-4.3867,-4.3714,-4.3424,-4.1912,-4.0361,-3.8964,-3.8117,-3.7327,-3.6523,-3.5679,-3.4839,-3.4045,-3.3091,-3.2575,-3.2477,-3.1082,-3.0178,-2.9893,-2.9245,-2.8764,-2.8523,-2.8479,-2.8411,-2.8196,-2.813,-2.7925,-2.7602,-2.7355,-2.7119,-2.6942,-2.6674,-2.6415,-2.6239,-2.6115,-2.6025,-2.5917,-2.5809,-2.5717,-2.5635,-2.6749,-2.7575,-2.7705,-2.8887,-2.9718,-2.9864,-2.9896,-2.9896,-2.9896,-2.9896,-2.9896,-2.988,-2.9675,-2.9496,-2.945,-2.9167,-2.8873,-2.885,-2.87,-2.8493,-2.8152,-2.798,-2.779,-2.7665,-2.7488,-2.7376,-2.7233,-2.7093,-2.6951,-2.6846,-2.6794,-2.675,-2.6562,-2.6605,-2.6533,-2.6445,-2.6344,-2.6257,-2.572,-2.5517,-2.5154,-2.4181,-2.3804,-2.3746,-4.9301,-4.8333,-4.7599,-4.6706,-4.5773,-4.5723,-4.5635,-4.5504,-4.5448,-4.539,-4.5369,-4.5181,-4.5103,-4.5072,-4.487,-4.4745,-4.4685,-4.4537,-4.4458,0.0,-4.4259,-4.4184,-4.4169,-4.4055,-4.4005,-4.4005,-4.4005,-4.4005,-4.4005,-4.4005,-4.4005,-4.4008,-4.3849,-4.3371,-4.2502,-4.157,-4.0653,-3.9735,-3.8946,-3.8138,-3.7345,-3.6541,-3.5697,-3.4839,-3.339,-3.258,-3.2477,-3.1566,-3.0698,-2.9948,-2.9733,-2.9306,-2.8577,-2.8445,-2.8331,-2.8126,-2.8056,-2.7868,-2.7542,-2.7324,-2.7054,-2.6691,-2.6554,-2.6434,-2.6312,-2.6222,-2.6115,-2.6008,-2.5901,-2.5809,-2.5749,-2.6383,-2.7089,-2.764,-2.845,-2.9183,-2.9718,-2.9815,-2.9815,-2.9832,-2.9896,-2.988,-2.9858,-2.9675,-2.9518,-2.945,-2.9111,-2.8818,-2.8662,-2.8621,-2.8477,-2.8235,-2.8054,-2.7915,-2.774,-2.7539,-2.7346,-2.7233,-2.7049,-2.6849,-2.6646,-2.662,-2.6486,-2.6025,-2.5963,-2.5749,-2.5288,-2.5071,-2.51,-2.4955,-2.4631,-2.4167,-2.3847,-2.3455,-2.3076,-4.9184,-4.8314,-4.7444,-4.6598,-4.58,-4.5738,-4.5654,-4.5614,-4.5495,-4.5448,-4.5398,-4.5224,-4.5136,-4.5072,-4.4919,-4.4808,-4.4764,-4.4619,-4.4528,-4.4458,-4.434,-4.4289,-4.4199,-4.4135,-4.407,-4.4005,-4.4005,-4.4005,-4.4005,-4.4005,-4.4005,-4.3989,-4.3867,-4.3281,-4.2321,-4.1497,-4.0726,-3.9918,-3.9111,-3.8303,-3.7511,-3.7144,-3.634,-3.5059,-3.4238,-3.3648,-3.31,-3.2306,-3.1637,-3.1166,-3.0287,-2.9569,-2.912,-2.8671,-2.8286,-2.8071,-2.8011,-2.7853,-2.7526,-2.723,-2.7007,-2.6775,-2.6589,-2.6484,-2.6399,-2.6276,-2.615,-2.6026,-2.5972,-2.5883,-2.5735,-2.6327,-2.6854,-2.7142,-2.7786,-2.832,-2.8611,-2.8709,-2.8876,-2.9216,-2.9313,-2.9459,-2.9848,-2.9742,-2.9608,-2.957,-2.9035,-2.8516,-2.8309,-2.7874,-2.7744,-2.7994,-2.8044,-2.7905,-2.7725,-2.7448,-2.7151,-2.675,-2.6488,-2.6199,-2.585,-2.5749,-2.5618,-2.5371,-2.5324,-2.5197,-2.4863,-2.4878,-2.4733,-2.4317,-2.4138,-2.3804,-2.3432,-2.3084,-2.2917,-4.903,-4.8314,-4.7231,-4.6424,-4.5819,-4.5738,-4.5717,-4.5693,-4.5587,-4.5486,-4.5409,-4.5277,-4.5192,-4.5136,-4.4998,-4.4883,-4.4789,-4.4523,-4.4323,-4.4247,-4.4172,-4.4078,-4.4017,-4.4121,-4.415,-4.4055,-4.402,-4.4005,-4.4005,-4.4005,-4.4008,-4.3942,-4.3869,-4.3391,-4.2597,-4.1572,-4.0799,-4.0139,-3.9203,-3.8414,-3.7804,-3.7603,-3.6872,-3.5683,-3.5188,-3.4641,-3.3893,-3.309,-3.2529,-3.2158,-3.1016,-3.0116,-2.9634,-2.8999,-2.8483,-2.806,-2.7982,-2.7856,-2.7511,-2.7168,-2.6958,-2.6909,-2.6657,-2.6485,-2.6485,-2.6327,-2.6168,-2.6079,-2.6026,-2.5937,-2.5858,-2.6227,-2.6626,-2.6724,-2.7178,-2.7579,-2.7705,-2.7721,-2.7899,-2.8433,-2.853,-2.8773,-2.9227,-2.9264,-2.9128,-2.8972,-2.8515,-2.8037,-2.7778,-2.7155,-2.7055,-2.7369,-2.7573,-2.7376,-2.724,-2.6946,-2.6549,-2.6081,-2.5824,-2.555,-2.514,-2.4966,-2.482,-2.4815,-2.4742,-2.4664,-2.4567,-2.4495,-2.43,-2.3877,-2.3754,-2.3577,-2.3183,-2.3052,-2.2955,-4.8488,-4.814,-4.6651,-4.5882,-4.5807,-4.5781,-4.5754,-4.5701,-4.5622,-4.5559,-4.5476,-4.5339,-4.5277,-4.5246,-4.5061,-4.4955,-4.4826,-4.4071,-4.3649,-4.3533,-4.3378,-4.3315,-4.34,-4.3923,-4.4184,-4.415,-4.407,-4.4005,-4.4005,-4.4005,-4.3945,-4.3818,-4.3804,-4.3666,-4.3238,-4.1882,-4.1058,-4.0948,-3.9478,-3.867,-3.856,-3.7878,-3.7419,-3.7272,-3.5775,-3.4897,-3.4623,-3.3911,-3.3079,-3.2299,-3.2053,-3.1237,-2.985,-2.953,-2.9034,-2.8099,-2.8,-2.7842,-2.745,-2.7153,-2.6958,-2.6876,-2.6657,-2.6485,-2.6485,-2.631,-2.6185,-2.6168,-2.6079,-2.5992,-2.5974,-2.6016,-2.6251,-2.6642,-2.6838,-2.7088,-2.7498,-2.7721,-2.7737,-2.7786,-2.7818,-2.785,-2.8008,-2.799,-2.7837,-2.7907,-2.7588,-2.7317,-2.712,-2.6785,-2.6458,-2.6441,-2.6314,-2.619,-2.6064,-2.5762,-2.564,-2.5512,-2.5348,-2.5149,-2.4969,-2.4934,-2.4987,-2.4309,-2.4244,-2.4082,-2.3746,-2.3481,-2.3481,-2.3517,-2.3415,-2.3341,-2.3268,-2.3231,-2.3164,-4.8411,-4.8217,-4.6523,-4.5819,-4.5798,-4.5815,-4.5785,-4.5754,-4.5682,-4.5648,-4.5594,-4.5477,-4.538,-4.5277,-4.5203,-4.5125,-4.4965,-4.4073,-4.3629,-4.3548,-4.3389,-4.3284,-4.3277,-4.398,-4.427,-4.4199,-4.4153,-4.407,-4.4005,-4.4005,-4.3961,-4.3867,-4.3802,-4.3719,-4.3473,-4.2395,-4.1572,-4.1077,-3.9974,-3.9184,-3.8726,-3.8395,-3.7973,-3.7437,-3.6358,-3.5443,-3.4816,-3.4025,-3.3389,-3.2919,-3.2451,-3.1833,-3.1056,-3.0142,-2.9321,-2.867,-2.8038,-2.7632,-2.7483,-2.7168,-2.6975,-2.6958,-2.6674,-2.6485,-2.6485,-2.6327,-2.6185,-2.6185,-2.615,-2.6097,-2.6026,-2.5972,-2.6065,-2.6218,-2.6265,-2.6376,-2.6602,-2.6558,-2.6649,-2.7071,-2.7145,-2.7267,-2.7608,-2.7664,-2.7618,-2.7513,-2.7157,-2.6746,-2.6575,-2.6092,-2.5628,-2.5346,-2.5133,-2.5292,-2.5591,-2.5553,-2.5271,-2.4942,-2.4731,-2.4578,-2.4218,-2.4086,-2.3938,-2.3725,-2.374,-2.3651,-2.3415,-2.3297,-2.3282,-2.3282,-2.3282,-2.3282,-2.3282,-2.3282,-2.3231,-4.8237,-4.7811,-4.6406,-4.5807,-4.58,-4.5817,-4.5815,-4.58,-4.5758,-4.5726,-4.5693,-4.5586,-4.5486,-4.536,-4.5328,-4.5235,-4.5014,-4.3931,-4.3528,-4.3613,-4.3316,-4.3163,-4.3302,-4.406,-4.4354,-4.4274,-4.4233,-4.4135,-4.4005,-4.4005,-4.3958,-4.3897,-4.3818,-4.3736,-4.3525,-4.2724,-4.1919,-4.1113,-4.0304,-3.9496,-3.8817,-3.8707,-3.8432,-3.7808,-3.7037,-3.6153,-3.5166,-3.4353,-3.3753,-3.3393,-3.2832,-3.2376,-3.1974,-3.0682,-2.9589,-2.8847,-2.8007,-2.7529,-2.7496,-2.7168,-2.7008,-2.6958,-2.6708,-2.652,-2.6484,-2.6345,-2.6239,-2.6185,-2.6185,-2.615,-2.6063,-2.6045,-2.6008,-2.5936,-2.5917,-2.5917,-2.593,-2.5809,-2.5999,-2.6453,-2.6512,-2.6652,-2.7055,-2.71,-2.7028,-2.698,-2.6574,-2.6165,-2.5982,-2.5473,-2.4949,-2.4645,-2.4457,-2.4612,-2.5213,-2.5108,-2.4769,-2.4552,-2.4246,-2.4,-2.3503,-2.3459,-2.3385,-2.3629,-2.3437,-2.3392,-2.3414,-2.3392,-2.337,-2.337,-2.337,-2.337,-2.3392,-2.337,-2.337,-4.7908,-4.7076,-4.6174,-4.5807,-4.58,-4.58,-4.5798,-4.5807,-4.5781,-4.5762,-4.5709,-4.5693,-4.5622,-4.5476,-4.537,-4.5307,-4.5065,-4.3539,-4.3144,-4.3604,-4.2912,-4.2824,-4.342,-4.4129,-4.4473,-4.4387,-4.4274,-4.415,-4.402,-4.4005,-4.3958,-4.3915,-4.3837,-4.3754,-4.3525,-4.2779,-4.1919,-4.1187,-4.0396,-3.9551,-3.8836,-3.8726,-3.867,-3.8524,-3.7826,-3.6905,-3.5969,-3.5152,-3.4331,-3.3444,-3.3321,-3.2918,-3.2064,-3.1189,-2.9898,-2.8347,-2.7771,-2.7572,-2.7481,-2.7201,-2.7024,-2.6975,-2.6742,-2.6571,-2.6502,-2.6381,-2.6276,-2.622,-2.6185,-2.6185,-2.6185,-2.6168,-2.6115,-2.6026,-2.6008,-2.5972,-2.5915,-2.5915,-2.5915,-2.5979,-2.6026,-2.6073,-2.604,-2.5854,-2.5961,-2.5921,-2.5643,-2.549,-2.5426,-2.519,-2.4926,-2.4706,-2.4467,-2.4322,-2.4325,-2.4392,-2.4221,-2.4072,-2.4025,-2.3823,-2.3762,-2.3696,-2.3616,-2.3573,-2.353,-2.353,-2.3573,-2.3573,-2.3551,-2.353,-2.353,-2.353,-2.3508,-2.3551,-2.3551,-4.756,-4.6252,-4.5942,-4.5807,-4.5807,-4.5807,-4.5819,-4.5805,-4.5815,-4.5792,-4.5781,-4.5711,-4.5671,-4.5622,-4.5542,-4.5429,-4.5234,-4.4064,-4.3615,-4.3772,-4.3414,-4.3338,-4.3567,-4.4224,-4.4542,-4.4458,-4.4373,-4.4255,-4.4116,-4.4055,-4.3989,-4.3942,-4.3869,-4.3788,-4.3664,-4.3307,-4.2671,-4.1882,-4.1075,-4.0286,-3.9478,-3.8964,-3.8707,-3.867,-3.7915,-3.7033,-3.6045,-3.5224,-3.4368,-3.3429,-3.3393,-3.3192,-3.2646,-3.133,-3.0003,-2.8832,-2.8041,-2.7615,-2.7496,-2.7231,-2.7039,-2.6992,-2.6742,-2.6571,-2.6485,-2.6399,-2.6277,-2.6205,-2.6185,-2.6185,-2.6185,-2.6185,-2.6185,-2.6133,-2.6115,-2.6097,-2.6096,-2.6025,-2.5972,-2.5954,-2.5936,-2.5915,-2.5899,-2.5862,-2.5807,-2.5717,-2.5645,-2.553,-2.5394,-2.5275,-2.5103,-2.4886,-2.465,-2.4482,-2.4395,-2.4181,-2.4013,-2.3976,-2.3897,-2.3848,-2.3775,-2.3696,-2.3616,-2.3573,-2.3595,-2.3595,-2.3595,-2.3595,-2.3595,-2.3595,-2.3595,-2.3595,-2.3595,-2.3595,-2.3595,-4.6883,-4.5904,-4.5807,-4.5807,-4.5807,-4.5807,-4.5807,-4.58,-4.5817,-4.5803,-4.5781,-4.5758,-4.5727,-4.5698,-4.5657,-4.5578,-4.5362,-4.4469,-4.4149,-4.4301,-4.3931,-4.3827,-4.4071,-4.4435,-4.4592,-4.451,-4.444,-4.431,-4.4199,-4.4101,-4.4055,-4.4005,-4.3881,-4.382,-4.3753,-4.3635,-4.3128,-4.2304,-4.1499,-4.0708,-3.9918,-3.9111,-3.8707,-3.8634,-3.8157,-3.7451,-3.6492,-3.5622,-3.4765,-3.3923,-3.3553,-3.3211,-3.2664,-3.1318,-3.0083,-2.9154,-2.8244,-2.7674,-2.7511,-2.7261,-2.7104,-2.7007,-2.6809,-2.6657,-2.652,-2.6416,-2.6329,-2.6222,-2.6185,-2.6185,-2.6185,-2.6185,-2.6185,-2.6185,-2.6185,-2.6185,-2.6185,-2.6115,-2.6079,-2.6045,-2.6025,-2.6007,-2.5989,-2.5936,-2.5899,-2.5811,-2.5756,-2.5642,-2.5508,-2.5391,-2.5259,-2.5045,-2.4831,-2.4666,-2.4523,-2.4312,-2.4187,-2.413,-2.4024,-2.3925,-2.3839,-2.3739,-2.3638,-2.3616,-2.3595,-2.3595,-2.3595,-2.3595,-2.3595,-2.3595,-2.3595,-2.3595,-2.3595,-2.3595,-2.3595,-4.5845,-4.5807,-4.5807,-4.5807,-4.5807,-4.5807,-4.5807,-4.5807,-4.58,-4.5805,-4.5815,-4.5788,-4.5765,-4.57,-4.5698,-4.5657,-4.5433,-4.4652,-4.4564,-4.5046,-4.4301,-4.4254,-4.48,-4.4732,-4.4653,-4.4578,-4.4454,-4.4344,-4.4214,-4.4199,-4.4135,-4.4005,-4.3945,-4.3867,-4.3804,-4.3632,-4.318,-4.2395,-4.1589,-4.0728,-3.9918,-3.9166,-3.8707,-3.8707,-3.8634,-3.8218,-3.7406,-3.6456,-3.5472,-3.4633,-3.3836,-3.299,-3.2226,-3.1224,-3.0222,-2.9272,-2.8323,-2.7754,-2.7509,-2.7324,-2.7168,-2.7007,-2.6925,-2.6759,-2.6537,-2.6485,-2.6398,-2.6239,-2.6185,-2.6185,-2.6185,-2.6185,-2.6185,-2.6185,-2.6185,-2.6185,-2.6185,-2.6185,-2.6185,-2.6169,-2.6168,-2.6185,-2.6168,-2.6079,-2.6008,-2.5937,-2.5828,-2.5698,-2.5584,-2.5486,-2.5298,-2.5103,-2.4946,-2.4826,-2.4661,-2.4477,-2.4416,-2.4317,-2.4208,-2.4103,-2.3982,-2.3861,-2.3739,-2.3674,-2.3616,-2.3595,-2.3595,-2.3595,-2.3595,-2.3595,-2.3595,-2.3595,-2.3595,-2.3595,-2.3595,-4.5807,-4.5807,-4.5807,-4.5807,-4.5807,-4.5807,-4.5807,-4.5807,-4.5807,-4.58,-4.5812,-4.5805,-4.5764,-4.5746,-4.5727,-4.5679,-4.5629,-4.5235,-4.516,-4.5222,-4.4959,-4.4832,-4.4941,-4.4889,-4.4764,-4.4605,-4.451,-4.443,-4.4325,-4.4285,-4.4211,-4.4153,-4.4023,-4.3913,-4.3804,-4.3667,-4.3399,-4.3019,-4.1774,-4.0967,-4.0598,-3.9405,-3.8707,-3.8707,-3.8707,-3.8545,-3.8236,-3.6818,-3.5632,-3.4775,-3.3854,-3.3192,-3.2625,-3.1458,-3.0472,-2.9872,-2.8644,-2.7792,-2.7542,-2.7386,-2.7231,-2.704,-2.6942,-2.6776,-2.6537,-2.6502,-2.6415,-2.6238,-2.6203,-2.6185,-2.6185,-2.6185,-2.6185,-2.6185,-2.6185,-2.6185,-2.6185,-2.6185,-2.6185,-2.6185,-2.6185,-2.6185,-2.6185,-2.6133,-2.6097,-2.6026,-2.5917,-2.5807,-2.568,-2.553,-2.5375,-2.5236,-2.5119,-2.4982,-2.4782,-2.4641,-2.4523,-2.4421,-2.4333,-2.4208,-2.4088,-2.3961,-2.3839,-2.3717,-2.3638,-2.3616,-2.3595,-2.3595,-2.3595,-2.3595,-2.3595,-2.3595,-2.3595,-2.3595,-2.3595,-4.5807,-4.5807,-4.5807,-4.5807,-4.5807,-4.5807,-4.5807,-4.5807,-4.5807,-4.5807,-4.5807,-4.5807,-4.5812,-4.5803,-4.5746,-4.5727,-4.5679,-4.5612,-4.5505,-4.538,-4.5317,-4.5224,-4.5103,-4.4955,-4.4808,-4.4659,-4.4565,-4.4496,-4.4426,-4.4373,-4.43,-4.4244,-4.4135,-4.4008,-4.3883,-4.3734,-4.3634,-4.331,-4.1937,-4.1113,-4.0783,-3.9517,-3.8707,-3.8707,-3.8707,-3.8707,-3.8582,-3.6991,-3.5772,-3.5078,-3.4083,-3.3337,-3.3009,-3.1903,-3.0924,-3.0196,-2.9187,-2.8188,-2.7639,-2.7483,-2.7294,-2.7056,-2.6958,-2.6809,-2.6589,-2.6537,-2.645,-2.6276,-2.624,-2.6222,-2.6203,-2.6185,-2.6185,-2.6185,-2.6185,-2.6185,-2.6185,-2.6185,-2.6185,-2.6185,-2.6185,-2.6185,-2.6185,-2.6185,-2.6168,-2.6079,-2.599,-2.5899,-2.5772,-2.5642,-2.5508,-2.5355,-2.5236,-2.5064,-2.4906,-2.4766,-2.4645,-2.4523,-2.4416,-2.4291,-2.4187,-2.4024,-2.3861,-2.3717,-2.3616,-2.3595,-2.3595,-2.3595,-2.3595,-2.3595,-2.3595,-2.3595,-2.3595,-2.3595,-2.3595,-4.5807,-4.5807,-4.5807,-4.5807,-4.5807,-4.5807,-4.5807,-4.5807,-4.5807,-4.5807,-4.5807,-4.5807,-4.5807,-4.5812,-4.5795,-4.5758,-4.5708,-4.569,-4.5631,-4.5505,-4.539,-4.5317,-4.5254,-4.5014,-4.4846,-4.4738,-4.4659,-4.4578,-4.451,-4.4454,-4.4387,-4.4314,-4.4244,-4.4135,-4.3992,-4.3867,-4.3718,-4.3379,-4.1952,-4.113,-4.1003,-3.9536,-3.8707,-3.8707,-3.8707,-3.8707,-3.8472,-3.704,-3.6032,-3.5705,-3.4301,-3.35,-3.3129,-3.2466,-3.1607,-3.0493,-2.9571,-2.8594,-2.7855,-2.7526,-2.7374,-2.7071,-2.711,-2.696,-2.6826,-2.6925,-2.694,-2.6731,-2.6663,-2.6561,-2.6522,-2.6387,-2.6336,-2.6185,-2.6185,-2.6185,-2.6185,-2.6185,-2.6185,-2.6185,-2.6185,-2.6185,-2.6185,-2.6185,-2.6185,-2.6168,-2.6063,-2.5972,-2.5899,-2.5754,-2.5607,-2.5473,-2.5352,-2.5236,-2.508,-2.5005,-2.4866,-2.4726,-2.4605,-2.4477,-2.4271,-2.4088,-2.3903,-2.3739,-2.3616,-2.3595,-2.3595,-2.3595,-2.3595,-2.3595,-2.3595,-2.3595,-2.3595,-2.3595,-2.3595,-4.5827,-4.5807,-4.5807,-4.5807,-4.5807,-4.5807,-4.5807,-4.5807,-4.5807,-4.5807,-4.5807,-4.5807,-4.5807,-4.58,-4.5803,-4.5781,-4.5816,-4.5753,-4.5673,-4.5631,-4.5514,-4.539,-4.5286,-4.5091,-4.4931,-4.4846,-4.477,-4.4693,-4.4646,-4.4565,-4.4496,-4.4444,-4.4348,-4.4195,-4.4005,-4.3913,-4.3767,-4.3413,-4.2016,-4.1142,-4.0855,-3.9533,-3.8726,-3.8707,-3.8707,-3.867,-3.8527,-3.7036,-3.5747,-3.5066,-3.4616,-3.4204,-3.3905,-3.3258,-3.2196,-3.0734,-2.9695,-2.8729,-2.7949,-2.7624,-2.7438,-2.7234,-2.7703,-2.7827,-2.7553,-2.8026,-2.8189,-2.8129,-2.8074,-2.8005,-2.7918,-2.7428,-2.6907,-2.6286,-2.6354,-2.6286,-2.6185,-2.6185,-2.6185,-2.6185,-2.6185,-2.6185,-2.6185,-2.6185,-2.6185,-2.6169,-2.6097,-2.6008,-2.5954,-2.5828,-2.5663,-2.5584,-2.5467,-2.5352,-2.5256,-2.5217,-2.5103,-2.4966,-2.4826,-2.4722,-2.4477,-2.4187,-2.4003,-2.3797,-2.3696,-2.3638,-2.3616,-2.3595,-2.3595,-2.3595,-2.3595,-2.3595,-2.3595,-2.3595,-2.3595,-4.5867,-4.5847,-4.5814,-4.5807,-4.5807,-4.5807,-4.5807,-4.5807,-4.5807,-4.5807,-4.5807,-4.5807,-4.5807,-4.58,-4.5805,-4.6015,-4.6283,-4.6294,-4.6466,-4.6667,-4.629,-4.5812,-4.5422,-4.5189,-4.508,-4.4967,-4.4883,-4.484,-4.4776,-4.4659,-4.4578,-4.451,-4.4416,-4.4266,-4.4147,-4.4008,-4.3862,-4.3455,-4.2117,-4.119,-4.1013,-3.9549,-3.8817,-3.8707,-3.867,-3.8487,-3.7664,-3.6633,-3.5542,-3.455,-3.4189,-3.4196,-3.433,-3.3941,-3.3001,-3.1546,-3.0927,-3.0134,-2.9009,-2.8609,-2.8388,-2.828,-2.8611,-2.8613,-2.856,-2.8881,-2.9046,-2.8814,-2.8827,-2.879,-2.8647,-2.8223,-2.7748,-2.7411,-2.726,-2.6957,-2.6336,-2.6185,-2.6185,-2.6185,-2.6185,-2.6185,-2.6185,-2.6185,-2.6185,-2.6185,-2.615,-2.6079,-2.6008,-2.5864,-2.5754,-2.5677,-2.5562,-2.5448,-2.5355,-2.5317,-2.522,-2.5068,-2.4926,-2.4842,-2.4564,-2.425,-2.4067,-2.3882,-2.376,-2.3674,-2.3638,-2.3595,-2.3595,-2.3595,-2.3595,-2.3595,-2.3595,-2.3595,-2.3595,-4.5906,-4.59,-4.584,-4.5807,-4.5807,-4.5807,-4.5807,-4.5807,-4.5807,-4.5807,-4.5807,-4.5807,-4.5923,-4.5942,-4.6129,-4.6443,-4.7225,-4.721,-4.7568,-4.757,-4.7135,-4.633,-4.5665,-4.5354,-4.5222,-4.5114,-4.4979,-4.4907,-4.4877,-4.4725,-4.4632,-4.4578,-4.4468,-4.4368,-4.4266,-4.4116,-4.4008,-4.3601,-4.216,-4.1272,-4.0912,-3.9651,-3.8775,-3.8707,-3.8707,-3.79,-3.6876,-3.6117,-3.5389,-3.3692,-3.3607,-3.4021,-3.4444,-3.4369,-3.3714,-3.2816,-3.2181,-3.1507,-3.0443,-2.9792,-2.9703,-2.9469,-2.9506,-2.9575,-2.9504,-2.9622,-2.9668,-2.9519,-2.9248,-2.9256,-2.8955,-2.8833,-2.868,-2.8459,-2.8544,-2.7918,-2.6889,-2.6387,-2.6303,-2.622,-2.6185,-2.6185,-2.6185,-2.6185,-2.6185,-2.6185,-2.6168,-2.615,-2.6079,-2.5972,-2.5864,-2.5791,-2.5659,-2.5508,-2.547,-2.5416,-2.5282,-2.5146,-2.4985,-2.4822,-2.4544,-2.4297,-2.4109,-2.3961,-2.3839,-2.3739,-2.3674,-2.3638,-2.3616,-2.3595,-2.3595,-2.3595,-2.3595,-2.3595,-2.3595,-4.5963,-4.59,-4.5906,-4.5854,-4.5807,-4.5807,-4.5807,-4.5807,-4.5807,-4.5807,-4.5807,-4.5807,-4.6187,-4.6767,-4.6774,-4.7289,-4.804,-4.8114,-4.8136,-4.8022,-4.7302,-4.6818,-4.6302,-4.5742,-4.5335,-4.5233,-4.5049,-4.4979,-4.495,-4.4852,-4.4738,-4.4672,-4.4537,-4.444,-4.4354,-4.4222,-4.4104,-4.3714,-4.2307,-4.144,-4.0943,-3.9731,-3.8805,-3.8707,-3.8707,-3.7863,-3.6652,-3.627,-3.5402,-3.4274,-3.4124,-3.4355,-3.4519,-3.4517,-3.3777,-3.2701,-3.213,-3.1527,-3.0552,-3.0272,-3.0024,-3.0017,-3.0317,-3.0491,-3.0454,-3.0793,-3.0922,-3.0838,-3.0764,-3.0366,-2.9772,-2.965,-2.9429,-2.9053,-2.8867,-2.868,-2.8137,-2.7546,-2.6957,-2.6438,-2.6253,-2.6203,-2.6203,-2.6221,-2.6221,-2.6203,-2.6203,-2.6185,-2.6132,-2.6061,-2.5972,-2.5883,-2.5791,-2.5677,-2.564,-2.5565,-2.5413,-2.5262,-2.5084,-2.4906,-2.4625,-2.4385,-2.4234,-2.4088,-2.3925,-2.3839,-2.3739,-2.3674,-2.3616,-2.3616,-2.3595,-2.3595,-2.3595,-2.3595,-2.3595,-4.5993,-4.5944,-4.5912,-4.5886,-4.5827,-4.5814,-4.5807,-4.5807,-4.5807,-4.5807,-4.5807,-4.5807,-4.631,-4.7057,-4.7154,-4.7734,-4.8887,-4.9397,-4.928,-4.8902,-4.8307,-4.7677,-4.6836,-4.6311,-4.5869,-4.5444,-4.5233,-4.5125,-4.5033,-4.4907,-4.4808,-4.4751,-4.4605,-4.4528,-4.444,-4.4344,-4.4226,-4.3915,-4.2823,-4.1881,-4.1197,-4.009,-3.9074,-3.8778,-3.8652,-3.8065,-3.7,-3.6468,-3.5614,-3.4659,-3.4268,-3.4371,-3.4594,-3.4576,-3.3996,-3.3312,-3.2892,-3.2422,-3.176,-3.1368,-3.1259,-3.1057,-3.1393,-3.1359,-3.1357,-3.1576,-3.1603,-3.1504,-3.1338,-3.1106,-3.0594,-3.0504,-3.0215,-3.0025,-2.9854,-2.9719,-2.9223,-2.8509,-2.7699,-2.7079,-2.6913,-2.6679,-2.6528,-2.6393,-2.6328,-2.6345,-2.6363,-2.6345,-2.6222,-2.6169,-2.6079,-2.599,-2.5917,-2.5879,-2.5842,-2.5715,-2.5562,-2.5394,-2.5201,-2.5045,-2.4846,-2.4609,-2.44,-2.4234,-2.4046,-2.3903,-2.3839,-2.3739,-2.3674,-2.3616,-2.3595,-2.3595,-2.3595,-2.3595,-2.3595,-4.6022,-4.5991,-4.5932,-4.5906,-4.5893,-4.584,-4.5807,-4.5807,-4.5807,-4.5807,-4.5865,-4.5904,-4.66,-4.7212,-4.7579,-4.8488,-4.966,-5.0372,-5.0281,-4.9782,-4.939,-4.8469,-4.7454,-4.6873,-4.6281,-4.5505,-4.5328,-4.5233,-4.5144,-4.4998,-4.4883,-4.4796,-4.4712,-4.4624,-4.451,-4.444,-4.434,-4.411,-4.3226,-4.2433,-4.1637,-4.0624,-3.9596,-3.8863,-3.867,-3.8267,-3.7401,-3.6688,-3.5881,-3.5041,-3.4179,-3.4099,-3.435,-3.4482,-3.441,-3.4228,-3.3806,-3.3319,-3.2725,-3.2559,-3.2431,-3.244,-3.2371,-3.2214,-3.2002,-3.186,-3.1784,-3.1671,-3.1504,-3.137,-3.1232,-3.1111,-3.1125,-3.1089,-3.114,-3.0847,-3.0196,-2.9446,-2.8837,-2.791,-2.7472,-2.7136,-2.6852,-2.6634,-2.6569,-2.6502,-2.6502,-2.6468,-2.6364,-2.6293,-2.6222,-2.6152,-2.6117,-2.599,-2.5936,-2.5881,-2.5715,-2.5543,-2.5352,-2.5182,-2.5025,-2.4846,-2.4605,-2.4354,-2.4202,-2.4046,-2.3946,-2.3882,-2.3782,-2.3696,-2.3638,-2.3674,-2.3653,-2.3616,-2.3616,-4.606,-4.5991,-4.5937,-4.5906,-4.588,-4.5821,-4.5807,-4.5807,-4.5807,-4.5807,-4.5904,-4.6542,-4.7238,-4.8101,-4.8972,-4.9803,-5.0453,-5.0824,-5.0797,-5.0444,-4.9983,-4.8993,-4.8026,-4.7317,-4.6506,-4.5743,-4.54,-4.5307,-4.5233,-4.5072,-4.4967,-4.4902,-4.4796,-4.4712,-4.4605,-4.451,-4.444,-4.4265,-4.3513,-4.2854,-4.2225,-4.0955,-3.9708,-3.8887,-3.8719,-3.8322,-3.7566,-3.6743,-3.5899,-3.5041,-3.4234,-3.3904,-3.3913,-3.3897,-3.3797,-3.3701,-3.3629,-3.3384,-3.3015,-3.2884,-3.2722,-3.2541,-3.2457,-3.2354,-3.2179,-3.2002,-3.1893,-3.1746,-3.1595,-3.1426,-3.1295,-3.1359,-3.1286,-3.1247,-3.1326,-3.1292,-3.105,-3.0726,-3.0145,-2.9127,-2.835,-2.756,-2.7259,-2.694,-2.6756,-2.6621,-2.6537,-2.652,-2.6485,-2.645,-2.6433,-2.6381,-2.6329,-2.6154,-2.601,-2.5972,-2.5862,-2.5691,-2.5486,-2.5317,-2.5162,-2.5041,-2.4822,-2.458,-2.4354,-2.4193,-2.4109,-2.4024,-2.394,-2.3861,-2.3818,-2.376,-2.376,-2.3739,-2.3674,-4.6085,-4.6055,-4.5972,-4.5937,-4.5899,-4.5867,-4.584,-4.5807,-4.5807,-4.5807,-4.5923,-4.629,-4.718,-4.8217,-4.8798,-4.9687,-5.0647,-5.0898,-5.0909,-5.0758,-5.043,-4.9517,-4.8442,-4.7761,-4.6805,-4.5967,-4.5524,-4.538,-4.5307,-4.5203,-4.5103,-4.4991,-4.4895,-4.4808,-4.4751,-4.4619,-4.4524,-4.4327,-4.3928,-4.3382,-4.2746,-4.1093,-3.9778,-3.9061,-3.8735,-3.8487,-3.8028,-3.6853,-3.6156,-3.5532,-3.4472,-3.394,-3.3753,-3.3712,-3.3633,-3.3495,-3.3422,-3.3319,-3.3122,-3.3028,-3.2868,-3.2705,-3.2574,-3.2439,-3.2301,-3.2161,-3.1983,-3.1818,-3.1671,-3.1502,-3.1406,-3.1725,-3.1888,-3.193,-3.2093,-3.2276,-3.2222,-3.1952,-3.1233,-3.0362,-2.9707,-2.8814,-2.7667,-2.7347,-2.7027,-2.6791,-2.6623,-2.6572,-2.6571,-2.6571,-2.6554,-2.6468,-2.6399,-2.6278,-2.6136,-2.6046,-2.599,-2.5805,-2.5654,-2.5467,-2.5298,-2.5143,-2.5021,-2.4822,-2.4605,-2.4441,-2.4255,-2.4193,-2.4109,-2.4024,-2.3946,-2.3903,-2.3882,-2.3861,-2.376,-4.6114,-4.6095,-4.603,-4.5986,-4.5917,-4.5906,-4.5867,-4.5821,-4.584,-4.5814,-4.5826,-4.6097,-4.7006,-4.8198,-4.8933,-4.9726,-5.0898,-5.0898,-5.0898,-5.0898,-5.0821,-4.9954,-4.874,-4.8099,-4.7372,-4.5888,-4.564,-4.5514,-4.537,-4.5288,-4.5224,-4.5117,-4.5003,-4.4907,-4.4865,-4.4751,-4.4619,-4.4528,-4.444,-4.3909,-4.2731,-4.1327,-3.9978,-3.9128,-3.8839,-3.8701,-3.8481,-3.7125,-3.6395,-3.5771,-3.4816,-3.3807,-3.3807,-3.3807,-3.3726,-3.3545,-3.3462,-3.3393,-3.3292,-3.3152,-3.3028,-3.2868,-3.2737,-3.259,-3.2422,-3.2267,-3.2073,-3.1873,-3.1987,-3.1926,-3.1965,-3.2417,-3.2699,-3.2828,-3.3104,-3.338,-3.316,-3.2835,-3.2395,-3.1661,-3.1038,-2.9937,-2.8634,-2.7653,-2.7298,-2.6826,-2.664,-2.664,-2.6623,-2.6623,-2.6589,-2.652,-2.6434,-2.6365,-2.626,-2.6154,-2.6063,-2.5917,-2.5787,-2.5637,-2.5448,-2.5278,-2.5143,-2.5025,-2.4946,-2.4786,-2.4549,-2.4359,-2.4317,-2.4219,-2.4114,-2.4046,-2.4024,-2.3982,-2.3903,-4.6154,-4.6095,-4.6026,-4.6,-4.5991,-4.5937,-4.5906,-4.5893,-4.5886,-4.5854,-4.5865,-4.6573,-4.7366,-4.8488,-4.99,-5.0577,-5.0859,-5.0898,-5.0898,-5.0898,-5.0859,-5.0008,-4.8589,-4.8327,-4.7314,-4.602,-4.5706,-4.5603,-4.5476,-4.5351,-4.5288,-4.5235,-4.5136,-4.5014,-4.4938,-4.4865,-4.4757,-4.4605,-4.4528,-4.3989,-4.2961,-4.1917,-4.0978,-4.0037,-3.9324,-3.8847,-3.8593,-3.7261,-3.6354,-3.6115,-3.4706,-3.388,-3.3807,-3.3807,-3.3766,-3.3703,-3.3619,-3.3538,-3.3393,-3.3292,-3.3137,-3.2997,-3.2868,-3.2722,-3.2523,-3.2336,-3.2126,-3.1947,-3.2429,-3.2803,-3.2788,-3.3331,-3.3596,-3.3683,-3.3805,-3.3811,-3.3688,-3.366,-3.3215,-3.2669,-3.1958,-3.0685,-2.9347,-2.8398,-2.7553,-2.708,-2.6708,-2.6674,-2.6674,-2.6674,-2.6657,-2.6589,-2.6537,-2.6452,-2.6365,-2.626,-2.6152,-2.6008,-2.5915,-2.5768,-2.5584,-2.5397,-2.5336,-2.524,-2.5162,-2.5045,-2.4791,-2.4609,-2.4528,-2.4405,-2.4297,-2.4213,-2.4166,-2.4103,-2.4046,-4.6232,-4.6138,-4.608,-4.6042,-4.5986,-4.5969,-4.5935,-4.5893,-4.5906,-4.5893,-4.5912,-4.6181,-4.7096,-4.845,-4.9726,-5.0434,-5.0801,-5.0898,-5.0898,-5.0879,-5.0763,-4.9977,-4.8751,-4.828,-4.7434,-4.6167,-4.577,-4.5711,-4.5593,-4.5485,-4.54,-4.5348,-4.5265,-4.5148,-4.5003,-4.4931,-4.4852,-4.4712,-4.4522,-4.3994,-4.3193,-4.2522,-4.1694,-4.0399,-3.9848,-3.9368,-3.8571,-3.7282,-3.643,-3.6048,-3.4715,-3.3844,-3.3807,-3.3807,-3.3775,-3.3766,-3.3684,-3.3573,-3.3448,-3.3367,-3.3247,-3.3122,-3.2979,-3.2787,-3.259,-3.2422,-3.2494,-3.2808,-3.2978,-3.3247,-3.3615,-3.4226,-3.4438,-3.4542,-3.463,-3.4755,-3.4661,-3.427,-3.399,-3.3439,-3.2791,-3.1537,-3.0264,-2.9178,-2.8196,-2.7418,-2.6962,-2.6691,-2.6691,-2.6691,-2.6674,-2.6657,-2.6606,-2.6555,-2.6469,-2.6365,-2.6241,-2.6117,-2.6008,-2.5862,-2.5698,-2.5567,-2.5473,-2.5394,-2.5278,-2.5143,-2.497,-2.4851,-2.4751,-2.4625,-2.4462,-2.4416,-2.4333,-2.4255,-2.4193,-4.627,-4.6213,-4.6154,-4.6084,-4.6022,-4.6022,-4.5966,-4.5916,-4.5679,-4.5589,-4.5641,-4.5801,-4.6806,-4.8295,-4.9339,-5.019,-5.0879,-5.0898,-5.0898,-5.0879,-5.0531,-4.9707,-4.8682,-4.8133,-4.7236,-4.5803,-4.5807,-4.5758,-4.5692,-4.561,-4.5523,-4.5448,-4.5359,-4.5256,-4.5159,-4.5038,-4.4943,-4.4808,-4.4646,-4.4209,-4.3629,-4.3189,-4.2136,-4.1142,-4.0368,-3.9837,-3.8857,-3.7317,-3.6463,-3.6118,-3.4756,-3.3865,-3.3829,-3.3802,-3.3807,-3.378,-3.3726,-3.3657,-3.3549,-3.3452,-3.3352,-3.3232,-3.3075,-3.2836,-3.2705,-3.2558,-3.2546,-3.2985,-3.3561,-3.3816,-3.4274,-3.4973,-3.5431,-3.5587,-3.5706,-3.5934,-3.5933,-3.5318,-3.4708,-3.4159,-3.3454,-3.2523,-3.1283,-3.0042,-2.8975,-2.7942,-2.73,-2.681,-2.6708,-2.6708,-2.6708,-2.6691,-2.6657,-2.6606,-2.6555,-2.6452,-2.6329,-2.624,-2.6117,-2.599,-2.5828,-2.5698,-2.5586,-2.5508,-2.5413,-2.5317,-2.5185,-2.5068,-2.4966,-2.4806,-2.4681,-2.4559,-2.4477,-2.44,-2.4297,-4.6292,-4.6299,-4.6216,-4.6092,-4.6035,-4.6074,-4.6022,-4.57,-4.5131,-4.481,-4.4789,-4.5492,-4.6581,-4.8082,-4.8914,-4.9823,-5.0859,-5.0898,-5.0801,-5.055,-5.0113,-4.9281,-4.8372,-4.754,-4.6825,-4.5967,-4.581,-4.5795,-4.5773,-4.5708,-4.5654,-4.5577,-4.5477,-4.5379,-4.5256,-4.5159,-4.5033,-4.4895,-4.4732,-4.4619,-4.418,-4.3685,-4.2805,-4.1806,-4.0859,-3.996,-3.9073,-3.7442,-3.6491,-3.6436,-3.4837,-3.3913,-3.3881,-3.3829,-3.3834,-3.3807,-3.3753,-3.3698,-3.3629,-3.352,-3.3408,-3.3259,-3.3091,-3.2916,-3.2834,-3.2688,-3.2645,-3.2826,-3.3617,-3.4261,-3.483,-3.5516,-3.6012,-3.6219,-3.6205,-3.6211,-3.6229,-3.6032,-3.5437,-3.4865,-3.4051,-3.3067,-3.2077,-3.0781,-2.9434,-2.8349,-2.7232,-2.6708,-2.6708,-2.6708,-2.6708,-2.6708,-2.6708,-2.6674,-2.6606,-2.652,-2.6434,-2.6346,-2.6224,-2.6117,-2.599,-2.5862,-2.5717,-2.5661,-2.5602,-2.5508,-2.5413,-2.5298,-2.5162,-2.5021,-2.4882,-2.4722,-2.4559,-2.4421,-2.4359,-4.5991,-4.5492,-4.547,-4.542,-4.5379,-4.5356,-4.504,-4.4525,-4.4142,-4.3929,-4.3821,-4.4234,-4.5221,-4.6561,-4.7173,-4.8411,-4.9939,-5.0152,-5.0144,-5.0105,-4.9707,-4.8856,-4.7947,-4.7212,-4.6677,-4.5974,-4.5805,-4.5805,-4.5798,-4.5781,-4.5777,-4.5698,-4.5596,-4.5429,-4.5319,-4.5203,-4.508,-4.4943,-4.4846,-4.4764,-4.4589,-4.4334,-4.3665,-4.2744,-4.1819,-4.0901,-3.9857,-3.7764,-3.6949,-3.6173,-3.4874,-3.4244,-3.3947,-3.3895,-3.3855,-3.3873,-3.3807,-3.3753,-3.3684,-3.3577,-3.3437,-3.3322,-3.3201,-3.3091,-3.2979,-3.2852,-3.3041,-3.3384,-3.3758,-3.4304,-3.5349,-3.5764,-3.6107,-3.6438,-3.6582,-3.6541,-3.644,-3.6297,-3.6126,-3.5538,-3.4555,-3.3489,-3.25,-3.1457,-3.007,-2.874,-2.7605,-2.6708,-2.6725,-2.6708,-2.6708,-2.6708,-2.6708,-2.6708,-2.6657,-2.6606,-2.6555,-2.6451,-2.6329,-2.6224,-2.6117,-2.6008,-2.5883,-2.5828,-2.5789,-2.5696,-2.5602,-2.5489,-2.5336,-2.5143,-2.4966,-2.4806,-2.4645,-2.4477,-2.44,-4.516,-4.4623,-4.4596,-4.4575,-4.4559,-4.4511,-4.4159,-4.3635,-4.327,-4.3092,-4.2966,-4.302,-4.3866,-4.5066,-4.5555,-4.6457,-4.8101,-4.8662,-4.8856,-4.8836,-4.8624,-4.814,-4.7386,-4.6748,-4.631,-4.5884,-4.5807,-4.58,-4.58,-4.5817,-4.5788,-4.5777,-4.5695,-4.554,-4.5409,-4.5235,-4.5095,-4.5014,-4.4974,-4.4883,-4.4776,-4.4668,-4.418,-4.3386,-4.2597,-4.1654,-4.0333,-3.8454,-3.716,-3.6309,-3.5211,-3.4209,-3.4011,-3.3991,-3.3934,-3.3926,-3.39,-3.3834,-3.3739,-3.3591,-3.3466,-3.3396,-3.3325,-3.3216,-3.3106,-3.3028,-3.3114,-3.3392,-3.3717,-3.427,-3.5344,-3.5569,-3.5988,-3.6328,-3.6761,-3.6791,-3.6687,-3.6547,-3.6485,-3.6215,-3.5053,-3.3797,-3.2916,-3.1819,-3.0115,-2.8763,-2.7589,-2.6843,-2.6792,-2.6742,-2.6708,-2.6708,-2.6708,-2.6708,-2.6708,-2.6657,-2.6623,-2.6555,-2.6451,-2.6381,-2.6259,-2.6134,-2.6045,-2.6007,-2.5952,-2.5879,-2.577,-2.564,-2.5454,-2.5243,-2.5068,-2.4886,-2.4742,-2.458,-2.4477,-4.3803,-4.3714,-4.3713,-4.37,-4.3631,-4.3635,-4.3539,-4.3244,-4.2622,-4.2283,-4.2203,-4.2177,-4.2969,-4.4215,-4.4401,-4.5207,-4.6167,-4.6902,-4.7154,-4.7154,-4.7173,-4.7018,-4.6573,-4.6013,-4.5478,-4.5768,-4.5645,-4.5587,-4.5703,-4.5773,-4.5778,-4.5795,-4.5758,-4.5687,-4.5568,-4.5409,-4.5256,-4.5192,-4.5125,-4.5033,-4.4938,-4.4858,-4.4323,-4.3805,-4.3235,-4.2329,-4.0626,-3.8888,-3.7536,-3.641,-3.507,-3.4235,-3.4111,-3.4036,-3.3998,-3.4016,-3.3985,-3.3947,-3.3881,-3.3629,-3.3534,-3.3462,-3.3393,-3.3304,-3.3277,-3.3183,-3.3057,-3.3289,-3.3528,-3.3837,-3.4464,-3.5066,-3.5594,-3.6102,-3.6524,-3.68,-3.6646,-3.6811,-3.6713,-3.6287,-3.5161,-3.404,-3.3222,-3.211,-3.0227,-2.875,-2.7555,-2.7028,-2.6944,-2.6825,-2.6792,-2.6775,-2.6792,-2.6792,-2.6792,-2.6742,-2.6691,-2.6623,-2.6555,-2.6469,-2.6399,-2.6293,-2.6239,-2.6202,-2.6132,-2.6079,-2.5936,-2.5772,-2.5567,-2.5359,-2.5127,-2.4966,-2.4802,-2.4661,-2.458,-4.3358,-4.2846,-4.2843,-4.2504,-4.21,-4.2572,-4.2495,-4.1941,-4.1584,-4.14,-4.1359,-4.13,-4.1854,-4.2685,-4.3105,-4.3692,-4.4852,-4.5142,-4.5452,-4.5432,-4.549,-4.4987,-4.4697,-4.4562,-4.4253,-4.433,-4.4601,-4.5084,-4.4987,-4.549,-4.578,-4.5805,-4.5788,-4.5719,-4.5594,-4.5438,-4.5311,-4.5277,-4.5243,-4.517,-4.5045,-4.4943,-4.4738,-4.431,-4.3755,-4.2622,-4.0954,-3.9233,-3.7735,-3.6415,-3.4943,-3.4313,-3.4209,-3.4136,-3.4074,-3.4061,-3.4036,-3.3998,-3.3947,-3.3815,-3.3698,-3.3619,-3.352,-3.3452,-3.3382,-3.3352,-3.3229,-3.3122,-3.3326,-3.3659,-3.4221,-3.4437,-3.4886,-3.5456,-3.5898,-3.625,-3.6387,-3.6804,-3.6849,-3.6089,-3.5101,-3.3781,-3.2802,-3.2277,-3.0698,-2.9661,-2.863,-2.7554,-2.7214,-2.7043,-2.6925,-2.6925,-2.6908,-2.6908,-2.6892,-2.6859,-2.6792,-2.6708,-2.6657,-2.6589,-2.652,-2.645,-2.6415,-2.6381,-2.6311,-2.6258,-2.6063,-2.5899,-2.5715,-2.5492,-2.5282,-2.5068,-2.4926,-2.4822,-2.4701,-4.2461,-4.199,-4.2281,-4.2083,-4.1609,-4.183,-4.1614,-4.1134,-4.1029,-4.0972,-4.0948,-4.0941,-4.1189,-4.1582,-4.1774,-4.1989,-4.3299,-4.3614,-4.3711,-4.375,-4.4078,-4.3885,-4.3576,-4.3305,-4.3518,-4.3556,-4.4098,-4.4639,-4.4729,-4.5459,-4.5768,-4.5812,-4.581,-4.575,-4.5635,-4.5549,-4.541,-4.537,-4.5319,-4.5267,-4.517,-4.5061,-4.4967,-4.4712,-4.4128,-4.3152,-4.1387,-3.9639,-3.7914,-3.6386,-3.5175,-3.4414,-3.4281,-3.4221,-3.4161,-3.4124,-3.4074,-3.4049,-3.4023,-3.3972,-3.386,-3.378,-3.3684,-3.3605,-3.3524,-3.3495,-3.3408,-3.3301,-3.3256,-3.3466,-3.3836,-3.3982,-3.4442,-3.5024,-3.5401,-3.5776,-3.6203,-3.6591,-3.6463,-3.5718,-3.4851,-3.3564,-3.2528,-3.2004,-3.1203,-3.0491,-2.9782,-2.8715,-2.7637,-2.7331,-2.7109,-2.7007,-2.7007,-2.6991,-2.6975,-2.6958,-2.6892,-2.6808,-2.6758,-2.6742,-2.6708,-2.6657,-2.6623,-2.6555,-2.6468,-2.6363,-2.6187,-2.6025,-2.5844,-2.5659,-2.547,-2.5262,-2.5068,-2.4946,-2.4842,-4.1191,-4.1307,-4.2088,-4.2458,-4.2318,-4.178,-4.1347,-4.1254,-4.1178,-4.1179,-4.1178,-4.1231,-4.1412,-4.1179,-4.1073,-4.1304,-4.164,-4.2202,-4.2422,-4.2589,-4.3285,-4.3247,-4.3343,-4.3305,-4.3305,-4.3595,-4.4098,-4.4601,-4.469,-4.5413,-4.5787,-4.58,-4.5817,-4.5781,-4.5727,-4.5643,-4.554,-4.5457,-4.54,-4.535,-4.5267,-4.5233,-4.5103,-4.4884,-4.4466,-4.3403,-4.1794,-4.0107,-3.8486,-3.6888,-3.5356,-3.4708,-3.437,-3.4293,-3.4276,-3.4216,-3.4136,-3.4111,-3.4099,-3.4049,-3.4023,-3.3947,-3.3815,-3.3753,-3.3684,-3.3661,-3.3577,-3.352,-3.3477,-3.3433,-3.3535,-3.3876,-3.4266,-3.4675,-3.504,-3.546,-3.5895,-3.6006,-3.5829,-3.5208,-3.4375,-3.337,-3.2634,-3.2056,-3.1707,-3.1255,-3.0578,-2.9886,-2.88,-2.767,-2.7414,-2.7072,-2.7056,-2.7024,-2.7041,-2.7073,-2.7024,-2.694,-2.6957,-2.6925,-2.6909,-2.6842,-2.6775,-2.6691,-2.6589,-2.6468,-2.6329,-2.6187,-2.6043,-2.5844,-2.5659,-2.5416,-2.5224,-2.5048,-2.4946,-4.24,-4.2968,-4.3223,-4.332,-4.3297,-4.3055,-4.2957,-4.2944,-4.2891,-4.2851,-4.2836,-4.2844,-4.2615,-4.2753,-4.2692,-4.261,-4.2691,-4.284,-4.2957,-4.3086,-4.3137,-4.3266,-4.3305,-4.3305,-4.3305,-4.3595,-4.4078,-4.4601,-4.4775,-4.5394,-4.5787,-4.58,-4.5812,-4.581,-4.5788,-4.575,-4.5643,-4.5558,-4.5505,-4.5429,-4.535,-4.5307,-4.5173,-4.4962,-4.4398,-4.3242,-4.1631,-3.9802,-3.8105,-3.6423,-3.5177,-3.4491,-3.4461,-3.4351,-3.4269,-3.4228,-3.4173,-3.4173,-3.4154,-3.4148,-3.4136,-3.4124,-3.4023,-3.3934,-3.3887,-3.382,-3.3753,-3.3698,-3.3657,-3.3633,-3.3577,-3.3829,-3.3992,-3.4184,-3.454,-3.4914,-3.5287,-3.5331,-3.5123,-3.4578,-3.3729,-3.3294,-3.2594,-3.2404,-3.2073,-3.176,-3.1324,-3.0699,-2.9885,-2.8714,-2.7806,-2.7479,-2.7308,-2.7344,-2.7238,-2.7235,-2.7153,-2.7104,-2.7105,-2.7072,-2.7007,-2.6942,-2.6909,-2.6826,-2.6708,-2.6623,-2.652,-2.6364,-2.6187,-2.6061,-2.5862,-2.5605,-2.5378,-2.5224,-2.5088,-4.3217,-4.3709,-4.4081,-4.4394,-4.4685,-4.472,-4.4728,-4.4604,-4.398,-4.3626,-4.362,-4.3553,-4.3579,-4.3471,-4.3394,-4.3347,-4.3307,-4.327,-4.3285,-4.3279,-4.3441,-4.3337,-4.3331,-4.3363,-4.3305,-4.3627,-4.4072,-4.4601,-4.4833,-4.5355,-4.5807,-4.5807,-4.5807,-4.5812,-4.581,-4.5788,-4.575,-4.5671,-4.5594,-4.5495,-4.54,-4.5302,-4.5135,-4.466,-4.3958,-4.2807,-4.1249,-3.9441,-3.7856,-3.6414,-3.5364,-3.4558,-3.4506,-3.4404,-3.4358,-3.43,-3.4264,-3.4264,-3.4233,-3.4209,-3.4197,-3.4216,-3.4161,-3.4111,-3.4023,-3.3959,-3.3913,-3.386,-3.3834,-3.3788,-3.3739,-3.3684,-3.3665,-3.3646,-3.3975,-3.4301,-3.4464,-3.4589,-3.4263,-3.3811,-3.3361,-3.2999,-3.2691,-3.2591,-3.2438,-3.2195,-3.1847,-3.1359,-3.0577,-2.9607,-2.8643,-2.7991,-2.7818,-2.7715,-2.7558,-2.7366,-2.725,-2.7201,-2.7218,-2.7186,-2.7122,-2.704,-2.6974,-2.6909,-2.6809,-2.6725,-2.664,-2.6502,-2.6346,-2.6155,-2.5962,-2.5781,-2.5559,-2.5397,-2.5282,-4.3623,-4.3748,-4.4569,-4.5156,-4.5995,-4.5858,-4.5851,-4.5911,-4.4309,-4.3782,-4.388,-4.389,-4.4016,-4.4182,-4.4122,-4.401,-4.4051,-4.4029,-4.4052,-4.3634,-4.395,-4.3957,-4.3886,-4.3576,-4.3962,-4.3982,-4.4253,-4.4929,-4.4968,-4.5413,-4.5807,-4.5807,-4.5807,-4.58,-4.5812,-4.581,-4.5684,-4.5376,-4.5343,-4.5259,-4.5264,-4.5189,-4.4871,-4.4036,-4.3505,-4.2821,-4.119,-3.9654,-3.8191,-3.6996,-3.5797,-3.4739,-3.4547,-3.4461,-3.4427,-3.4381,-3.4328,-3.4323,-3.4311,-3.4269,-3.4233,-3.4221,-3.4209,-3.4185,-3.4136,-3.4074,-3.4023,-3.3972,-3.3947,-3.3921,-3.3855,-3.3834,-3.3793,-3.3726,-3.3876,-3.4097,-3.4226,-3.418,-3.3813,-3.342,-3.3275,-3.2916,-3.2804,-3.2706,-3.2591,-3.2473,-3.2282,-3.1829,-3.1341,-3.0472,-2.9641,-2.8727,-2.8246,-2.8006,-2.773,-2.7523,-2.7366,-2.7299,-2.7299,-2.7283,-2.7235,-2.7137,-2.7037,-2.6974,-2.6892,-2.6809,-2.6708,-2.6589,-2.6367,-2.6046,-2.5873,-2.5866,-2.5684,-2.5299,-2.5341,-4.3095,-4.3725,-4.3925,-4.4141,-4.4316,-4.4335,-4.4351,-4.4305,-4.3938,-4.4363,-4.5367,-4.5482,-4.5441,-4.5258,-4.5258,-4.522,-4.5234,-4.5013,-4.5289,-4.5182,-4.5124,-4.4931,-4.5163,-4.4911,-4.5033,-4.5239,-4.5432,-4.5413,-4.5471,-4.5684,-4.5807,-4.5807,-4.5807,-4.5807,-4.5664,-4.567,-4.5443,-4.4873,-4.4777,-4.4641,-4.4489,-4.4419,-4.4135,-4.3216,-4.2545,-4.2085,-4.0611,-3.9007,-3.8017,-3.7074,-3.5631,-3.4858,-3.4591,-3.4517,-3.4461,-3.4416,-3.4386,-3.4393,-3.4381,-3.434,-3.4316,-3.4281,-3.4269,-3.4245,-3.4228,-3.4173,-3.4136,-3.408,-3.4043,-3.4023,-3.3998,-3.3978,-3.3939,-3.386,-3.3793,-3.3909,-3.4018,-3.3716,-3.3411,-3.3274,-3.315,-3.3042,-3.2948,-3.282,-3.269,-3.259,-3.2506,-3.2281,-3.2091,-3.1481,-3.0733,-2.9797,-2.8711,-2.8315,-2.8005,-2.7609,-2.7401,-2.7315,-2.7299,-2.7299,-2.7315,-2.7217,-2.7103,-2.7038,-2.6974,-2.6892,-2.6792,-2.6674,-2.642,-2.61,-2.5663,-2.5593,-2.5008,-2.4554,-2.4915,-4.3247,-4.3683,-4.3709,-4.3711,-4.3711,-4.3711,-4.3709,-4.3706,-4.3697,-4.4208,-4.5077,-4.5423,-4.5627,-4.5741,-4.5938,-4.6003,-4.5959,-4.5991,-4.5822,-4.5891,-4.5814,-4.5848,-4.5887,-4.5725,-4.5705,-4.5794,-4.5807,-4.5768,-4.5807,-4.5807,-4.5807,-4.5768,-4.5768,-4.5568,-4.5355,-4.52,-4.4845,-4.4025,-4.3972,-4.3709,-4.3497,-4.344,-4.3237,-4.2371,-4.1857,-4.1361,-4.0253,-3.8746,-3.7841,-3.6984,-3.5699,-3.4939,-3.4687,-3.4634,-3.4572,-3.4528,-3.4495,-3.445,-3.4439,-3.4409,-3.4386,-3.4351,-3.434,-3.4316,-3.4269,-3.4233,-3.4197,-3.4173,-3.413,-3.4093,-3.4074,-3.4036,-3.4016,-3.3952,-3.3855,-3.388,-3.3872,-3.3706,-3.3506,-3.3404,-3.3301,-3.3229,-3.3088,-3.2932,-3.282,-3.2755,-3.2657,-3.2523,-3.2387,-3.2266,-3.1585,-3.0854,-2.9728,-2.8728,-2.8247,-2.7782,-2.7366,-2.7315,-2.7315,-2.7315,-2.7299,-2.7233,-2.7168,-2.7104,-2.7039,-2.6957,-2.6876,-2.6792,-2.6624,-2.6353,-2.5799,-2.5263,-2.458,-2.4001,-2.4263,-4.33,-4.3386,-4.3355,-4.3339,-4.3379,-4.3359,-4.33,-4.3299,-4.3335,-4.3287,-4.3464,-4.4197,-4.4572,-4.4989,-4.539,-4.5622,-4.5638,-4.5279,-4.5447,-4.549,-4.5448,-4.5206,-4.5214,-4.5383,-4.5338,-4.5434,-4.5517,-4.5671,-4.5807,-4.5645,-4.549,-4.5633,-4.542,-4.5104,-4.4639,-4.433,-4.3994,-4.3349,-4.2988,-4.2581,-4.2466,-4.2445,-4.22,-4.1846,-4.1431,-4.0968,-3.987,-3.8755,-3.7719,-3.6749,-3.5759,-3.5132,-3.478,-3.4739,-3.4697,-3.4655,-3.4623,-3.4561,-3.4528,-3.4495,-3.4443,-3.4409,-3.4409,-3.4386,-3.434,-3.4305,-3.4269,-3.4245,-3.4221,-3.4166,-3.4117,-3.4099,-3.4061,-3.4023,-3.3947,-3.3868,-3.3788,-3.3712,-3.3615,-3.3534,-3.3448,-3.3378,-3.3244,-3.3057,-3.2963,-3.29,-3.2787,-3.2657,-3.2523,-3.2404,-3.2055,-3.1462,-3.0645,-2.971,-2.8814,-2.8091,-2.7624,-2.7315,-2.7315,-2.7315,-2.7299,-2.7266,-2.7217,-2.7168,-2.7104,-2.7039,-2.6991,-2.6926,-2.6758,-2.6506,-2.5933,-2.5245,-2.4377,-2.3864,-2.3684,-4.1581,-4.1608,-4.1597,-4.1619,-4.1659,-4.1699,-4.164,-4.1619,-4.1658,-4.1613,-4.1932,-4.2527,-4.317,-4.3851,-4.3953,-4.4184,-4.4463,-4.4296,-4.4069,-4.3957,-4.4291,-4.409,-4.4081,-4.44,-4.4395,-4.4583,-4.4885,-4.52,-4.5181,-4.4968,-4.4833,-4.4813,-4.4059,-4.3808,-4.3672,-4.3421,-4.315,-4.2525,-4.2157,-4.1847,-4.1498,-4.1461,-4.1439,-4.1096,-4.0702,-4.0115,-3.927,-3.8282,-3.7427,-3.6536,-3.5647,-3.5078,-3.4879,-3.483,-3.479,-3.4759,-3.4728,-3.4687,-3.4636,-3.4615,-3.4583,-3.4517,-3.4506,-3.4465,-3.4439,-3.4404,-3.437,-3.4311,-3.4269,-3.4221,-3.4185,-3.4173,-3.4155,-3.4074,-3.4011,-3.3947,-3.3881,-3.3802,-3.3721,-3.3657,-3.3591,-3.3509,-3.3396,-3.3244,-3.3135,-3.3057,-3.2898,-3.2753,-3.264,-3.254,-3.2456,-3.1967,-3.1392,-3.0558,-2.9624,-2.8624,-2.8055,-2.7659,-2.733,-2.7345,-2.7345,-2.7315,-2.7266,-2.7233,-2.7168,-2.7104,-2.7055,-2.7007,-2.667,-2.6385,-2.5929,-2.5289,-2.4385,-2.3653,-2.341]},{"header":{"parameterUnit":"m.s-1","parameterCategory":1,"la1":31.0,"la2":29.5877,"lo1":-88.7671,"lo2":-86.6584,"dy":0.0162,"dx":0.0185,"nx":115,"ny":88,"refTime":"2023-06-28T00:00:00:Z","depth":0,"parameterNumber":3,"parameterNumberName":"V-component_of_WINDS"},"data":[0.0,0.0,0.0,0.0,0.0,0.0,0.0,0.0,0.0,0.0,0.0,0.0,0.0,0.0,0.0,0.0,0.0,0.0,0.0,0.0,0.0,0.0,0.0,0.0,0.0,0.0,0.0,0.0,0.0,0.0,0.0,0.0,0.0,0.0,0.0,0.0,0.0,0.0,0.0,0.0,0.0,0.0,0.0,0.0,0.0,0.0,0.0,0.0,0.0,0.0,0.0,0.0,0.0,0.0,0.0,0.0,0.0,0.0,0.0,0.0,0.0,0.0,0.0,0.0,0.0,0.0,0.0,0.0,0.0,0.0,0.0,0.0,0.0,0.0,0.0,0.0,0.0,0.0,0.0,0.0,0.0,0.0,0.0,0.0,0.0,0.0,0.0,0.0,0.0,0.0,0.0,0.0,0.0,0.0,0.0,0.0,0.0,0.0,0.0,0.0,0.0,0.0,0.0,0.0,0.0,0.0,0.0,0.0,0.0,0.0,0.0,0.0,0.0,0.0,0.0,0.0,0.0,0.0,0.0,0.0,0.0,0.0,0.0,0.0,0.0,0.0,0.0,0.0,0.0,0.0,0.0,0.0,0.0,0.0,0.0,0.0,0.0,0.0,0.0,0.0,0.0,0.0,0.0,0.0,0.0,0.0,0.0,0.0,0.0,0.0,0.0,0.0,0.0,0.0,0.0,0.0,0.0,0.0,0.0,0.0,0.0,0.0,0.0,0.0,0.0,0.0,0.0,0.0,0.0,0.0,0.0,0.0,0.0,0.0,0.0,0.0,0.0,0.0,0.0,0.0,0.0,0.0,0.0,0.0,0.0,0.0,0.0,0.0,0.0,0.0,0.0,0.0,0.0,0.0,0.0,0.0,0.0,0.0,0.0,0.0,0.0,0.0,0.0,0.0,0.0,0.0,0.0,0.0,0.0,0.0,0.0,0.0,0.0,0.0,0.0,0.0,0.0,0.0,0.0,0.0,0.0,0.0,0.0,0.0,0.0,0.0,0.0,0.0,0.0,0.0,0.0,0.0,0.0,0.0,0.0,0.0,0.0,0.0,0.0,0.0,0.0,0.0,0.0,0.0,0.0,0.0,0.0,0.0,0.0,0.0,0.0,0.0,0.0,0.0,0.0,0.0,0.0,0.0,0.0,0.0,0.0,0.0,0.0,0.0,0.0,0.0,0.0,0.0,0.0,0.0,0.0,0.0,0.0,0.0,0.0,0.0,0.0,0.0,0.0,0.0,0.0,0.0,0.0,0.0,0.0,0.0,0.0,0.0,0.0,0.0,0.0,0.0,0.0,0.0,0.0,0.0,0.0,0.0,0.0,0.0,0.0,0.0,0.0,0.0,0.0,0.0,0.0,0.0,0.0,0.0,0.0,0.0,0.0,0.0,0.0,0.0,0.0,0.0,0.0,0.0,0.0,0.0,0.0,0.0,0.0,0.0,0.0,0.0,0.0,0.0,0.0,0.0,0.0,0.0,0.0,0.0,0.0,0.0,0.0,0.0,0.0,0.0,0.0,0.0,0.0,0.0,0.0,0.0,0.0,0.0,0.0,0.0,0.0,0.0,0.0,0.0,0.0,0.0,0.0,0.0,0.0,0.0,0.0,0.0,0.0,0.0,0.0,0.0,0.0,0.0,0.0,0.0,0.0,0.0,0.0,0.0,0.0,0.0,0.0,0.0,0.0,0.0,0.0,0.0,0.0,0.0,0.0,0.0,0.0,0.0,0.0,0.0,0.0,0.0,0.0,0.0,0.0,0.0,0.0,0.0,0.0,0.0,0.0,0.0,0.0,0.0,0.0,0.0,0.0,0.0,0.0,0.0,0.0,0.0,0.0,0.0,0.0,0.0,0.0,0.0,0.0,0.0,0.0,0.0,0.0,0.0,0.0,0.0,0.0,0.0,0.0,0.0,0.0,0.0,0.0,0.0,0.0,0.0,0.0,0.0,0.0,0.0,0.0,0.0,0.0,0.0,0.0,0.0,0.0,0.0,0.0,0.0,0.0,0.0,0.0,0.0,0.0,0.0,0.0,0.0,0.0,0.0,0.0,0.0,0.0,0.0,0.0,0.0,0.0,0.0,0.0,0.0,0.0,0.0,0.0,0.0,0.0,0.0,0.0,0.0,0.0,0.0,0.0,0.0,0.0,0.0,0.0,0.0,0.0,0.0,0.0,0.0,0.0,0.0,0.0,0.0,0.0,0.0,0.0,0.0,0.0,0.0,0.0,0.0,0.0,0.0,0.0,0.0,0.0,0.0,0.0,0.0,0.0,0.0,0.0,0.0,0.0,0.0,0.0,0.0,0.0,0.0,0.0,0.0,0.0,0.0,0.0,0.0,0.0,0.0,0.0,0.0,0.0,0.0,0.0,0.0,0.0,0.0,0.0,0.0,0.0,0.0,0.0,0.0,0.0,0.0,0.0,0.0,0.0,0.0,0.0,0.0,0.0,0.0,0.0,0.0,0.0,0.0,0.0,0.0,0.0,0.0,0.0,0.0,0.0,0.0,0.0,0.0,0.0,0.0,0.0,0.0,0.0,0.0,0.0,0.0,0.0,0.0,0.0,0.0,0.0,0.0,0.0,0.0,0.0,0.0,0.0,0.0,0.0,0.0,0.0,0.0,0.0,0.0,0.0,0.0,0.0,0.0,0.0,0.0,0.0,0.0,0.0,0.0,0.0,0.0,0.0,0.0,0.0,0.0,0.0,0.0,0.0,0.0,0.0,0.0,0.0,0.0,0.0,0.0,0.0,0.0,0.0,0.0,0.0,0.0,0.0,0.0,0.0,0.0,0.0,0.0,0.0,0.0,0.0,0.0,0.0,0.0,0.0,0.0,0.0,0.0,0.0,0.0,0.0,0.0,0.0,0.0,0.0,0.0,0.0,0.0,0.0,0.0,0.0,0.0,0.0,0.0,0.0,0.0,0.0,0.0,0.0,0.0,0.0,0.0,0.0,0.0,0.0,0.0,0.0,0.0,0.0,0.0,0.0,0.0,0.0,0.0,0.0,0.0,0.0,0.0,0.0,0.0,0.0,0.0,0.0,0.0,0.0,0.0,0.0,0.0,0.0,0.0,0.0,0.0,0.0,0.0,0.0,0.0,0.0,0.0,0.0,0.0,0.0,0.0,0.0,0.0,0.0,0.0,0.0,0.0,0.0,0.0,0.0,0.0,0.0,0.0,0.0,0.0,0.0,0.0,0.0,0.0,0.0,0.0,0.0,0.0,0.0,0.0,0.0,0.0,0.0,0.0,0.0,0.0,0.0,0.0,0.0,0.0,0.0,0.0,0.0,0.0,0.0,0.0,0.0,0.0,0.0,0.0,0.0,0.0,0.0,0.0,0.0,0.0,0.0,0.0,0.0,0.0,0.0,0.0,0.0,0.0,0.0,0.0,0.0,0.0,0.0,0.0,0.0,0.0,0.0,0.0,0.0,0.0,0.0,0.0,0.0,0.0,0.0,0.0,0.0,0.0,0.0,0.0,0.0,0.0,0.0,0.0,0.0,0.0,0.0,0.0,0.0,0.0,0.0,0.0,0.0,0.0,0.0,0.0,0.0,0.0,0.0,0.0,0.0,0.0,0.0,0.0,0.0,0.0,0.0,0.0,0.0,0.0,0.0,0.0,0.0,0.0,0.0,0.0,0.0,0.0,0.0,0.0,0.0,0.0,0.0,0.0,0.0,0.0,0.0,0.0,0.0,0.0,0.0,0.0,0.0,0.0,0.0,0.0,0.0,0.0,0.0,0.0,0.0,0.0,0.0,0.0,0.0,0.0,0.0,0.0,0.0,0.0,0.0,0.0,0.0,0.0,0.0,0.0,0.0,0.0,0.0,0.0,0.0,0.0,0.0,0.0,0.0,0.0,0.0,0.0,0.0,0.0,0.0,0.0,0.0,0.0,0.0,0.0,0.0,0.0,0.0,0.0,0.0,0.0,0.0,0.0,0.0,0.0,0.0,0.0,0.0,0.0,0.0,0.0,0.0,0.0,0.0,0.0,0.0,0.0,0.0,0.0,0.0,0.0,0.0,0.0,0.0,0.0,0.0,0.0,0.0,0.0,0.0,0.0,0.0,0.0,0.0,0.0,0.0,0.0,0.0,0.0,0.0,0.0,0.0,0.0,0.0,0.0,0.0,0.0,0.0,0.0,0.0,0.0,0.0,0.0,0.0,0.0,0.0,0.0,0.0,0.0,0.0,0.0,0.0,0.0,0.0,0.0,0.0,0.0,0.0,0.0,0.0,0.0,0.0,0.0,0.0,0.0,0.0,0.0,0.0,0.0,-0.7522,0.0,0.0,0.0,0.0,0.0,0.0,0.0,0.0,0.0,0.0,0.0,0.0,0.0,0.0,0.0,0.0,0.0,0.0,0.0,0.0,0.0,0.0,0.0,0.0,0.0,0.0,0.0,0.0,0.0,0.0,0.0,0.0,0.0,0.0,0.0,0.0,0.0,0.0,0.0,0.0,0.0,0.0,0.0,0.0,0.0,0.0,0.0,0.0,0.0,0.0,0.0,0.0,0.0,0.0,0.0,0.0,0.0,0.0,0.0,0.0,0.0,0.0,0.0,0.0,0.0,0.0,0.0,0.0,0.0,0.0,0.0,0.0,0.0,0.0,0.0,0.0,0.0,0.0,0.0,0.0,0.0,0.0,0.0,0.0,0.0,0.0,0.0,0.0,0.0,0.0,0.0,0.0,0.0,0.0,0.0,0.0,0.0,0.0,0.0,0.0,0.0,0.0,0.0,0.0,0.0,0.0,0.0,0.0,0.0,0.0,-0.6848,-0.7074,-0.7133,-0.7426,-0.7972,0.0,0.0,0.0,0.0,0.0,0.0,0.0,0.0,0.0,0.0,0.0,0.0,0.0,0.0,0.0,0.0,0.0,0.0,0.0,0.0,0.0,0.0,0.0,0.0,0.0,0.0,0.0,0.0,0.0,0.0,0.0,0.0,0.0,0.0,0.0,0.0,0.0,0.0,0.0,0.0,0.0,0.0,0.0,0.0,0.0,0.0,0.0,0.0,0.0,0.0,0.0,0.0,0.0,0.0,0.0,0.0,0.0,0.0,0.0,0.0,0.0,0.0,0.0,0.0,0.0,0.0,0.0,0.0,0.0,0.0,0.0,0.0,0.0,0.0,0.0,0.0,0.0,0.0,0.0,0.0,0.0,0.0,0.0,0.0,0.0,0.0,0.0,0.0,0.0,0.0,0.0,0.0,0.0,0.0,0.0,0.0,0.0,0.0,0.0,0.0,0.0,0.0,0.0,0.0,0.0,0.0,0.0,0.0,0.0,0.0,0.0,0.0,-0.7216,-0.7617,-0.8497,0.0,0.0,0.0,0.0,0.0,0.0,0.0,0.0,0.0,0.0,0.0,0.0,0.0,0.0,0.0,0.0,0.0,0.0,0.0,0.0,0.0,0.0,0.0,0.0,0.0,0.0,0.0,0.0,0.0,0.0,0.0,0.0,0.0,0.0,0.0,0.0,0.0,0.0,0.0,0.0,0.0,0.0,0.0,0.0,0.0,0.0,0.0,0.0,0.0,0.0,0.0,0.0,0.0,0.0,0.0,0.0,0.0,0.0,0.0,0.0,0.0,0.0,0.0,0.0,0.0,0.0,0.0,0.0,0.0,0.0,0.0,0.0,0.0,0.0,0.0,0.0,0.0,0.0,0.0,0.0,0.0,0.0,0.0,0.0,0.0,0.0,0.0,0.0,0.0,0.0,0.0,0.0,0.0,0.0,0.0,0.0,0.0,0.0,0.0,0.0,0.0,0.0,0.0,0.0,0.0,0.0,0.0,0.0,0.0,0.0,-0.7702,-0.7736,-0.7891,0.0,-0.8885,0.0,0.0,0.0,0.0,0.0,0.0,0.0,0.0,0.0,0.0,0.0,0.0,0.0,0.0,0.0,0.0,0.0,0.0,0.0,0.0,0.0,0.0,0.0,0.0,0.0,0.0,0.0,0.0,0.0,0.0,0.0,0.0,0.0,0.0,0.0,0.0,0.0,0.0,0.0,0.0,0.0,0.0,0.0,0.0,0.0,0.0,0.0,0.0,0.0,0.0,0.0,0.0,0.0,0.0,0.0,0.0,0.0,0.0,0.0,0.0,0.0,0.0,0.0,0.0,0.0,0.0,0.0,0.0,0.0,0.0,0.0,0.0,0.0,0.0,0.0,0.0,0.0,0.0,0.0,0.0,0.0,0.0,0.0,0.0,0.0,0.0,0.0,0.0,0.0,0.0,0.0,0.0,0.0,0.0,0.0,0.0,0.0,0.0,0.0,0.0,0.0,0.0,0.0,0.0,0.0,0.0,0.0,0.0,0.0,0.0,-0.7668,-0.7818,-0.8333,-0.8772,0.0,0.0,0.0,0.0,0.0,0.0,0.0,0.0,0.0,0.0,0.0,0.0,0.0,0.0,0.0,0.0,0.0,0.0,0.0,0.0,0.0,0.0,0.0,0.0,0.0,0.0,0.0,0.0,0.0,0.0,0.0,0.0,0.0,0.0,0.0,0.0,0.0,0.0,0.0,0.0,0.0,0.0,0.0,0.0,0.0,0.0,0.0,0.0,0.0,0.0,0.0,0.0,0.0,0.0,0.0,0.0,0.0,0.0,0.0,0.0,0.0,0.0,0.0,0.0,0.0,0.0,0.0,0.0,0.0,0.0,0.0,0.0,0.0,0.0,0.0,0.0,0.0,0.0,0.0,0.0,0.0,0.0,0.0,0.0,0.0,0.0,0.0,0.0,0.0,0.0,0.0,0.0,0.0,0.0,0.0,0.0,0.0,0.0,0.0,0.0,0.0,0.0,0.0,0.0,0.0,0.0,0.0,0.0,0.0,0.0,-0.7622,-0.7786,-0.8065,-0.8685,-0.9052,-0.9217,0.0,0.0,0.0,0.0,0.0,0.0,0.0,0.0,0.0,0.0,0.0,0.0,0.0,0.0,0.0,0.0,0.0,0.0,0.0,0.0,0.0,0.0,0.0,0.0,0.0,0.0,0.0,0.0,0.0,0.0,0.0,0.0,0.0,0.0,0.0,0.0,0.0,0.0,0.0,0.0,0.0,0.0,0.0,0.0,0.0,0.0,0.0,0.0,0.0,0.0,0.0,0.0,0.0,0.0,0.0,0.0,0.0,0.0,0.0,0.0,0.0,0.0,0.0,0.0,0.0,0.0,0.0,0.0,0.0,0.0,0.0,0.0,0.0,0.0,0.0,0.0,0.0,0.0,0.0,0.0,0.0,0.0,0.0,0.0,0.0,0.0,0.0,0.0,0.0,0.0,0.0,0.0,0.0,0.0,0.0,0.0,0.0,0.0,0.0,0.0,0.0,0.0,0.0,0.0,0.0,0.0,0.0,0.0,-0.7518,-0.7859,-0.8261,-0.8626,-0.8873,-0.9093,0.0,0.0,0.0,0.0,0.0,0.0,0.0,0.0,0.0,0.0,0.0,0.0,0.0,0.0,0.0,0.0,0.0,0.0,0.0,0.0,0.0,0.0,0.0,0.0,0.0,0.0,0.0,0.0,0.0,0.0,0.0,0.0,0.0,0.0,0.0,0.0,0.0,0.0,0.0,0.0,0.0,0.0,0.0,0.0,0.0,0.0,0.0,0.0,0.0,0.0,0.0,0.0,0.0,0.0,0.0,0.0,0.0,0.0,0.0,0.0,0.0,0.0,0.0,0.0,0.0,0.0,0.0,0.0,0.0,0.0,0.0,0.0,0.0,0.0,0.0,0.0,0.0,0.0,0.0,0.0,0.0,0.0,0.0,0.0,0.0,0.0,0.0,0.0,0.0,0.0,0.0,0.0,0.0,0.0,0.0,0.0,0.0,0.0,0.0,0.0,0.0,0.0,0.0,0.0,0.0,0.0,0.0,0.0,0.0,-0.7518,-0.7906,-0.8414,-0.9055,-0.9163,-0.9348,0.0,0.0,0.0,0.0,0.0,0.0,0.0,0.0,0.0,0.0,0.0,0.0,0.0,0.0,0.0,0.0,0.0,0.0,0.0,0.0,0.0,0.0,0.0,0.0,0.0,0.0,0.0,0.0,0.0,0.0,0.0,0.0,0.0,0.0,0.0,0.0,0.0,0.0,0.0,0.0,0.0,0.0,0.0,0.0,0.0,0.0,0.0,0.0,0.0,0.0,0.0,0.0,0.0,0.0,0.0,0.0,0.0,0.0,0.0,0.0,0.0,0.0,0.0,0.0,0.0,0.0,0.0,0.0,0.0,0.0,0.0,0.0,0.0,0.0,0.0,0.0,0.0,0.0,0.0,0.0,0.0,0.0,0.0,0.0,0.0,0.0,0.0,0.0,0.0,0.0,0.0,0.0,0.0,0.0,0.0,0.0,0.0,0.0,0.0,0.0,0.0,0.0,0.0,0.0,0.0,0.0,0.0,0.0,0.0,-0.789,0.0,-0.8682,0.0,-0.943,-0.9663,0.0,0.0,0.0,0.0,0.0,0.0,0.0,0.0,0.0,0.0,0.0,0.0,0.0,0.0,0.0,0.0,0.0,0.0,0.0,0.0,0.0,0.0,0.0,0.0,0.0,0.0,0.0,0.0,0.0,0.0,0.0,0.0,0.0,0.0,0.0,0.0,0.0,0.0,0.0,0.0,0.0,0.0,0.0,0.0,0.0,0.0,0.0,0.0,0.0,0.0,0.0,0.0,0.0,0.0,0.0,0.0,0.0,0.0,0.0,0.0,0.0,0.0,0.0,0.0,0.0,0.0,0.0,0.0,0.0,0.0,0.0,0.0,0.0,0.0,0.0,0.0,0.0,0.0,0.0,0.0,0.0,0.0,0.0,0.0,0.0,0.0,0.0,0.0,0.0,0.0,0.0,0.0,0.0,0.0,0.0,0.0,0.0,0.0,0.0,0.0,0.0,0.0,0.0,0.0,0.0,0.0,0.0,0.0,-0.8099,-0.8673,-0.8686,-0.9096,-0.9958,-0.9737,-0.9898,0.0,0.0,0.0,0.0,0.0,0.0,0.0,0.0,0.0,0.0,0.0,0.0,0.0,0.0,0.0,0.0,0.0,0.0,0.0,0.0,0.0,0.0,0.0,0.0,0.0,0.0,0.0,0.0,0.0,0.0,0.0,0.0,0.0,0.0,0.0,0.0,0.0,0.0,0.0,0.0,0.0,0.0,0.0,0.0,0.0,0.0,0.0,0.0,0.0,0.0,0.0,0.0,0.0,0.0,0.0,0.0,0.0,0.0,0.0,0.0,0.0,0.0,0.0,0.0,0.0,0.0,0.0,0.0,0.0,0.0,0.0,0.0,0.0,0.0,0.0,0.0,0.0,0.0,0.0,0.0,0.0,0.0,0.0,0.0,0.0,0.0,0.0,0.0,0.0,0.0,0.0,0.0,0.0,0.0,0.0,0.0,0.0,0.0,0.0,0.0,0.0,0.0,0.0,0.0,0.0,0.0,0.0,0.0,0.0,-0.8632,-0.8926,-0.9377,-0.9923,-1.0013,-1.0289,0.0,0.0,0.0,0.0,0.0,0.0,0.0,0.0,0.0,0.0,0.0,0.0,0.0,0.0,0.0,0.0,0.0,0.0,0.0,0.0,0.0,0.0,0.0,0.0,0.0,0.0,0.0,0.0,0.0,0.0,0.0,0.0,0.0,0.0,0.0,0.0,0.0,0.0,0.0,0.0,0.0,0.0,0.0,0.0,0.0,0.0,0.0,0.0,0.0,0.0,0.0,0.0,0.0,0.0,0.0,0.0,0.0,0.0,0.0,0.0,0.0,0.0,0.0,0.0,0.0,0.0,0.0,0.0,0.0,0.0,0.0,0.0,0.0,0.0,0.0,0.0,0.0,0.0,0.0,0.0,0.0,0.0,0.0,0.0,0.0,0.0,0.0,0.0,0.0,0.0,0.0,0.0,0.0,0.0,0.0,0.0,0.0,0.0,0.0,0.0,0.0,0.0,0.0,0.0,0.0,0.0,0.0,0.0,0.0,-0.9051,-0.9386,-0.9818,-1.0267,-1.0385,-1.0631,-1.1098,0.0,0.0,0.0,0.0,0.0,0.0,0.0,0.0,0.0,0.0,0.0,0.0,0.0,0.0,0.0,0.0,0.0,0.0,0.0,0.0,0.0,0.0,0.0,0.0,0.0,0.0,0.0,0.0,0.0,0.0,0.0,0.0,0.0,0.0,0.0,0.0,0.0,0.0,0.0,0.0,0.0,0.0,0.0,0.0,0.0,0.0,0.0,0.0,0.0,0.0,0.0,0.0,0.0,0.0,0.0,0.0,0.0,0.0,0.0,0.0,0.0,0.0,0.0,0.0,0.0,0.0,0.0,0.0,0.0,0.0,0.0,0.0,0.0,0.0,0.0,0.0,0.0,0.0,0.0,0.0,0.0,0.0,0.0,0.0,0.0,0.0,0.0,0.0,0.0,0.0,0.0,0.0,0.0,0.0,0.0,0.0,0.0,0.0,0.0,0.0,0.0,0.0,0.0,0.0,0.0,0.0,0.0,0.0,-0.9857,-1.0062,-1.0398,-1.0881,-1.0761,-1.0963,0.0,0.0,0.0,0.0,0.0,0.0,0.0,0.0,0.0,0.0,0.0,0.0,0.0,0.0,0.0,0.0,0.0,0.0,0.0,0.0,0.0,0.0,0.0,0.0,0.0,0.0,0.0,0.0,0.0,0.0,0.0,0.0,0.0,0.0,0.0,0.0,0.0,0.0,0.0,0.0,0.0,0.0,0.0,0.0,0.0,0.0,0.0,0.0,0.0,0.0,0.0,0.0,0.0,0.0,0.0,0.0,0.0,0.0,0.0,0.0,0.0,0.0,0.0,0.0,0.0,0.0,0.0,0.0,0.0,0.0,0.0,0.0,0.0,0.0,0.0,0.0,0.0,0.0,0.0,0.0,0.0,0.0,0.0,0.0,0.0,0.0,0.0,0.0,0.0,0.0,0.0,0.0,0.0,0.0,0.0,0.0,0.0,0.0,0.0,0.0,0.0,0.0,0.0,0.0,0.0,0.0,0.0,0.0,0.0,-1.0744,-1.1006,-1.1103,-1.1129,-1.1254,-1.1506,0.0,0.0,0.0,0.0,0.0,0.0,0.0,0.0,0.0,0.0,0.0,0.0,0.0,0.0,0.0,0.0,0.0,0.0,0.0,0.0,0.0,0.0,0.0,0.0,0.0,0.0,0.0,0.0,0.0,0.0,0.0,0.0,0.0,0.0,0.0,0.0,0.0,0.0,0.0,0.0,0.0,0.0,0.0,0.0,0.0,0.0,0.0,0.0,0.0,0.0,0.0,0.0,0.0,0.0,0.0,0.0,0.0,0.0,0.0,0.0,0.0,0.0,0.0,0.0,0.0,0.0,0.0,0.0,0.0,0.0,0.0,0.0,0.0,0.0,0.0,0.0,0.0,0.0,0.0,0.0,0.0,0.0,0.0,0.0,0.0,0.0,0.0,0.0,0.0,0.0,0.0,0.0,0.0,0.0,0.0,0.0,0.0,0.0,0.0,0.0,0.0,0.0,0.0,0.0,0.0,0.0,0.0,0.0,-1.0712,-1.1111,-1.1716,-1.1959,-1.1883,-1.1912,-1.2045,0.0,0.0,0.0,0.0,0.0,0.0,0.0,0.0,0.0,0.0,0.0,0.0,0.0,0.0,0.0,0.0,0.0,0.0,0.0,0.0,0.0,0.0,0.0,0.0,0.0,0.0,0.0,0.0,0.0,0.0,0.0,0.0,0.0,0.0,0.0,0.0,0.0,0.0,0.0,0.0,0.0,0.0,0.0,0.0,0.0,0.0,0.0,0.0,0.0,0.0,0.0,0.0,0.0,0.0,0.0,0.0,0.0,0.0,0.0,0.0,0.0,0.0,0.0,0.0,0.0,0.0,0.0,0.0,0.0,0.0,0.0,0.0,0.0,0.0,0.0,0.0,0.0,0.0,0.0,0.0,0.0,0.0,0.0,0.0,0.0,0.0,0.0,0.0,0.0,0.0,0.0,0.0,0.0,0.0,0.0,0.0,0.0,0.0,0.0,0.0,0.0,0.0,0.0,0.0,0.0,0.0,0.0,0.0,-1.1307,-1.1258,-1.2184,-1.2766,-1.291,-1.265,-1.2598,0.0,0.0,0.0,0.0,0.0,0.0,0.0,0.0,0.0,0.0,0.0,0.0,0.0,0.0,0.0,0.0,0.0,0.0,0.0,0.0,0.0,0.0,0.0,0.0,0.0,0.0,0.0,0.0,0.0,0.0,0.0,0.0,0.0,0.0,0.0,0.0,0.0,0.0,0.0,0.0,0.0,0.0,0.0,0.0,0.0,0.0,0.0,0.0,0.0,0.0,0.0,0.0,0.0,0.0,0.0,0.0,0.0,0.0,0.0,0.0,0.0,0.0,0.0,0.0,0.0,0.0,0.0,0.0,0.0,0.0,0.0,0.0,0.0,0.0,0.0,0.0,0.0,0.0,0.0,0.0,0.0,0.0,0.0,0.0,0.0,0.0,0.0,0.0,0.0,0.0,0.0,0.0,0.0,0.0,0.0,0.0,0.0,0.0,0.0,0.0,0.0,0.0,0.0,0.0,0.0,0.0,0.0,0.0,-1.1786,-1.2289,-1.2631,-1.3051,-1.3667,-1.3417,-1.3278,0.0,0.0,0.0,0.0,0.0,0.0,0.0,0.0,0.0,0.0,0.0,0.0,0.0,0.0,0.0,0.0,0.0,0.0,0.0,0.0,0.0,0.0,0.0,0.0,0.0,0.0,0.0,0.0,0.0,0.0,0.0,0.0,0.0,0.0,0.0,0.0,0.0,0.0,0.0,0.0,0.0,0.0,0.0,0.0,0.0,0.0,0.0,0.0,-1.413,0.0,0.0,0.0,0.0,0.0,0.0,0.0,0.0,0.0,0.0,0.0,0.0,0.0,0.0,0.0,0.0,0.0,0.0,0.0,0.0,0.0,0.0,0.0,0.0,0.0,0.0,0.0,0.0,0.0,0.0,0.0,0.0,0.0,0.0,0.0,0.0,0.0,0.0,0.0,0.0,0.0,0.0,0.0,0.0,0.0,0.0,0.0,0.0,0.0,0.0,0.0,0.0,0.0,0.0,0.0,0.0,0.0,0.0,0.0,-1.2579,-1.2788,-1.3281,-1.3702,-1.4058,-1.4196,-1.4139,0.0,0.0,0.0,0.0,0.0,0.0,0.0,0.0,0.0,0.0,0.0,0.0,0.0,0.0,0.0,0.0,0.0,0.0,0.0,0.0,0.0,0.0,0.0,0.0,0.0,0.0,0.0,0.0,0.0,0.0,0.0,0.0,0.0,0.0,0.0,0.0,0.0,0.0,0.0,0.0,0.0,0.0,0.0,0.0,0.0,0.0,0.0,0.0,0.0,0.0,0.0,0.0,0.0,0.0,0.0,0.0,0.0,0.0,0.0,0.0,0.0,0.0,0.0,0.0,0.0,0.0,0.0,0.0,0.0,0.0,0.0,0.0,0.0,0.0,0.0,0.0,0.0,0.0,0.0,0.0,0.0,0.0,0.0,0.0,0.0,0.0,0.0,0.0,0.0,0.0,0.0,0.0,0.0,0.0,0.0,0.0,0.0,0.0,0.0,0.0,0.0,0.0,0.0,0.0,0.0,0.0,0.0,-1.3013,-1.3397,-1.3193,-1.3853,-1.4289,-1.4454,-1.4885,-1.495,-1.4687,0.0,0.0,0.0,0.0,0.0,0.0,0.0,0.0,0.0,0.0,0.0,0.0,0.0,0.0,0.0,0.0,0.0,0.0,0.0,0.0,0.0,0.0,0.0,0.0,0.0,0.0,0.0,0.0,0.0,0.0,0.0,0.0,0.0,0.0,0.0,0.0,0.0,0.0,-1.4324,-1.425,0.0,0.0,0.0,0.0,0.0,0.0,0.0,0.0,-1.5794,0.0,0.0,0.0,0.0,0.0,0.0,0.0,0.0,0.0,0.0,0.0,0.0,0.0,0.0,0.0,0.0,0.0,0.0,0.0,0.0,0.0,0.0,0.0,0.0,0.0,0.0,0.0,0.0,0.0,0.0,0.0,0.0,0.0,0.0,0.0,0.0,0.0,0.0,0.0,0.0,0.0,0.0,0.0,0.0,0.0,0.0,0.0,0.0,0.0,0.0,0.0,0.0,0.0,0.0,0.0,0.0,-1.2659,-1.3197,-1.3596,-1.3748,-1.3893,-1.431,-1.4939,-1.5035,-1.5184,-1.5404,0.0,0.0,0.0,0.0,0.0,0.0,0.0,0.0,0.0,0.0,0.0,0.0,0.0,0.0,0.0,0.0,0.0,0.0,0.0,0.0,0.0,0.0,0.0,0.0,0.0,0.0,0.0,0.0,0.0,0.0,0.0,0.0,0.0,0.0,0.0,0.0,0.0,0.0,0.0,-1.4771,-1.4841,0.0,0.0,0.0,0.0,0.0,0.0,0.0,0.0,-1.677,0.0,0.0,0.0,0.0,0.0,0.0,0.0,0.0,0.0,0.0,0.0,0.0,0.0,0.0,0.0,0.0,0.0,0.0,0.0,0.0,0.0,0.0,0.0,0.0,0.0,0.0,0.0,0.0,0.0,0.0,0.0,0.0,0.0,0.0,0.0,0.0,0.0,0.0,0.0,0.0,0.0,0.0,0.0,0.0,0.0,0.0,0.0,0.0,0.0,0.0,0.0,0.0,0.0,0.0,0.0,-1.315,-1.3526,-1.3832,-1.4106,-1.4262,-1.455,-1.5083,-1.522,-1.5411,0.0,0.0,0.0,0.0,0.0,0.0,0.0,0.0,0.0,0.0,0.0,0.0,0.0,0.0,0.0,0.0,0.0,0.0,0.0,0.0,0.0,0.0,0.0,0.0,0.0,0.0,0.0,0.0,0.0,0.0,0.0,0.0,0.0,0.0,0.0,0.0,0.0,0.0,0.0,0.0,-1.5869,-1.6061,-1.6603,0.0,0.0,0.0,0.0,0.0,0.0,-1.8158,-1.8295,0.0,0.0,0.0,0.0,0.0,0.0,0.0,0.0,0.0,0.0,0.0,0.0,0.0,0.0,0.0,0.0,0.0,0.0,0.0,0.0,0.0,0.0,0.0,0.0,0.0,0.0,0.0,0.0,0.0,0.0,0.0,0.0,0.0,0.0,0.0,0.0,0.0,0.0,0.0,0.0,0.0,0.0,0.0,0.0,0.0,0.0,0.0,0.0,0.0,0.0,0.0,0.0,0.0,0.0,0.0,-1.33,-1.3664,-1.3954,-1.4297,-1.4456,-1.47,-1.5082,-1.5207,-1.5371,0.0,0.0,0.0,0.0,0.0,0.0,0.0,0.0,0.0,0.0,0.0,0.0,0.0,0.0,0.0,0.0,0.0,0.0,0.0,0.0,0.0,0.0,0.0,0.0,0.0,0.0,0.0,0.0,0.0,0.0,0.0,0.0,0.0,0.0,0.0,0.0,0.0,0.0,0.0,0.0,0.0,-1.7376,-1.8184,-1.8452,0.0,0.0,0.0,0.0,-1.9561,-1.957,0.0,0.0,0.0,0.0,0.0,0.0,0.0,0.0,0.0,0.0,0.0,0.0,0.0,0.0,0.0,0.0,0.0,0.0,0.0,0.0,0.0,0.0,0.0,0.0,0.0,0.0,0.0,0.0,0.0,0.0,0.0,0.0,0.0,0.0,0.0,0.0,0.0,0.0,0.0,0.0,0.0,0.0,0.0,0.0,0.0,0.0,0.0,0.0,0.0,0.0,0.0,0.0,0.0,0.0,0.0,0.0,-1.2813,-1.3302,-1.378,-1.4257,-1.4105,-1.4316,-1.5007,-1.4819,-1.4725,0.0,0.0,0.0,0.0,0.0,0.0,0.0,0.0,0.0,0.0,0.0,0.0,0.0,0.0,0.0,0.0,0.0,0.0,0.0,0.0,0.0,0.0,0.0,0.0,0.0,0.0,0.0,0.0,0.0,0.0,0.0,0.0,0.0,0.0,0.0,0.0,0.0,0.0,0.0,0.0,0.0,-1.846,-1.8902,-1.8839,-1.9073,0.0,0.0,0.0,-2.0624,-2.0483,0.0,0.0,0.0,0.0,0.0,0.0,0.0,0.0,0.0,0.0,0.0,0.0,0.0,0.0,0.0,0.0,0.0,0.0,0.0,0.0,0.0,0.0,0.0,0.0,0.0,0.0,0.0,0.0,0.0,0.0,0.0,0.0,0.0,0.0,0.0,0.0,0.0,0.0,0.0,0.0,0.0,0.0,0.0,0.0,0.0,0.0,0.0,0.0,0.0,0.0,0.0,0.0,0.0,0.0,0.0,-1.2505,-1.3082,-1.3337,-1.3711,-1.422,-1.4262,-1.443,-1.4774,-1.4792,-1.472,0.0,0.0,0.0,0.0,0.0,0.0,0.0,0.0,0.0,0.0,0.0,0.0,0.0,0.0,0.0,0.0,0.0,0.0,0.0,0.0,0.0,0.0,0.0,0.0,0.0,0.0,0.0,0.0,0.0,0.0,0.0,0.0,0.0,0.0,0.0,0.0,0.0,0.0,0.0,0.0,0.0,0.0,-2.0418,-2.0535,0.0,0.0,0.0,-2.1407,-2.1918,0.0,0.0,0.0,0.0,0.0,0.0,0.0,0.0,0.0,0.0,0.0,0.0,0.0,0.0,0.0,0.0,0.0,0.0,0.0,0.0,0.0,0.0,0.0,0.0,0.0,0.0,0.0,0.0,0.0,0.0,0.0,0.0,0.0,0.0,0.0,0.0,0.0,0.0,0.0,0.0,0.0,0.0,0.0,0.0,0.0,0.0,0.0,0.0,0.0,0.0,0.0,0.0,0.0,0.0,0.0,0.0,0.0,-1.3169,-1.3258,-1.3613,-1.4161,-1.4333,-1.4453,-1.4576,-1.4615,0.0,0.0,0.0,0.0,0.0,0.0,0.0,0.0,0.0,0.0,0.0,0.0,0.0,0.0,0.0,0.0,0.0,0.0,0.0,0.0,0.0,0.0,0.0,0.0,0.0,0.0,0.0,-1.479,0.0,0.0,0.0,0.0,0.0,0.0,0.0,0.0,0.0,0.0,0.0,0.0,0.0,0.0,-2.0899,-2.1929,-2.2009,-2.2118,0.0,0.0,-2.2462,-2.2804,-2.2492,-2.2093,0.0,0.0,0.0,0.0,0.0,0.0,0.0,0.0,0.0,0.0,0.0,0.0,0.0,0.0,0.0,0.0,0.0,0.0,0.0,0.0,0.0,0.0,0.0,0.0,0.0,0.0,0.0,0.0,0.0,0.0,0.0,0.0,0.0,0.0,0.0,0.0,0.0,0.0,0.0,0.0,0.0,0.0,0.0,0.0,0.0,0.0,0.0,0.0,0.0,0.0,0.0,0.0,0.0,0.0,0.0,-1.2609,-1.2883,-1.341,-1.4161,-1.389,-1.4005,-1.4492,-1.3973,-1.3669,0.0,0.0,0.0,0.0,0.0,0.0,0.0,0.0,0.0,0.0,0.0,0.0,0.0,0.0,0.0,0.0,0.0,0.0,0.0,0.0,0.0,0.0,0.0,0.0,0.0,0.0,0.0,0.0,0.0,0.0,0.0,0.0,0.0,0.0,0.0,0.0,0.0,0.0,0.0,0.0,0.0,-2.1671,-2.3167,-2.268,-2.2527,0.0,0.0,-2.2843,-2.3037,-2.2673,-2.228,-2.202,0.0,0.0,0.0,0.0,0.0,0.0,0.0,0.0,0.0,0.0,0.0,0.0,0.0,0.0,0.0,0.0,0.0,0.0,0.0,0.0,0.0,0.0,0.0,0.0,0.0,0.0,0.0,0.0,0.0,0.0,0.0,0.0,0.0,0.0,0.0,0.0,0.0,0.0,0.0,0.0,0.0,0.0,0.0,0.0,0.0,0.0,0.0,0.0,0.0,0.0,0.0,0.0,0.0,-1.2174,-1.2719,-1.2982,-1.337,-1.3794,-1.3922,-1.3928,-1.3939,-1.372,-1.3327,0.0,0.0,0.0,0.0,0.0,0.0,0.0,0.0,0.0,0.0,0.0,0.0,0.0,0.0,0.0,0.0,0.0,0.0,0.0,0.0,0.0,0.0,0.0,0.0,0.0,0.0,0.0,0.0,-1.6476,-1.6666,-1.6842,0.0,0.0,0.0,0.0,0.0,0.0,0.0,0.0,0.0,0.0,-2.2265,-2.3118,-2.2948,0.0,0.0,-2.3154,-2.3037,-2.327,-2.2751,-2.2277,-2.2086,-2.1785,0.0,0.0,0.0,0.0,0.0,0.0,0.0,0.0,0.0,0.0,0.0,0.0,0.0,0.0,0.0,0.0,0.0,0.0,0.0,0.0,0.0,0.0,0.0,0.0,0.0,0.0,0.0,0.0,0.0,0.0,0.0,0.0,0.0,0.0,0.0,0.0,0.0,0.0,0.0,0.0,0.0,0.0,0.0,0.0,0.0,0.0,0.0,0.0,0.0,0.0,0.0,0.0,-1.2254,-1.2784,-1.3053,-1.3313,-1.3593,-1.3848,-1.3854,-1.3606,-1.3427,-1.3033,0.0,0.0,0.0,0.0,0.0,0.0,0.0,0.0,0.0,0.0,0.0,0.0,0.0,0.0,0.0,0.0,0.0,0.0,0.0,0.0,0.0,0.0,0.0,0.0,0.0,0.0,0.0,0.0,-1.6655,-1.6825,-1.7078,0.0,0.0,0.0,0.0,0.0,0.0,0.0,0.0,0.0,0.0,-2.2664,-2.3399,-2.3289,-2.3115,-2.326,-2.3232,-2.3217,-2.3335,-2.2811,-2.2328,-2.2204,0.0,0.0,0.0,0.0,0.0,0.0,0.0,0.0,0.0,0.0,0.0,0.0,0.0,0.0,0.0,0.0,0.0,0.0,0.0,0.0,0.0,0.0,0.0,0.0,0.0,0.0,0.0,0.0,0.0,0.0,0.0,0.0,0.0,0.0,0.0,0.0,0.0,0.0,0.0,0.0,0.0,0.0,0.0,0.0,0.0,0.0,0.0,0.0,0.0,0.0,0.0,0.0,0.0,0.0,-1.2808,-1.3039,-1.33,-1.358,-1.3606,-1.36,-1.3573,-1.3112,-1.2656,-1.2291,0.0,0.0,0.0,0.0,0.0,0.0,0.0,0.0,0.0,0.0,0.0,0.0,0.0,0.0,0.0,0.0,0.0,0.0,0.0,0.0,0.0,0.0,0.0,0.0,0.0,0.0,-1.6588,-1.6832,-1.7045,0.0,0.0,0.0,0.0,0.0,0.0,0.0,0.0,0.0,0.0,-2.2253,-2.2895,-2.4251,-2.3688,-2.3238,-2.3596,-2.3491,-2.3367,-2.3323,-2.2922,-2.2542,0.0,0.0,0.0,0.0,0.0,0.0,0.0,0.0,0.0,0.0,0.0,0.0,0.0,0.0,0.0,0.0,0.0,0.0,0.0,0.0,0.0,0.0,0.0,0.0,0.0,0.0,0.0,0.0,-0.8199,0.0,0.0,0.0,0.0,0.0,0.0,0.0,0.0,0.0,0.0,0.0,-1.1226,-1.1065,0.0,0.0,0.0,0.0,0.0,0.0,0.0,0.0,0.0,0.0,0.0,0.0,-1.2251,-1.2489,-1.279,-1.2985,-1.3085,-1.3253,-1.326,-1.3053,-1.2891,-1.2462,-1.1702,0.0,0.0,0.0,0.0,0.0,0.0,0.0,0.0,0.0,0.0,0.0,0.0,0.0,0.0,0.0,0.0,0.0,0.0,0.0,0.0,0.0,0.0,0.0,0.0,0.0,-1.6539,0.0,0.0,0.0,0.0,0.0,0.0,0.0,0.0,0.0,0.0,0.0,-2.1226,-2.184,-2.2655,-2.3308,-2.3687,-2.3437,-2.3241,0.0,0.0,0.0,0.0,0.0,0.0,0.0,0.0,0.0,0.0,0.0,0.0,0.0,0.0,-2.3641,-2.3743,-2.3677,-2.3622,-2.3696,0.0,0.0,0.0,0.0,0.0,0.0,0.0,0.0,0.0,0.0,0.0,0.0,0.0,0.0,0.0,0.0,-0.8702,0.0,0.0,0.0,0.0,0.0,0.0,0.0,0.0,-1.1364,-1.1485,-1.1647,-1.1566,-1.1517,0.0,-1.1431,-1.1248,0.0,0.0,0.0,0.0,0.0,0.0,0.0,0.0,-1.2305,-1.2318,-1.2636,-1.2784,-1.279,-1.2978,-1.2953,-1.2784,-1.2482,-1.2017,-1.1409,-1.1024,-1.0926,0.0,0.0,0.0,0.0,0.0,0.0,0.0,0.0,0.0,0.0,0.0,0.0,0.0,0.0,0.0,0.0,0.0,0.0,0.0,0.0,0.0,0.0,0.0,-1.6708,0.0,0.0,0.0,0.0,0.0,0.0,0.0,0.0,0.0,-1.9544,-2.0665,-2.1631,-2.1919,-2.2905,-2.3556,-2.3409,0.0,0.0,0.0,0.0,0.0,0.0,0.0,-2.3468,-2.3396,-2.3389,-2.3354,-2.3287,-2.35,-2.3699,-2.3846,0.0,0.0,-2.3929,-2.3949,-2.3995,-2.4096,-2.4125,-2.4125,-2.4125,-2.4125,-2.4125,0.0,0.0,0.0,0.0,0.0,0.0,0.0,0.0,-0.7635,-0.809,0.0,-0.9096,0.0,0.0,0.0,0.0,0.0,0.0,0.0,0.0,-1.1752,-1.188,-1.2259,-1.203,-1.1944,-1.1938,-1.1892,-1.192,-1.1872,-1.1536,0.0,0.0,0.0,0.0,0.0,0.0,-1.2305,-1.2311,-1.2616,-1.277,-1.2764,-1.277,-1.2808,-1.2744,-1.1904,-1.1415,-1.141,-1.1024,-1.087,-1.109,-1.1538,0.0,0.0,0.0,0.0,0.0,0.0,0.0,0.0,0.0,0.0,0.0,0.0,0.0,0.0,0.0,0.0,0.0,0.0,0.0,0.0,-1.6832,0.0,0.0,0.0,0.0,0.0,0.0,0.0,0.0,0.0,0.0,-1.9776,-2.1107,-2.2125,-2.2148,0.0,0.0,0.0,0.0,-2.3593,-2.3604,-2.3593,-2.3666,-2.3897,-2.3812,-2.3652,-2.3463,0.0,0.0,-2.43,-2.4532,-2.4611,-2.4662,-2.4775,-2.4736,-2.4011,-2.4008,-2.4083,-2.4125,-2.4125,-2.4125,-2.4125,-2.4125,-2.4125,-0.5658,0.0,0.0,0.0,0.0,-0.6376,-0.6804,-0.7487,-0.7711,-0.8319,-0.9129,-0.9063,0.0,0.0,0.0,0.0,0.0,0.0,-1.1803,-1.2288,-1.2349,-1.2433,-1.259,-1.2512,-1.2385,-1.2204,-1.2198,-1.2107,-1.188,-1.1803,-1.1805,-1.1842,0.0,0.0,0.0,0.0,-1.2305,-1.2311,-1.2385,-1.2469,-1.2432,-1.2469,-1.2425,-1.2425,-1.1984,-1.1643,-1.1395,-1.1024,-1.0902,-1.109,-1.1303,0.0,0.0,0.0,0.0,0.0,0.0,0.0,0.0,0.0,0.0,0.0,0.0,0.0,0.0,0.0,0.0,0.0,0.0,0.0,-1.6842,-1.6737,-1.6667,0.0,0.0,0.0,0.0,0.0,0.0,0.0,0.0,0.0,-2.054,-2.1586,-2.2456,0.0,0.0,-2.397,-2.3861,-2.3824,-2.374,-2.3641,0.0,0.0,0.0,-2.419,-2.4043,-2.3975,-2.3691,-2.3614,-2.3974,-2.4081,-2.4123,-2.4123,-2.4242,-2.4266,-2.4106,-2.4054,-2.4112,-2.4125,-2.4125,-2.4125,-2.4125,-2.4125,-2.4125,-0.6077,-0.6084,-0.6188,-0.6371,-0.649,-0.6716,-0.7138,-0.7585,-0.786,-0.8404,-0.903,-0.9044,-0.9255,-0.9639,-1.0056,0.0,0.0,0.0,-1.2053,-1.2534,-1.2662,-1.2705,-1.2705,-1.2705,-1.262,-1.2469,-1.2469,-1.2385,-1.2234,-1.2234,-1.2329,-1.2539,0.0,0.0,-1.2473,-1.2599,-1.2659,-1.2659,-1.2538,-1.2516,-1.2516,-1.2365,-1.2305,-1.2298,-1.2024,-1.173,-1.1395,-1.1057,-1.0926,-1.109,-1.1306,-1.1646,0.0,0.0,0.0,0.0,0.0,0.0,0.0,0.0,0.0,0.0,0.0,-1.5792,0.0,0.0,0.0,0.0,-1.6684,-1.6842,-1.7106,-1.6939,0.0,0.0,0.0,0.0,0.0,0.0,0.0,-2.005,-2.0435,-2.0844,-2.1187,-2.1742,-2.2264,-2.2628,-2.3235,-2.3568,-2.345,0.0,-2.3414,-2.332,-2.3438,-2.3651,-2.4003,-2.4091,-2.4116,-2.4191,-2.374,-2.3548,-2.3832,-2.3891,-2.392,-2.3979,-2.4024,-2.4125,-2.4125,-2.4125,-2.4125,-2.4125,-2.4125,-2.4125,-2.4125,-2.4125,-2.4125,-0.6375,-0.6589,-0.6543,-0.6626,-0.6859,-0.7089,-0.7429,-0.7749,-0.7984,-0.8305,-0.8637,-0.9108,-0.9434,-0.9714,-1.0338,0.0,0.0,-1.1807,-1.2258,-1.2735,-1.2741,-1.2747,-1.2771,-1.2771,-1.2771,-1.2765,-1.2765,-1.2771,-1.2771,-1.2765,-1.2898,-1.3127,-1.2831,-1.2732,-1.2713,-1.3087,-1.3267,-1.324,-1.2998,-1.2837,-1.2784,-1.2452,-1.2305,-1.2305,-1.208,-1.1744,-1.139,-1.1161,-1.1035,-1.108,-1.139,-1.1737,-1.2097,0.0,0.0,0.0,0.0,0.0,0.0,0.0,0.0,0.0,0.0,0.0,0.0,0.0,0.0,0.0,-1.6842,0.0,-1.7278,-1.7306,0.0,0.0,0.0,-1.8884,-1.9364,-1.9813,-2.0183,-2.041,0.0,0.0,0.0,0.0,-2.1684,-2.1804,-2.234,-2.2673,-2.2707,-2.2753,-2.2775,-2.2923,-2.2945,-2.3068,-2.3465,-2.377,-2.3997,-2.4066,-2.3745,-2.3578,-2.3832,-2.392,-2.3979,-2.4054,-2.4125,-2.4125,-2.4125,-2.4125,-2.4125,-2.4125,-2.4125,-2.4125,-2.4125,-2.4125,-2.4125,-0.6651,-0.6605,-0.6927,-0.6988,-0.7,-0.7238,-0.7533,-0.7866,-0.8145,-0.849,-0.8908,-0.9322,-0.9725,-1.0177,-1.0517,-1.1032,-1.1631,-1.188,-1.2362,-1.3019,-1.3025,-1.3127,-1.332,-1.332,-1.332,-1.332,-1.332,-1.332,-1.332,-1.332,-1.3357,-1.3405,-1.3667,-1.3722,-1.3555,-1.3772,-1.3768,-1.35,-1.3427,-1.3206,-1.2797,-1.2458,-1.2305,-1.2305,-1.2231,-1.185,-1.1129,-1.129,-1.1185,-1.073,-1.1144,-1.1586,-1.2073,-1.2444,0.0,0.0,0.0,0.0,0.0,0.0,0.0,0.0,0.0,-1.6058,-1.6384,0.0,-1.6477,0.0,-1.7043,-1.725,-1.7306,-1.7306,0.0,0.0,-1.8414,-1.8945,-1.9563,-1.9909,-2.0248,-2.0604,-2.054,-2.0584,-2.0902,-2.1031,-2.1096,-2.116,-2.1911,-2.2537,-2.2673,-2.2764,-2.2865,-2.2898,-2.3089,-2.3347,-2.3532,-2.3713,-2.3729,-2.3604,-2.3556,-2.3641,-2.3861,-2.3979,-2.4067,-2.4083,-2.4125,-2.4125,-2.4125,-2.4125,-2.4125,-2.4125,-2.4125,-2.4125,-2.4125,-2.4112,-2.4112,-0.6812,-0.669,-0.6981,-0.7104,-0.7131,-0.7475,-0.7731,-0.7882,-0.8259,-0.8549,-0.8711,-0.9355,-0.9885,-1.0274,-1.0761,-1.129,-1.1866,-1.2192,-1.2715,-1.3252,-1.3252,-1.3375,-1.3513,-1.3468,-1.3468,-1.3468,-1.3468,-1.3468,-1.3468,-1.3468,-1.3574,-1.3682,-1.4187,-1.4396,-1.4358,-1.4294,-1.4195,-1.3993,-1.3606,-1.322,-1.2835,-1.2458,-1.2305,-1.2298,-1.2178,-1.1817,-1.1202,-1.1197,-1.1055,-1.0821,-1.109,-1.1458,-1.1942,-1.222,-1.2498,0.0,0.0,0.0,0.0,0.0,0.0,0.0,0.0,0.0,0.0,0.0,-1.6516,0.0,-1.7099,0.0,-1.7306,-1.7475,-1.7791,-1.8261,-1.8731,-1.9231,-1.9819,-2.0019,-2.0172,-2.041,-2.041,-2.0443,-2.0572,-2.0733,-2.0839,-2.0903,-2.1445,-2.1918,-2.2083,-2.2182,-2.2313,-2.2554,-2.2749,-2.2975,-2.3296,-2.3399,-2.3441,-2.3406,-2.345,-2.3611,-2.3861,-2.3949,-2.4024,-2.4096,-2.4125,-2.4125,-2.4125,-2.4125,-2.4125,-2.4125,-2.4125,-2.4125,-2.4083,-2.3874,-2.3678,-0.6912,-0.6793,-0.6935,-0.7065,-0.7235,-0.7739,-0.7911,-0.7841,-0.8378,-0.8575,-0.8558,-0.9448,-0.9994,-1.025,-1.0986,-1.1538,-1.1997,-1.2552,-1.3025,-1.3471,-1.3516,-1.3586,-1.3616,-1.3616,-1.3616,-1.3616,-1.361,-1.3616,-1.3616,-1.3616,-1.3731,-1.3948,-1.4468,-1.4869,-1.5086,-1.4733,-1.4563,-1.4466,-1.3687,-1.312,-1.2851,-1.2512,-1.2338,-1.2291,-1.2053,-1.171,-1.1342,-1.1045,-1.0922,-1.1034,-1.1108,-1.1351,-1.1787,-1.1996,-1.2251,0.0,-1.2897,0.0,0.0,0.0,0.0,0.0,0.0,0.0,0.0,-1.6402,-1.6506,-1.679,-1.7071,-1.7267,-1.7306,-1.7715,-1.8185,-1.8643,-1.9124,-1.9573,-2.0053,-2.0118,-2.0118,-2.0118,-2.0237,-2.0378,-2.0378,-2.0529,-2.0754,-2.085,-2.1129,-2.1377,-2.1434,-2.1521,-2.1733,-2.2123,-2.2228,-2.2523,-2.2856,-2.3037,-2.3193,-2.3343,-2.3433,-2.3552,-2.3832,-2.392,-2.3979,-2.4067,-2.4125,-2.4125,-2.4125,-2.4125,-2.4125,-2.4125,-2.4034,-2.3926,-2.3887,-2.3574,-2.321,-0.6915,-0.6793,-0.6932,-0.7062,-0.7238,-0.7543,-0.7776,-0.7997,-0.8537,-0.9028,-0.9442,-0.9832,-1.0124,-1.0255,-1.0986,-1.1487,-1.1814,-1.2506,-1.3078,-1.3502,-1.3734,-1.3948,-1.4135,-1.4147,-1.4147,-1.4147,-1.4153,-1.4153,-1.4153,-1.4153,-1.4171,-1.422,-1.4762,-1.5032,0.0,0.0,0.0,0.0,-1.384,-1.338,-1.3126,-1.2864,-1.2545,-1.2305,-1.206,0.0,-1.1142,-1.1257,-1.1167,-1.0723,-1.1202,0.0,0.0,0.0,0.0,0.0,0.0,0.0,0.0,0.0,0.0,0.0,-1.5826,-1.6114,-1.6142,-1.641,-1.6637,-1.679,-1.6937,-1.7106,-1.7278,-1.7715,-1.8196,-1.8643,-1.9135,-1.9584,-2.0053,-2.0118,-2.0118,-2.0118,-2.0151,-2.0183,-2.0183,-2.0464,-2.0701,-2.0765,-2.1094,-2.1411,-2.1624,-2.1706,-2.1831,-2.1956,-2.234,-2.2647,-2.2848,-2.3017,-2.3168,-2.336,-2.3509,-2.3628,-2.3874,-2.4008,-2.4067,-2.4125,-2.4125,-2.4125,-2.4125,-2.4125,-2.4112,-2.4112,-2.3733,-2.3352,-2.3365,-2.3274,-2.3052,-0.7018,0.0,-0.6843,-0.7015,0.0,-0.7338,-0.764,-0.8038,-0.8577,-0.9125,-0.9681,-1.0078,-1.0259,-1.0353,-1.1257,-1.1779,-1.2068,-1.2681,-1.3225,-1.372,-1.3826,-1.4034,-1.4298,-1.4298,-1.4298,-1.4298,-1.4298,-1.4298,-1.4298,-1.4298,-1.4298,-1.4298,-1.4838,-1.5131,-1.5118,-1.5028,-1.4794,-1.4309,-1.3833,-1.3467,-1.3213,-1.2945,-1.2643,-1.2305,0.0,0.0,0.0,0.0,0.0,0.0,0.0,0.0,0.0,0.0,0.0,-1.2683,-1.292,-1.3307,-1.398,-1.4478,-1.4863,-1.5196,-1.5691,-1.6077,-1.6239,-1.6467,-1.6655,-1.679,-1.6937,-1.7078,-1.7289,-1.7912,-1.8436,-1.8687,-1.93,-1.9856,-2.0063,-2.0118,-2.0118,-2.0118,-2.0118,-2.0118,-2.0118,-2.0443,-2.0669,-2.0733,-2.1094,-2.1431,-2.1549,-2.1737,-2.1968,-2.2235,-2.2555,-2.2818,-2.2987,-2.315,-2.33,-2.348,-2.3628,-2.3789,-2.3979,-2.4067,-2.4125,-2.4125,-2.4125,-2.4125,-2.4125,-2.4125,-2.4005,-2.3704,-2.3404,-2.2988,-2.253,-2.2374,-2.2296,-0.6997,-0.6801,-0.6777,-0.6901,-0.7138,-0.7188,-0.7537,-0.8088,0.0,0.0,0.0,-1.0117,-1.0413,-1.0462,-1.1487,-1.2078,-1.237,-1.2802,-1.3298,-1.3738,-1.3841,-1.4022,-1.4202,-1.4298,-1.4298,-1.4298,-1.4298,-1.4298,-1.4298,-1.4298,-1.4298,-1.4346,-1.4838,-1.5105,-1.5164,-1.5048,-1.474,-1.4182,-1.3826,-1.354,-1.3293,-1.2986,-1.2723,-1.2392,-1.2044,-1.1977,-1.2183,-1.1621,-1.1471,-1.1775,-1.1557,-1.1549,-1.1778,-1.1833,-1.2096,-1.259,-1.2783,-1.3133,-1.3799,-1.424,-1.4686,-1.5088,-1.5595,-1.6029,-1.6316,-1.6477,-1.662,-1.6751,-1.6881,-1.7022,-1.725,-1.8043,-1.86,-1.8687,-1.9484,-1.9998,-2.0096,-2.0118,-2.0118,-2.0118,-2.0118,-2.0118,-2.0107,-2.0443,-2.0701,-2.0765,-2.1094,-2.1463,-2.1494,-2.1726,-2.2061,-2.2494,-2.2708,-2.2909,-2.306,-2.3271,-2.3433,-2.3569,-2.376,-2.3949,-2.4067,-2.4125,-2.4086,-2.3916,-2.3955,-2.389,-2.3812,-2.372,-2.3642,-2.3158,-2.2975,-2.2648,-2.1773,-2.1433,-2.1381,-0.6929,-0.6793,-0.669,-0.672,-0.6892,-0.7089,-0.7637,-0.8382,-0.868,-0.8977,-0.9282,-1.0068,-1.0413,-1.0458,-1.1292,-1.178,-1.2078,-1.2613,-1.2958,0.0,-1.369,-1.3931,-1.3979,-1.4208,-1.4298,-1.4298,-1.4298,-1.4298,-1.4298,-1.4298,-1.4298,-1.4352,-1.4831,-1.5199,-1.5312,-1.513,-1.4796,-1.4462,-1.4175,-1.3881,-1.3547,-1.33,-1.2993,-1.2723,-1.2194,-1.2019,-1.2183,-1.1999,-1.1861,-1.1797,-1.1862,-1.1877,-1.1801,-1.1965,-1.2282,-1.2744,-1.2897,-1.3255,-1.392,-1.43,-1.4804,-1.5527,-1.5798,-1.5961,-1.6124,-1.6306,-1.6477,-1.6609,-1.674,-1.6881,-1.7043,-1.7712,-1.8272,-1.8643,-1.9189,-1.9638,-1.9998,-2.0063,-2.0063,-2.0074,-2.0118,-2.0107,-2.014,-2.0443,-2.0669,-2.0765,-2.1005,-2.1471,-2.1647,-2.1862,-2.2049,-2.2359,-2.2616,-2.2757,-2.2969,-2.321,-2.3407,-2.3569,-2.3721,-2.3859,-2.3939,-2.3968,-2.3796,-2.3433,-2.3326,-2.3184,-2.282,-2.2624,-2.265,-2.2519,-2.2178,-2.176,-2.1472,-2.1119,-2.0869,-0.6912,-0.679,-0.6668,-0.6653,-0.6845,-0.7244,-0.764,-0.7992,-0.8432,-0.8783,-0.9236,-0.9871,-1.0265,-1.0458,-1.1096,-1.1536,-1.1785,-1.2322,-1.2716,-1.2958,-1.3292,-1.3593,-1.3883,-1.4022,-1.416,-1.4298,-1.4298,-1.4298,-1.4298,-1.4298,-1.4298,-1.4346,-1.4838,-1.522,-1.5351,-1.5104,-1.4823,-1.4529,-1.4235,-1.3941,-1.3606,-1.3473,-1.3227,-1.2804,-1.2546,-1.2455,-1.2582,-1.2361,-1.2303,-1.2434,-1.216,-1.2059,-1.2174,-1.2133,-1.2336,-1.2867,-1.295,-1.3285,-1.395,-1.4478,-1.497,-1.5381,-1.574,-1.5953,-1.598,-1.622,-1.6459,-1.6581,-1.6666,-1.6768,-1.6994,-1.755,-1.8028,-1.8264,-1.8742,-1.9102,-1.9299,-1.9364,-1.9431,-1.966,-1.9725,-1.9824,-2.0085,-2.0346,-2.054,-2.0561,-2.071,-2.0861,-2.1043,-2.1005,-2.1337,-2.2317,-2.2659,-2.28,-2.2957,-2.3288,-2.3395,-2.3202,-2.3383,-2.3384,-2.3276,-2.3184,-2.3067,-2.2844,-2.2752,-2.2688,-2.2387,-2.24,-2.2269,-2.1943,-2.1734,-2.1433,-2.1145,-2.0831,-2.0725,-0.6891,-0.679,-0.6638,-0.6628,-0.6848,-0.7244,-0.7497,-0.7646,-0.8141,-0.8584,-0.9084,-0.9624,-1.0019,-1.0265,-1.0855,-1.1243,-1.1531,-1.193,-1.2292,-1.2635,-1.2823,-1.3213,-1.3615,-1.3806,-1.3973,-1.4208,-1.425,-1.4298,-1.4298,-1.4298,-1.4352,-1.449,-1.4892,-1.5259,-1.5451,-1.5182,-1.485,-1.4609,-1.4269,-1.3981,-1.3713,-1.364,-1.342,-1.3032,-1.2851,-1.2866,-1.2968,-1.2661,-1.265,-1.2952,-1.2492,-1.2321,-1.2464,-1.231,-1.2422,-1.2936,-1.3011,-1.3324,-1.398,-1.4636,-1.5059,-1.5186,-1.5624,-1.5914,-1.5914,-1.6212,-1.6431,-1.6534,-1.6581,-1.6684,-1.6913,-1.7277,-1.7665,-1.7941,-1.8246,-1.8559,-1.8687,-1.8698,-1.8818,-1.9179,-1.9244,-1.9408,-1.9714,-1.9972,-2.0066,-2.0052,-2.0059,-2.0091,-2.0182,-2.014,-2.076,-2.1722,-2.2279,-2.2367,-2.2655,-2.2913,-2.2927,-2.2572,-2.2747,-2.2704,-2.2488,-2.2332,-2.2201,-2.2148,-2.2083,-2.1965,-2.1927,-2.1862,-2.1641,-2.1264,-2.1108,-2.1043,-2.0692,-2.0575,-2.0624,-0.6815,-0.6766,-0.6556,-0.655,-0.6795,-0.6842,-0.7144,-0.7596,-0.7942,-0.8187,-0.8531,-0.9327,-0.9624,-0.9772,-1.0507,-1.0949,-1.1228,-1.1346,-1.1645,-1.2073,-1.2336,-1.2625,-1.2959,-1.3586,-1.3931,-1.3973,-1.416,-1.4298,-1.4298,-1.4298,-1.4544,-1.4981,-1.5083,-1.5302,-1.5631,-1.5244,-1.4995,-1.4955,-1.4369,-1.4075,-1.4035,-1.374,-1.3573,-1.352,-1.3065,-1.2961,-1.3247,-1.2975,-1.2905,-1.2968,-1.295,-1.2779,-1.2555,-1.2459,-1.2624,-1.2991,-1.3019,-1.3354,-1.41,-1.4704,-1.5059,-1.5205,-1.5624,-1.5914,-1.5914,-1.6202,-1.6402,-1.6431,-1.6534,-1.6599,-1.6627,-1.6814,-1.717,-1.7676,-1.7805,-1.8099,-1.8504,-1.8698,-1.8709,-1.8742,-1.8763,-1.8785,-1.8936,-1.9102,-1.9221,-1.936,-1.9407,-1.9485,-1.9659,-1.982,-2.0028,-2.0658,-2.0978,-2.1256,-2.1533,-2.1713,-2.1947,-2.1886,-2.1986,-2.2007,-2.1945,-2.1867,-2.1865,-2.1365,-2.1261,-2.112,-2.0733,-2.0412,-2.0502,-2.0579,-2.0489,-2.0335,-2.0271,-2.0283,-2.0359,-0.6804,-0.6777,-0.6487,-0.6439,-0.6589,-0.6745,-0.6945,-0.7144,-0.7593,-0.7793,-0.7988,-0.8634,-0.913,-0.9624,-0.9969,-1.0314,-1.0743,-1.0938,-1.1182,-1.1415,-1.1931,-1.2309,-1.2614,-1.3132,-1.3588,-1.3883,-1.4027,-1.416,-1.4298,-1.4298,-1.4496,-1.4838,-1.5029,-1.5267,-1.5555,-1.5378,-1.5182,-1.5001,-1.4549,-1.4262,-1.4095,-1.3975,-1.3821,-1.358,-1.3233,-1.3119,-1.3234,-1.3061,-1.3026,-1.3258,-1.3111,-1.3023,-1.3063,-1.2717,-1.2749,-1.3293,-1.3486,-1.3739,-1.4079,-1.4636,-1.5029,-1.5059,-1.5595,-1.5914,-1.5914,-1.6212,-1.6402,-1.6402,-1.6459,-1.6506,-1.6581,-1.6666,-1.6846,-1.7148,-1.722,-1.7334,-1.7524,-1.7662,-1.7806,-1.8089,-1.8224,-1.8392,-1.8622,-1.8747,-1.8849,-1.8865,-1.8796,-1.8771,-1.8912,-1.8914,-1.9051,-1.9361,-1.9636,-2.0254,-2.1002,-2.1536,-2.1536,-2.135,-2.1356,-2.1413,-2.1053,-2.0937,-2.0809,-2.0578,-2.0591,-2.0514,-2.031,-2.0207,-2.0195,-2.0195,-2.0195,-2.0195,-2.0195,-2.0195,-2.0283,-0.6779,-0.6719,-0.647,-0.6387,-0.6437,-0.6592,-0.6745,-0.6845,-0.7247,-0.7447,-0.7646,-0.8038,-0.8584,-0.9229,-0.948,-0.9821,-1.0186,-1.0446,-1.0702,-1.0925,-1.1455,-1.1869,-1.2315,-1.279,-1.3244,-1.3642,-1.3841,-1.4022,-1.4298,-1.4298,-1.4442,-1.4688,-1.4981,-1.522,-1.5466,-1.5445,-1.5257,-1.5015,-1.4669,-1.4376,-1.4128,-1.4088,-1.3988,-1.3761,-1.348,-1.3338,-1.3411,-1.3187,-1.3168,-1.3492,-1.3265,-1.3245,-1.3449,-1.2945,-1.2866,-1.3375,-1.3774,-1.3989,-1.401,-1.4636,-1.5009,-1.5059,-1.5537,-1.5856,-1.5953,-1.6144,-1.6316,-1.6402,-1.6402,-1.6459,-1.6524,-1.6552,-1.6609,-1.6722,-1.6751,-1.6751,-1.6839,-1.6881,-1.7127,-1.7467,-1.759,-1.7767,-1.8078,-1.8151,-1.8188,-1.8155,-1.8093,-1.8067,-1.8193,-1.817,-1.8294,-1.8572,-1.8851,-1.9446,-2.0508,-2.0789,-2.083,-2.0693,-2.0571,-2.0498,-2.0118,-2.008,-2.0105,-2.0181,-2.0105,-2.0067,-2.0042,-2.0067,-2.0093,-2.0093,-2.0093,-2.0093,-2.0067,-2.0093,-2.0093,-0.6733,-0.6616,-0.6438,-0.6387,-0.6437,-0.6437,-0.6589,-0.6795,-0.6842,-0.7095,-0.7547,-0.7646,-0.7942,-0.8531,-0.9179,-0.9579,-0.9682,-0.9802,-1.0209,-1.072,-1.0749,-1.1175,-1.2041,-1.255,-1.291,-1.3201,-1.3642,-1.3973,-1.425,-1.4298,-1.4442,-1.4694,-1.4987,-1.5226,-1.5466,-1.5465,-1.5257,-1.5042,-1.4703,-1.4396,-1.4135,-1.4095,-1.4075,-1.4021,-1.3768,-1.3615,-1.3717,-1.3449,-1.3351,-1.347,-1.3462,-1.3467,-1.3487,-1.3199,-1.3039,-1.3106,-1.3545,-1.386,-1.404,-1.4616,-1.498,-1.5068,-1.5439,-1.5769,-1.5885,-1.6048,-1.622,-1.6384,-1.6402,-1.6402,-1.6402,-1.6431,-1.6477,-1.6581,-1.6609,-1.6666,-1.679,-1.679,-1.679,-1.6871,-1.6942,-1.7013,-1.6992,-1.6991,-1.7183,-1.7279,-1.7378,-1.7601,-1.7762,-1.7927,-1.8193,-1.8491,-1.8774,-1.9088,-1.9305,-1.9752,-1.9746,-1.9712,-1.9893,-1.9769,-1.9719,-1.9708,-1.9773,-1.9824,-1.9875,-1.9875,-1.9824,-1.9824,-1.985,-1.9875,-1.9875,-1.9875,-1.9901,-1.985,-1.985,-0.6684,-0.6449,-0.6406,-0.6387,-0.6387,-0.6387,-0.6439,-0.6539,-0.6745,-0.6895,-0.7098,-0.7291,-0.754,-0.7942,-0.8389,-0.8882,-0.9357,-0.9416,-0.9819,-1.0357,-1.0674,-1.1057,-1.1572,-1.2212,-1.2667,-1.2958,-1.3249,-1.3636,-1.4016,-1.4208,-1.4346,-1.449,-1.4892,-1.5131,-1.5248,-1.5496,-1.5531,-1.5244,-1.495,-1.4663,-1.4369,-1.4182,-1.4088,-1.4075,-1.3753,-1.3662,-1.3791,-1.3477,-1.3365,-1.3506,-1.3492,-1.3622,-1.3815,-1.3663,-1.3476,-1.3406,-1.3525,-1.3731,-1.401,-1.4517,-1.4872,-1.5039,-1.5439,-1.5769,-1.5914,-1.6019,-1.6181,-1.6335,-1.6402,-1.6402,-1.6402,-1.6402,-1.6402,-1.6449,-1.6477,-1.6506,-1.6545,-1.662,-1.6666,-1.6694,-1.6722,-1.679,-1.6779,-1.6835,-1.692,-1.7022,-1.7095,-1.7301,-1.7534,-1.7739,-1.7947,-1.8247,-1.8533,-1.8786,-1.8931,-1.9235,-1.9445,-1.9459,-1.9525,-1.9615,-1.9642,-1.9708,-1.9773,-1.9824,-1.9798,-1.9798,-1.9798,-1.9798,-1.9798,-1.9798,-1.9798,-1.9798,-1.9798,-1.9798,-1.9798,-0.6589,-0.64,-0.6387,-0.6387,-0.6387,-0.6387,-0.6387,-0.6437,-0.6592,-0.6692,-0.6842,-0.6992,-0.7191,-0.7494,-0.7743,-0.8191,-0.8817,-0.9098,-0.9485,-0.9974,-1.0446,-1.0876,-1.1346,-1.1958,-1.2419,-1.271,-1.2953,-1.3389,-1.3883,-1.4064,-1.4208,-1.4298,-1.4736,-1.5035,-1.5172,-1.5506,-1.5591,-1.5398,-1.5156,-1.4816,-1.4529,-1.4235,-1.4088,-1.4062,-1.3888,-1.377,-1.3826,-1.3585,-1.3476,-1.3534,-1.3514,-1.3629,-1.3823,-1.3739,-1.3631,-1.3595,-1.3509,-1.361,-1.398,-1.4419,-1.4754,-1.497,-1.5323,-1.5624,-1.5856,-1.599,-1.6134,-1.6306,-1.6402,-1.6402,-1.6402,-1.6402,-1.6402,-1.6402,-1.6402,-1.6402,-1.6402,-1.6477,-1.6534,-1.6552,-1.662,-1.6648,-1.6676,-1.6722,-1.6779,-1.6842,-1.6927,-1.7134,-1.7368,-1.7573,-1.7728,-1.803,-1.829,-1.8545,-1.8732,-1.9037,-1.9196,-1.9237,-1.9368,-1.946,-1.9565,-1.9656,-1.9747,-1.9773,-1.9798,-1.9798,-1.9798,-1.9798,-1.9798,-1.9798,-1.9798,-1.9798,-1.9798,-1.9798,-1.9798,-0.6392,-0.6387,-0.6387,-0.6387,-0.6387,-0.6387,-0.6387,-0.6387,-0.6437,-0.6539,-0.6745,-0.6792,-0.6942,-0.7238,-0.7494,-0.7743,-0.8113,-0.868,-0.9219,-0.9678,-0.9974,-1.0522,-1.117,-1.1673,-1.2122,-1.2467,-1.2905,-1.3346,-1.3835,-1.3883,-1.4022,-1.4298,-1.4544,-1.4838,-1.5083,-1.5397,-1.5503,-1.5378,-1.5137,-1.4874,-1.4529,-1.4255,-1.4088,-1.4088,-1.4062,-1.4005,-1.3892,-1.3812,-1.3705,-1.3599,-1.3542,-1.3497,-1.3555,-1.3415,-1.3416,-1.3572,-1.3434,-1.3536,-1.3941,-1.43,-1.4636,-1.497,-1.5117,-1.5449,-1.5827,-1.5914,-1.6058,-1.6316,-1.6402,-1.6402,-1.6402,-1.6402,-1.6402,-1.6402,-1.6402,-1.6402,-1.6402,-1.6402,-1.6402,-1.6392,-1.6431,-1.6402,-1.6431,-1.6534,-1.6609,-1.6684,-1.6853,-1.705,-1.7256,-1.7434,-1.7673,-1.7947,-1.8166,-1.8329,-1.8583,-1.8825,-1.8905,-1.8999,-1.917,-1.9302,-1.942,-1.9539,-1.9656,-1.9734,-1.9773,-1.9798,-1.9798,-1.9798,-1.9798,-1.9798,-1.9798,-1.9798,-1.9798,-1.9798,-1.9798,-0.6387,-0.6387,-0.6387,-0.6387,-0.6387,-0.6387,-0.6387,-0.6387,-0.6387,-0.6437,-0.6489,-0.6539,-0.6686,-0.6939,-0.7191,-0.749,-0.7789,-0.8333,-0.8932,-0.9509,-0.971,-1.0196,-1.0841,-1.1296,-1.1785,-1.237,-1.271,-1.3055,-1.334,-1.3539,-1.3781,-1.4027,-1.4304,-1.464,-1.5083,-1.5356,-1.5528,-1.5604,-1.5256,-1.4961,-1.4776,-1.4342,-1.4088,-1.4088,-1.4088,-1.4077,-1.4011,-1.3903,-1.3723,-1.3611,-1.3549,-1.3622,-1.3765,-1.3515,-1.3527,-1.3811,-1.3395,-1.3368,-1.392,-1.4181,-1.4517,-1.4911,-1.5127,-1.542,-1.5827,-1.5885,-1.6068,-1.6355,-1.6374,-1.6402,-1.6402,-1.6402,-1.6402,-1.6402,-1.6402,-1.6402,-1.6402,-1.6402,-1.6402,-1.6402,-1.6402,-1.6402,-1.6402,-1.6449,-1.6506,-1.6581,-1.6751,-1.692,-1.7078,-1.7301,-1.7562,-1.7794,-1.7959,-1.815,-1.8422,-1.861,-1.8732,-1.8866,-1.9011,-1.917,-1.9289,-1.9447,-1.9565,-1.9682,-1.9747,-1.9773,-1.9798,-1.9798,-1.9798,-1.9798,-1.9798,-1.9798,-1.9798,-1.9798,-1.9798,-0.6387,-0.6387,-0.6387,-0.6387,-0.6387,-0.6387,-0.6387,-0.6387,-0.6387,-0.6387,-0.6387,-0.6387,-0.6489,-0.6692,-0.6939,-0.7191,-0.749,-0.7889,-0.8485,-0.913,-0.9529,-0.9871,-1.0413,-1.0949,-1.1536,-1.2175,-1.2516,-1.2759,-1.3001,-1.3249,-1.3491,-1.3738,-1.4022,-1.4352,-1.479,-1.5166,-1.5452,-1.5603,-1.5264,-1.5015,-1.4894,-1.4432,-1.4088,-1.4088,-1.4088,-1.4088,-1.409,-1.383,-1.3687,-1.3641,-1.3555,-1.3681,-1.4011,-1.3666,-1.3567,-1.3761,-1.3571,-1.3445,-1.3856,-1.4079,-1.4398,-1.4882,-1.5059,-1.5323,-1.5701,-1.5827,-1.5972,-1.622,-1.6278,-1.6306,-1.6374,-1.6402,-1.6402,-1.6402,-1.6402,-1.6402,-1.6402,-1.6402,-1.6402,-1.6402,-1.6402,-1.6402,-1.6402,-1.6402,-1.6431,-1.6534,-1.6637,-1.6779,-1.6937,-1.7134,-1.7368,-1.759,-1.7794,-1.8002,-1.822,-1.841,-1.8572,-1.8732,-1.8905,-1.9064,-1.9196,-1.9368,-1.9539,-1.9682,-1.9773,-1.9798,-1.9798,-1.9798,-1.9798,-1.9798,-1.9798,-1.9798,-1.9798,-1.9798,-1.9798,-0.6387,-0.6387,-0.6387,-0.6387,-0.6387,-0.6387,-0.6387,-0.6387,-0.6387,-0.6387,-0.6387,-0.6387,-0.6387,-0.6489,-0.6742,-0.6992,-0.7188,-0.7543,-0.7892,-0.8485,-0.908,-0.9529,-0.9826,-1.0703,-1.1389,-1.1883,-1.2175,-1.2467,-1.271,-1.2905,-1.3201,-1.3443,-1.3738,-1.4022,-1.44,-1.4838,-1.5213,-1.5468,-1.5166,-1.497,-1.4975,-1.4439,-1.4088,-1.4088,-1.4088,-1.4088,-1.405,-1.3756,-1.3606,-1.3751,-1.3641,-1.3748,-1.3977,-1.3739,-1.3661,-1.3816,-1.3671,-1.3638,-1.3774,-1.395,-1.4288,-1.4813,-1.5027,-1.5215,-1.5684,-1.59,-1.6028,-1.63,-1.6299,-1.6316,-1.6453,-1.6448,-1.6456,-1.6402,-1.6402,-1.6402,-1.6402,-1.6402,-1.6402,-1.6402,-1.6402,-1.6402,-1.6402,-1.6402,-1.6402,-1.6431,-1.6524,-1.6666,-1.6779,-1.6965,-1.7151,-1.7385,-1.7629,-1.7794,-1.8014,-1.8084,-1.8275,-1.8464,-1.8625,-1.8825,-1.909,-1.9289,-1.9486,-1.9656,-1.9773,-1.9798,-1.9798,-1.9798,-1.9798,-1.9798,-1.9798,-1.9798,-1.9798,-1.9798,-1.9798,-0.6237,-0.6387,-0.6387,-0.6387,-0.6387,-0.6387,-0.6387,-0.6387,-0.6387,-0.6387,-0.6387,-0.6387,-0.6387,-0.6437,-0.6692,-0.6842,-0.7001,-0.74,-0.7643,-0.7892,-0.8435,-0.908,-0.9677,-1.0462,-1.1047,-1.1389,-1.1683,-1.1975,-1.2224,-1.2516,-1.2759,-1.3007,-1.34,-1.3829,-1.4298,-1.464,-1.507,-1.5373,-1.493,-1.4822,-1.487,-1.4389,-1.4095,-1.4088,-1.4088,-1.4075,-1.407,-1.3709,-1.3588,-1.3725,-1.3854,-1.4037,-1.4348,-1.4074,-1.3874,-1.3804,-1.3729,-1.3626,-1.367,-1.3886,-1.4207,-1.4595,-1.5042,-1.5425,-1.5948,-1.6262,-1.6563,-1.6818,-1.691,-1.691,-1.6941,-1.6808,-1.661,-1.6425,-1.6428,-1.6425,-1.6402,-1.6402,-1.6402,-1.6402,-1.6402,-1.6402,-1.6402,-1.6402,-1.6402,-1.6392,-1.6506,-1.6609,-1.6694,-1.6853,-1.7067,-1.7256,-1.7462,-1.7629,-1.7767,-1.7822,-1.7947,-1.8139,-1.8329,-1.8503,-1.8825,-1.9196,-1.9394,-1.9617,-1.9708,-1.9747,-1.9773,-1.9798,-1.9798,-1.9798,-1.9798,-1.9798,-1.9798,-1.9798,-1.9798,-0.6089,-0.6239,-0.6337,-0.6387,-0.6387,-0.6387,-0.6387,-0.6387,-0.6387,-0.6387,-0.6387,-0.6387,-0.6387,-0.6437,-0.6539,-0.6723,-0.6917,-0.7229,-0.7516,-0.7862,-0.8318,-0.8957,-0.9603,-1.0122,-1.0511,-1.09,-1.1243,-1.1492,-1.1736,-1.2175,-1.2467,-1.271,-1.3104,-1.3534,-1.3919,-1.4352,-1.4729,-1.5016,-1.476,-1.4687,-1.4776,-1.4346,-1.4128,-1.4088,-1.4075,-1.4008,-1.3755,-1.356,-1.3466,-1.3436,-1.3554,-1.3903,-1.4396,-1.4364,-1.4178,-1.4045,-1.4135,-1.4172,-1.3992,-1.4186,-1.4582,-1.4958,-1.5333,-1.5657,-1.6035,-1.6381,-1.6643,-1.6888,-1.6981,-1.7044,-1.717,-1.7042,-1.6921,-1.6797,-1.6746,-1.6641,-1.6456,-1.6402,-1.6402,-1.6402,-1.6402,-1.6402,-1.6402,-1.6402,-1.6402,-1.6402,-1.6459,-1.6534,-1.6609,-1.6797,-1.6965,-1.7117,-1.7323,-1.749,-1.759,-1.7645,-1.7783,-1.7963,-1.8193,-1.834,-1.8679,-1.9117,-1.9316,-1.9512,-1.963,-1.9734,-1.9747,-1.9798,-1.9798,-1.9798,-1.9798,-1.9798,-1.9798,-1.9798,-1.9798,-0.5942,-0.5992,-0.6289,-0.6387,-0.6387,-0.6387,-0.6387,-0.6387,-0.6387,-0.6387,-0.6387,-0.6387,-0.6403,-0.6406,-0.6483,-0.663,-0.6953,-0.7056,-0.7428,-0.7907,-0.8364,-0.8848,-0.9394,-0.964,-0.9974,-1.0364,-1.085,-1.1145,-1.1345,-1.1932,-1.2273,-1.2467,-1.2856,-1.3195,-1.3534,-1.4016,-1.4352,-1.4589,-1.4517,-1.4514,-1.4538,-1.4236,-1.4017,-1.4088,-1.4088,-1.3794,-1.3467,-1.3324,-1.3319,-1.2891,-1.3111,-1.3659,-1.4223,-1.4456,-1.4398,-1.4311,-1.4539,-1.465,-1.448,-1.4571,-1.5012,-1.5382,-1.5565,-1.585,-1.6145,-1.6377,-1.6615,-1.6957,-1.6801,-1.7061,-1.7226,-1.7239,-1.719,-1.7142,-1.7151,-1.6941,-1.6639,-1.6448,-1.6436,-1.6384,-1.6402,-1.6402,-1.6402,-1.6402,-1.6402,-1.6402,-1.6431,-1.6459,-1.6534,-1.6666,-1.6797,-1.6909,-1.7145,-1.7368,-1.7423,-1.7468,-1.7661,-1.7854,-1.8111,-1.8367,-1.8706,-1.9025,-1.9263,-1.9447,-1.9565,-1.9656,-1.9734,-1.9747,-1.9773,-1.9798,-1.9798,-1.9798,-1.9798,-1.9798,-1.9798,-0.5644,-0.5992,-0.6095,-0.6189,-0.6387,-0.6387,-0.6387,-0.6387,-0.6387,-0.6387,-0.6387,-0.6387,-0.6491,-0.6573,-0.6522,-0.6646,-0.6912,-0.7083,-0.7463,-0.7928,-0.7969,-0.8361,-0.8895,-0.9306,-0.9636,-0.9924,-1.0556,-1.085,-1.1051,-1.1443,-1.1883,-1.2127,-1.2613,-1.2953,-1.3244,-1.3678,-1.4118,-1.4309,-1.4207,-1.4269,-1.4449,-1.4069,-1.3932,-1.4088,-1.4088,-1.3781,-1.334,-1.3246,-1.306,-1.29,-1.3184,-1.3663,-1.399,-1.4253,-1.4251,-1.4134,-1.4221,-1.4326,-1.4247,-1.452,-1.4806,-1.5171,-1.5656,-1.6042,-1.6278,-1.6719,-1.7052,-1.7403,-1.7494,-1.7444,-1.7493,-1.7509,-1.7422,-1.7328,-1.7259,-1.719,-1.7032,-1.6839,-1.6641,-1.644,-1.6405,-1.6374,-1.6374,-1.6345,-1.6345,-1.6374,-1.6374,-1.6402,-1.6488,-1.6563,-1.6666,-1.6768,-1.6909,-1.7117,-1.7172,-1.7284,-1.7507,-1.7689,-1.7975,-1.822,-1.8598,-1.8881,-1.9105,-1.9289,-1.946,-1.9565,-1.9656,-1.9734,-1.9773,-1.9773,-1.9798,-1.9798,-1.9798,-1.9798,-1.9798,-0.5393,-0.5641,-0.5892,-0.6092,-0.6237,-0.6337,-0.6387,-0.6387,-0.6387,-0.6387,-0.6387,-0.6387,-0.6457,-0.6613,-0.6627,-0.6709,-0.6925,-0.7217,-0.7475,-0.7745,-0.7759,-0.7978,-0.8258,-0.874,-0.9072,-0.9401,-0.9924,-1.0314,-1.0708,-1.1145,-1.1536,-1.1834,-1.237,-1.2716,-1.2953,-1.3346,-1.3732,-1.4004,-1.4017,-1.4064,-1.4135,-1.4049,-1.3933,-1.4066,-1.4068,-1.3854,-1.3467,-1.3273,-1.305,-1.2872,-1.3026,-1.3409,-1.3802,-1.4057,-1.4082,-1.4097,-1.443,-1.4478,-1.4474,-1.4669,-1.5036,-1.5273,-1.5695,-1.6021,-1.6367,-1.6789,-1.707,-1.7373,-1.755,-1.7644,-1.7752,-1.7789,-1.7665,-1.7642,-1.7585,-1.7506,-1.7386,-1.7172,-1.685,-1.6554,-1.6452,-1.6309,-1.6257,-1.6253,-1.6173,-1.6144,-1.6116,-1.6144,-1.6306,-1.6392,-1.6534,-1.6637,-1.6751,-1.6846,-1.6902,-1.706,-1.7323,-1.7534,-1.781,-1.803,-1.8302,-1.8587,-1.8893,-1.9105,-1.9342,-1.9486,-1.9565,-1.9656,-1.9734,-1.9773,-1.9798,-1.9798,-1.9798,-1.9798,-1.9798,-0.5142,-0.524,-0.5741,-0.5942,-0.6042,-0.6289,-0.6387,-0.6387,-0.6387,-0.6387,-0.6395,-0.64,-0.6497,-0.6635,-0.6687,-0.6815,-0.7035,-0.7304,-0.7515,-0.7551,-0.7657,-0.7731,-0.7888,-0.816,-0.8473,-0.9,-0.948,-0.9924,-1.0319,-1.0855,-1.1243,-1.1585,-1.198,-1.2375,-1.271,-1.2953,-1.3292,-1.3644,-1.3785,-1.389,-1.3932,-1.3939,-1.3924,-1.4001,-1.4075,-1.3928,-1.3567,-1.3353,-1.306,-1.2797,-1.2652,-1.2919,-1.3358,-1.3714,-1.3946,-1.4134,-1.4481,-1.4574,-1.4613,-1.4838,-1.5209,-1.5691,-1.5788,-1.6017,-1.6394,-1.6585,-1.6855,-1.7107,-1.7373,-1.7613,-1.7896,-1.7872,-1.7925,-1.7949,-1.7978,-1.7899,-1.7698,-1.7432,-1.7156,-1.6728,-1.6547,-1.6386,-1.6175,-1.6083,-1.5964,-1.5885,-1.5885,-1.5943,-1.6077,-1.6192,-1.6306,-1.6381,-1.6438,-1.6637,-1.6722,-1.6807,-1.706,-1.7351,-1.7629,-1.7838,-1.8057,-1.8302,-1.8625,-1.8984,-1.9208,-1.9342,-1.9434,-1.9512,-1.9604,-1.9708,-1.9747,-1.9734,-1.9759,-1.9773,-1.9773,-0.479,-0.524,-0.5539,-0.5789,-0.5989,-0.6287,-0.6387,-0.6387,-0.6387,-0.6387,-0.64,-0.6489,-0.6586,-0.676,-0.6883,-0.6999,-0.7147,-0.7313,-0.7365,-0.7483,-0.7526,-0.7541,-0.766,-0.7759,-0.7991,-0.8375,-0.9031,-0.9579,-0.9924,-1.0458,-1.09,-1.1247,-1.1585,-1.198,-1.237,-1.271,-1.2953,-1.327,-1.3459,-1.3666,-1.3771,-1.3753,-1.3721,-1.3818,-1.3997,-1.3948,-1.3626,-1.3373,-1.3066,-1.2797,-1.2502,-1.255,-1.2806,-1.3012,-1.327,-1.3616,-1.3844,-1.4128,-1.4441,-1.4641,-1.4999,-1.5434,-1.5655,-1.5867,-1.6175,-1.6438,-1.6691,-1.6968,-1.7289,-1.7554,-1.7706,-1.7832,-1.7881,-1.7949,-1.8086,-1.8066,-1.8017,-1.7874,-1.7668,-1.7243,-1.6867,-1.6437,-1.6218,-1.6028,-1.5918,-1.5838,-1.5788,-1.5817,-1.5914,-1.5972,-1.6,-1.6048,-1.6095,-1.6343,-1.657,-1.6666,-1.6835,-1.7166,-1.7434,-1.7645,-1.7865,-1.8068,-1.8367,-1.8691,-1.8984,-1.9158,-1.9263,-1.9368,-1.9473,-1.9539,-1.9591,-1.963,-1.963,-1.9656,-1.9734,-0.4539,-0.4841,-0.5238,-0.5539,-0.5839,-0.6089,-0.6289,-0.6387,-0.6387,-0.6387,-0.6403,-0.6454,-0.6578,-0.6777,-0.6858,-0.6983,-0.7174,-0.721,-0.7268,-0.736,-0.7312,-0.7345,-0.7402,-0.7458,-0.7623,-0.7899,-0.8489,-0.913,-0.9579,-0.9969,-1.0413,-1.0801,-1.1194,-1.1536,-1.1834,-1.2322,-1.2662,-1.292,-1.3169,-1.3419,-1.3683,-1.365,-1.3697,-1.3736,-1.3955,-1.4008,-1.3841,-1.3414,-1.316,-1.2933,-1.2589,-1.2395,-1.2452,-1.2562,-1.2826,-1.3236,-1.3419,-1.3674,-1.4145,-1.4361,-1.4677,-1.4991,-1.5319,-1.5647,-1.5929,-1.6211,-1.6517,-1.6874,-1.7107,-1.7417,-1.7588,-1.7858,-1.8087,-1.8249,-1.8436,-1.8588,-1.8603,-1.8447,-1.8169,-1.784,-1.7412,-1.6888,-1.6257,-1.6069,-1.5881,-1.5781,-1.5682,-1.5691,-1.5769,-1.5769,-1.5798,-1.5904,-1.598,-1.6142,-1.6371,-1.6513,-1.6637,-1.6959,-1.7222,-1.7462,-1.7673,-1.7893,-1.8096,-1.8367,-1.8625,-1.8839,-1.9078,-1.9158,-1.9263,-1.9368,-1.9434,-1.9486,-1.9512,-1.9539,-1.963,-0.4237,-0.4438,-0.4889,-0.529,-0.5536,-0.5789,-0.6089,-0.6287,-0.6289,-0.6337,-0.6389,-0.6427,-0.6554,-0.6774,-0.6877,-0.6989,-0.721,-0.721,-0.721,-0.721,-0.7199,-0.7187,-0.7121,-0.7188,-0.7291,-0.7422,-0.7842,-0.8435,-0.9179,-0.9575,-0.9871,-1.0261,-1.0752,-1.1145,-1.1394,-1.1834,-1.2322,-1.2716,-1.2953,-1.3163,-1.3473,-1.3627,-1.3717,-1.3664,-1.3897,-1.399,-1.3911,-1.3467,-1.3247,-1.3019,-1.2672,-1.2305,-1.2305,-1.2305,-1.2526,-1.3003,-1.3266,-1.3492,-1.379,-1.4072,-1.4361,-1.4677,-1.4919,-1.5284,-1.5682,-1.6,-1.6342,-1.6769,-1.7097,-1.7334,-1.7628,-1.8062,-1.8359,-1.8526,-1.8872,-1.9175,-1.9049,-1.8909,-1.8656,-1.8326,-1.792,-1.7328,-1.6615,-1.6087,-1.592,-1.5645,-1.5536,-1.5536,-1.5604,-1.5604,-1.5662,-1.5817,-1.5923,-1.5999,-1.6171,-1.6343,-1.6524,-1.6751,-1.6987,-1.7211,-1.749,-1.77,-1.7893,-1.8057,-1.8166,-1.8383,-1.8667,-1.8946,-1.8999,-1.9093,-1.9225,-1.9342,-1.9368,-1.942,-1.9486,-0.3784,-0.4438,-0.4736,-0.4987,-0.524,-0.5539,-0.5789,-0.6042,-0.6092,-0.6189,-0.6395,-0.6545,-0.6657,-0.6815,-0.7013,-0.7108,-0.7204,-0.721,-0.721,-0.721,-0.7204,-0.7084,-0.6937,-0.7115,-0.7018,-0.7083,-0.7444,-0.7939,-0.8531,-0.9175,-0.9575,-0.9821,-1.0265,-1.0703,-1.11,-1.1394,-1.1731,-1.237,-1.2716,-1.303,-1.3391,-1.3519,-1.3562,-1.3542,-1.3636,-1.3756,-1.3714,-1.3378,-1.3187,-1.31,-1.2632,-1.2331,-1.2305,-1.2305,-1.2415,-1.2643,-1.2863,-1.3127,-1.3492,-1.379,-1.4109,-1.4433,-1.4677,-1.4999,-1.5426,-1.5859,-1.6237,-1.6586,-1.6971,-1.735,-1.771,-1.8144,-1.8432,-1.8719,-1.898,-1.9129,-1.9109,-1.9238,-1.9032,-1.8767,-1.8358,-1.7672,-1.6943,-1.6437,-1.5948,-1.5635,-1.542,-1.5439,-1.5439,-1.5478,-1.5507,-1.5662,-1.5788,-1.5894,-1.5999,-1.6171,-1.6381,-1.6609,-1.679,-1.7015,-1.7256,-1.7496,-1.7617,-1.7755,-1.7865,-1.803,-1.8344,-1.8587,-1.8694,-1.8854,-1.9025,-1.9131,-1.9223,-1.9302,-1.9342,-0.298,-0.3732,-0.4183,-0.4585,-0.4935,-0.5085,-0.5386,-0.5737,-0.5942,-0.6042,-0.6197,-0.6388,-0.6619,-0.6809,-0.6989,-0.7144,-0.7196,-0.721,-0.721,-0.7207,-0.7191,-0.7024,-0.6906,-0.6893,-0.6878,-0.69,-0.7045,-0.7291,-0.7885,-0.8482,-0.9031,-0.9381,-0.9776,-1.0216,-1.0752,-1.1047,-1.1443,-1.198,-1.2452,-1.2875,-1.3102,-1.3356,-1.3447,-1.3322,-1.343,-1.3508,-1.3422,-1.3202,-1.3035,-1.2942,-1.255,-1.2318,-1.2305,-1.2305,-1.2335,-1.2415,-1.2636,-1.2929,-1.3302,-1.3608,-1.3899,-1.4145,-1.4425,-1.4856,-1.5284,-1.5682,-1.6068,-1.6402,-1.6803,-1.7261,-1.7779,-1.8294,-1.8601,-1.8901,-1.9146,-1.9364,-1.9411,-1.9389,-1.9329,-1.9112,-1.8789,-1.8071,-1.7385,-1.6846,-1.632,-1.587,-1.5566,-1.541,-1.541,-1.5449,-1.5478,-1.5507,-1.5633,-1.5759,-1.5865,-1.5999,-1.6239,-1.6438,-1.6609,-1.6835,-1.705,-1.7245,-1.7385,-1.7534,-1.77,-1.7893,-1.81,-1.8263,-1.8398,-1.8598,-1.8813,-1.8905,-1.9011,-1.9078,-1.9158,-0.2324,-0.2978,-0.3531,-0.4133,-0.4583,-0.4583,-0.4933,-0.5384,-0.5558,-0.58,-0.6009,-0.6284,-0.6578,-0.6787,-0.6934,-0.7054,-0.7207,-0.721,-0.721,-0.7207,-0.7158,-0.6986,-0.6842,-0.6818,-0.6744,-0.6692,-0.6795,-0.6992,-0.7288,-0.7786,-0.8386,-0.8886,-0.9331,-0.9723,-1.0167,-1.0605,-1.0998,-1.1536,-1.2224,-1.2625,-1.2872,-1.305,-1.3084,-1.312,-1.3165,-1.3281,-1.319,-1.2986,-1.2823,-1.2746,-1.2436,-1.2201,-1.2187,-1.2261,-1.2305,-1.2378,-1.2526,-1.2709,-1.3046,-1.3346,-1.3645,-1.3935,-1.4253,-1.4748,-1.4991,-1.5399,-1.5786,-1.6132,-1.6642,-1.7137,-1.7699,-1.8303,-1.869,-1.9022,-1.9336,-1.9612,-1.9816,-1.9678,-1.9487,-1.9228,-1.8927,-1.8589,-1.7925,-1.7301,-1.6728,-1.6173,-1.5801,-1.5478,-1.542,-1.542,-1.542,-1.5449,-1.5507,-1.5633,-1.5759,-1.5894,-1.6134,-1.6278,-1.6438,-1.6637,-1.6853,-1.705,-1.7217,-1.7368,-1.7507,-1.7645,-1.7799,-1.7963,-1.8139,-1.8356,-1.8556,-1.8718,-1.8825,-1.8893,-1.9025,-0.1819,-0.2123,-0.2928,-0.3577,-0.4028,-0.4031,-0.4381,-0.4854,-0.4843,-0.5254,-0.5897,-0.6242,-0.6495,-0.6757,-0.6874,-0.7002,-0.7204,-0.721,-0.7196,-0.7161,-0.7043,-0.6926,-0.6798,-0.6681,-0.6581,-0.6511,-0.6642,-0.6742,-0.6892,-0.7188,-0.764,-0.8088,-0.8737,-0.9232,-0.9723,-1.0167,-1.0708,-1.1194,-1.1829,-1.2322,-1.2512,-1.2681,-1.2629,-1.2831,-1.2981,-1.3032,-1.279,-1.2619,-1.2565,-1.2546,-1.2208,-1.2009,-1.204,-1.2187,-1.2231,-1.2305,-1.2452,-1.2599,-1.2783,-1.3119,-1.3455,-1.3819,-1.4217,-1.4569,-1.4705,-1.5026,-1.5396,-1.5833,-1.6351,-1.6989,-1.7556,-1.8145,-1.8547,-1.8955,-1.9149,-1.9304,-1.9518,-1.9717,-1.9542,-1.9326,-1.9021,-1.8661,-1.8148,-1.7504,-1.6908,-1.6367,-1.5762,-1.542,-1.542,-1.542,-1.542,-1.542,-1.542,-1.5517,-1.5672,-1.5817,-1.5961,-1.6105,-1.6267,-1.6438,-1.6637,-1.6835,-1.7022,-1.7106,-1.7228,-1.7368,-1.7507,-1.7673,-1.7865,-1.8096,-1.8286,-1.8503,-1.8718,-1.8866,-1.8946,-0.1506,-0.1787,-0.2284,-0.2828,-0.3422,-0.347,-0.3743,-0.4238,-0.4542,-0.5054,-0.5769,-0.5922,-0.6205,-0.6492,-0.663,-0.6804,-0.7018,-0.7048,-0.7103,-0.7098,-0.6986,-0.6866,-0.6738,-0.6635,-0.6508,-0.6461,-0.6539,-0.6539,-0.6589,-0.6842,-0.6995,-0.7494,-0.8091,-0.8882,-0.9426,-0.9969,-1.0511,-1.0998,-1.1389,-1.1785,-1.2209,-1.2399,-1.2469,-1.256,-1.2586,-1.2651,-1.2519,-1.227,-1.2184,-1.2103,-1.1923,-1.1833,-1.1855,-1.2003,-1.2114,-1.212,-1.2305,-1.2452,-1.2636,-1.2973,-1.3382,-1.3717,-1.4008,-1.4217,-1.4425,-1.4713,-1.5101,-1.5523,-1.5966,-1.65,-1.7432,-1.7783,-1.8101,-1.8616,-1.8891,-1.8971,-1.9121,-1.935,-1.9462,-1.9195,-1.8958,-1.8707,-1.8154,-1.7617,-1.7056,-1.651,-1.5898,-1.542,-1.5391,-1.542,-1.542,-1.542,-1.542,-1.542,-1.5546,-1.5672,-1.5759,-1.5933,-1.6095,-1.6267,-1.6438,-1.6609,-1.6768,-1.6853,-1.6948,-1.7088,-1.7228,-1.7396,-1.7617,-1.7893,-1.8139,-1.8356,-1.8572,-1.8825,-1.8893,-0.1183,-0.151,-0.1703,-0.219,-0.2823,-0.2966,-0.3233,-0.3674,-0.4024,-0.4624,-0.5371,-0.5568,-0.5873,-0.6183,-0.6352,-0.6529,-0.676,-0.6839,-0.6866,-0.6864,-0.6834,-0.6766,-0.666,-0.657,-0.6457,-0.6398,-0.6387,-0.6437,-0.6437,-0.6592,-0.6792,-0.6995,-0.7391,-0.8184,-0.8981,-0.9821,-1.0359,-1.0703,-1.0953,-1.1243,-1.1736,-1.1917,-1.2149,-1.2236,-1.2365,-1.2388,-1.2235,-1.2032,-1.185,-1.1754,-1.1654,-1.1571,-1.1669,-1.1787,-1.1892,-1.1972,-1.2046,-1.2231,-1.2489,-1.2936,-1.3309,-1.3535,-1.3761,-1.3971,-1.4181,-1.4361,-1.47,-1.513,-1.5454,-1.598,-1.6953,-1.7204,-1.7504,-1.7964,-1.8278,-1.8393,-1.8643,-1.8873,-1.8993,-1.9003,-1.8736,-1.835,-1.7965,-1.7366,-1.6736,-1.6232,-1.5729,-1.5342,-1.5313,-1.5362,-1.542,-1.542,-1.542,-1.542,-1.542,-1.5507,-1.5604,-1.5759,-1.5933,-1.6048,-1.621,-1.641,-1.6552,-1.6648,-1.6733,-1.6846,-1.6976,-1.7172,-1.7412,-1.7717,-1.7963,-1.8247,-1.8476,-1.8691,-1.8825,-0.0717,-0.1192,-0.124,-0.1622,-0.2287,-0.2573,-0.2854,-0.3166,-0.3354,-0.3885,-0.4669,-0.5225,-0.5657,-0.5919,-0.6141,-0.6303,-0.6488,-0.6592,-0.6627,-0.6627,-0.663,-0.6608,-0.6545,-0.6467,-0.6341,-0.6381,-0.6415,-0.6407,-0.6423,-0.6484,-0.6587,-0.6742,-0.6992,-0.7441,-0.8137,-0.9084,-0.9723,-1.0019,-1.0314,-1.0708,-1.11,-1.134,-1.1618,-1.1891,-1.2194,-1.2238,-1.1938,-1.175,-1.1565,-1.1436,-1.1268,-1.1248,-1.1372,-1.1595,-1.1706,-1.1713,-1.1744,-1.1855,-1.204,-1.2783,-1.3083,-1.3266,-1.3492,-1.371,-1.3826,-1.4,-1.4245,-1.4691,-1.4971,-1.5331,-1.5934,-1.6398,-1.6835,-1.7268,-1.7519,-1.78,-1.8072,-1.8353,-1.8505,-1.8439,-1.8109,-1.7768,-1.7479,-1.7073,-1.6369,-1.5855,-1.5432,-1.5253,-1.5244,-1.5254,-1.5313,-1.5303,-1.5274,-1.5274,-1.5274,-1.5362,-1.5449,-1.5604,-1.5759,-1.5865,-1.6019,-1.6192,-1.6316,-1.6413,-1.6488,-1.6534,-1.6722,-1.6937,-1.7245,-1.7551,-1.7881,-1.8139,-1.8394,-1.8583,-1.8691,-0.0331,-0.0701,-0.0841,-0.1159,-0.1562,-0.1952,-0.232,-0.2749,-0.309,-0.3668,-0.4301,-0.466,-0.5139,-0.5572,-0.5818,-0.5995,-0.6304,-0.6344,-0.6388,-0.6385,-0.6393,-0.6323,-0.6282,-0.6263,-0.6219,-0.623,-0.6268,-0.6336,-0.6323,-0.6393,-0.6434,-0.6539,-0.6792,-0.7241,-0.7988,-0.873,-0.927,-0.9624,-0.9875,-1.0117,-1.0659,-1.0998,-1.1258,-1.1511,-1.1929,-1.192,-1.1647,-1.1482,-1.1312,-1.109,-1.0892,-1.0942,-1.1074,-1.1298,-1.1484,-1.1521,-1.1595,-1.1706,-1.1855,-1.2224,-1.2599,-1.2863,-1.3119,-1.3346,-1.3572,-1.3645,-1.3891,-1.4145,-1.4361,-1.4723,-1.5191,-1.5378,-1.5761,-1.6393,-1.674,-1.7048,-1.7307,-1.7702,-1.7923,-1.7699,-1.7405,-1.7119,-1.6804,-1.6713,-1.6151,-1.5896,-1.5585,-1.5273,-1.5202,-1.5106,-1.5117,-1.5117,-1.5108,-1.5108,-1.5137,-1.5196,-1.5274,-1.542,-1.5546,-1.5662,-1.5817,-1.5972,-1.6029,-1.6048,-1.6163,-1.6249,-1.6524,-1.6779,-1.706,-1.7357,-1.7661,-1.7963,-1.8193,-1.8367,-1.853,-0.0093,-0.0412,-0.06,-0.078,-0.0999,-0.1461,-0.1953,-0.2516,-0.2914,-0.3405,-0.3898,-0.4168,-0.4602,-0.5106,-0.5453,-0.5621,-0.5989,-0.613,-0.6143,-0.6149,-0.6195,-0.6168,-0.6124,-0.6086,-0.6116,-0.6121,-0.6198,-0.6274,-0.6336,-0.6338,-0.6381,-0.6489,-0.6642,-0.7042,-0.7637,-0.8134,-0.8775,-0.9179,-0.9426,-0.9673,-1.0117,-1.0507,-1.09,-1.12,-1.1515,-1.1613,-1.1478,-1.1273,-1.1051,-1.0778,-1.067,-1.0686,-1.085,-1.1037,-1.1223,-1.1335,-1.1484,-1.1558,-1.1632,-1.1781,-1.2157,-1.2378,-1.2636,-1.29,-1.3163,-1.3236,-1.3455,-1.3666,-1.3775,-1.4033,-1.4362,-1.4468,-1.4931,-1.5548,-1.5854,-1.6116,-1.6546,-1.6917,-1.71,-1.6893,-1.6716,-1.6416,-1.6262,-1.6175,-1.5941,-1.5873,-1.5794,-1.547,-1.5162,-1.5072,-1.4988,-1.497,-1.497,-1.5,-1.5029,-1.5059,-1.5137,-1.5245,-1.5332,-1.54,-1.5459,-1.5585,-1.5643,-1.5759,-1.5904,-1.6116,-1.6363,-1.662,-1.6864,-1.7145,-1.7423,-1.7689,-1.7963,-1.8166,-1.834,0.009,-0.036,-0.0413,-0.0509,-0.0739,-0.1185,-0.1805,-0.2478,-0.2744,-0.3015,-0.3286,-0.4015,-0.4353,-0.451,-0.5089,-0.5438,-0.5574,-0.579,-0.5915,-0.5986,-0.6083,-0.6078,-0.6092,-0.6086,-0.6086,-0.6127,-0.6198,-0.6268,-0.6331,-0.6382,-0.6384,-0.6437,-0.6592,-0.6842,-0.7191,-0.7587,-0.8184,-0.863,-0.9031,-0.9278,-0.9673,-0.9924,-1.0413,-1.0828,-1.1138,-1.1275,-1.1248,-1.1123,-1.09,-1.0665,-1.0473,-1.0528,-1.0631,-1.0812,-1.0931,-1.1117,-1.1298,-1.1372,-1.1409,-1.1558,-1.1632,-1.1855,-1.2224,-1.2452,-1.2636,-1.2753,-1.2973,-1.3119,-1.3229,-1.3339,-1.3506,-1.3859,-1.4194,-1.4585,-1.4874,-1.5235,-1.5654,-1.5937,-1.6093,-1.6045,-1.5938,-1.5828,-1.5872,-1.5808,-1.5809,-1.5882,-1.5833,-1.5724,-1.5394,-1.5102,-1.5001,-1.4852,-1.4882,-1.4941,-1.495,-1.4891,-1.4941,-1.501,-1.502,-1.5079,-1.5147,-1.5264,-1.5381,-1.5527,-1.574,-1.5943,-1.6134,-1.6363,-1.6591,-1.6864,-1.7145,-1.7468,-1.7744,-1.7991,-1.8166,0.0463,0.0141,-0.0047,-0.0236,-0.0567,-0.0986,-0.1641,-0.2345,-0.2576,-0.2903,-0.3371,-0.3748,-0.4103,-0.4493,-0.4864,-0.5232,-0.5526,-0.5735,-0.5894,-0.5959,-0.6015,-0.6081,-0.6086,-0.6086,-0.6086,-0.6127,-0.6195,-0.6268,-0.6293,-0.638,-0.6384,-0.6437,-0.6489,-0.6642,-0.6792,-0.7042,-0.7587,-0.8084,-0.8485,-0.8882,-0.9278,-0.9579,-1.0015,-1.0329,-1.0761,-1.0882,-1.0718,-1.0758,-1.0523,-1.0229,-1.0253,-1.0299,-1.0331,-1.0625,-1.0887,-1.108,-1.1186,-1.1186,-1.118,-1.126,-1.1298,-1.1335,-1.1632,-1.1892,-1.2083,-1.2268,-1.2452,-1.2599,-1.2709,-1.2826,-1.2973,-1.3241,-1.3519,-1.3724,-1.4043,-1.4417,-1.4842,-1.5088,-1.5226,-1.535,-1.5238,-1.5393,-1.5459,-1.563,-1.5686,-1.5835,-1.5875,-1.5769,-1.5599,-1.5307,-1.5058,-1.4881,-1.4827,-1.4885,-1.4712,-1.4634,-1.4704,-1.4754,-1.4793,-1.4852,-1.497,-1.5088,-1.5147,-1.5332,-1.5537,-1.5682,-1.5817,-1.6077,-1.6363,-1.6563,-1.6835,-1.719,-1.7523,-1.7744,-1.7936,0.0707,0.0381,0.024,-0.0048,-0.0439,-0.0732,-0.1269,-0.1996,-0.2353,-0.2716,-0.3098,-0.3475,-0.3861,-0.4186,-0.4561,-0.4987,-0.5317,-0.5457,-0.5651,-0.5842,-0.596,-0.5994,-0.6042,-0.6094,-0.6086,-0.618,-0.6243,-0.6268,-0.6301,-0.6374,-0.6387,-0.6387,-0.6387,-0.6489,-0.6642,-0.6792,-0.7042,-0.754,-0.7988,-0.8432,-0.8825,-0.9217,-0.9542,-0.9799,-1.0249,-1.0277,-1.0237,-1.0292,-1.0099,-0.997,-1.0099,-1.0073,-1.018,-1.0519,-1.0669,-1.0856,-1.0968,-1.0968,-1.0999,-1.1074,-1.1111,-1.1117,-1.1223,-1.1372,-1.1632,-1.1818,-1.2009,-1.2157,-1.2231,-1.2298,-1.2489,-1.2636,-1.2797,-1.2958,-1.3297,-1.3641,-1.3968,-1.4283,-1.4456,-1.457,-1.4722,-1.4908,-1.5114,-1.5328,-1.5559,-1.5703,-1.5791,-1.5806,-1.5664,-1.5413,-1.5149,-1.4961,-1.4869,-1.4814,-1.4653,-1.4513,-1.4565,-1.4616,-1.4625,-1.4684,-1.4803,-1.4911,-1.499,-1.5147,-1.5362,-1.5508,-1.5653,-1.5885,-1.6105,-1.6304,-1.65,-1.6782,-1.7118,-1.7496,-1.7661,0.0904,0.043,0.0389,0.0049,-0.0351,-0.04,-0.085,-0.1553,-0.2031,-0.239,-0.2732,-0.3165,-0.3561,-0.3914,-0.4346,-0.4674,-0.5019,-0.5211,-0.5506,-0.5696,-0.5835,-0.5933,-0.6021,-0.6124,-0.6179,-0.6181,-0.6219,-0.6314,-0.632,-0.6382,-0.6387,-0.6387,-0.6387,-0.6437,-0.6489,-0.6642,-0.6828,-0.7035,-0.7486,-0.798,-0.8389,-0.8784,-0.918,-0.936,-0.9595,-0.9788,-0.9984,-0.9933,-0.9744,-0.9913,-0.9927,-0.9797,-1.011,-1.0331,-1.0443,-1.0594,-1.07,-1.0781,-1.0818,-1.0887,-1.0999,-1.1037,-1.1074,-1.1149,-1.1298,-1.1484,-1.1632,-1.1781,-1.1855,-1.1929,-1.2114,-1.2231,-1.2342,-1.2526,-1.2792,-1.3089,-1.3353,-1.368,-1.3962,-1.4143,-1.4382,-1.4569,-1.482,-1.5034,-1.5328,-1.5532,-1.5658,-1.5739,-1.5754,-1.5568,-1.5348,-1.5114,-1.4979,-1.4891,-1.4744,-1.4634,-1.4513,-1.4515,-1.4515,-1.4545,-1.4634,-1.4734,-1.4795,-1.499,-1.5176,-1.5362,-1.5537,-1.574,-1.5882,-1.5922,-1.6128,-1.636,-1.668,-1.6944,-1.7335,0.094,0.0668,0.0287,0.0,-0.0097,-0.0339,-0.0629,-0.1015,-0.1534,-0.2131,-0.2725,-0.3081,-0.3377,-0.3711,-0.4159,-0.4553,-0.4804,-0.5029,-0.536,-0.5598,-0.5741,-0.5865,-0.6046,-0.6162,-0.6279,-0.6358,-0.6385,-0.6382,-0.6391,-0.642,-0.6387,-0.6387,-0.6387,-0.6387,-0.6418,-0.652,-0.6589,-0.6706,-0.6942,-0.742,-0.7845,-0.8233,-0.8579,-0.8792,-0.9043,-0.9234,-0.9376,-0.9455,-0.9391,-0.9459,-0.9422,-0.9585,-0.996,-1.0143,-1.0331,-1.0481,-1.0513,-1.0556,-1.0594,-1.0663,-1.0738,-1.085,-1.0887,-1.0962,-1.108,-1.1186,-1.1298,-1.1403,-1.1515,-1.1632,-1.1706,-1.1824,-1.1935,-1.2157,-1.2342,-1.2594,-1.2803,-1.3154,-1.3499,-1.3783,-1.4029,-1.4281,-1.4497,-1.4784,-1.507,-1.5284,-1.5461,-1.5614,-1.5869,-1.5825,-1.5659,-1.5429,-1.5146,-1.5016,-1.4851,-1.468,-1.4531,-1.4485,-1.4515,-1.4515,-1.4485,-1.4586,-1.4715,-1.4834,-1.499,-1.5176,-1.5391,-1.5595,-1.5679,-1.5721,-1.5688,-1.5876,-1.5779,-1.5946,-1.6569,0.1132,0.0858,0.0381,0.0095,-0.0048,-0.0143,-0.0381,-0.0668,-0.1097,-0.164,-0.2313,-0.2778,-0.3241,-0.355,-0.4019,-0.4379,-0.4628,-0.4885,-0.517,-0.5432,-0.5575,-0.5782,-0.5939,-0.6121,-0.6271,-0.6334,-0.6387,-0.6381,-0.6387,-0.6387,-0.6387,-0.6381,-0.6381,-0.6404,-0.6374,-0.6352,-0.6352,-0.6432,-0.6523,-0.6825,-0.7279,-0.7611,-0.7965,-0.8236,-0.8516,-0.8697,-0.8832,-0.8945,-0.9041,-0.9178,-0.9316,-0.9362,-0.962,-0.9809,-0.9954,-1.0105,-1.0218,-1.0368,-1.0406,-1.0438,-1.0513,-1.0625,-1.0663,-1.0738,-1.0887,-1.0999,-1.1111,-1.1186,-1.1254,-1.1366,-1.1484,-1.1595,-1.1713,-1.1898,-1.2114,-1.2331,-1.258,-1.2854,-1.3156,-1.3411,-1.3666,-1.3891,-1.4173,-1.4533,-1.4784,-1.4927,-1.5141,-1.5426,-1.5709,-1.5956,-1.5834,-1.5679,-1.5393,-1.5155,-1.5019,-1.4772,-1.4513,-1.4485,-1.4485,-1.4485,-1.4515,-1.4556,-1.4636,-1.4754,-1.4872,-1.502,-1.5205,-1.5391,-1.5565,-1.564,-1.5501,-1.5368,-1.5211,-1.507,-1.5569,0.1323,0.1041,0.0615,0.0236,0.0095,0.0,-0.0189,-0.0425,-0.0662,-0.1086,-0.166,-0.2316,-0.2921,-0.3393,-0.3772,-0.4042,-0.4294,-0.4559,-0.4827,-0.4982,-0.5178,-0.54,-0.5652,-0.5874,-0.6069,-0.6234,-0.6346,-0.6368,-0.6387,-0.6415,-0.6393,-0.6363,-0.6333,-0.6339,-0.6274,-0.623,-0.6232,-0.6189,-0.6233,-0.6316,-0.6679,-0.7055,-0.7441,-0.7756,-0.8053,-0.8382,-0.8384,-0.8459,-0.8621,-0.8823,-0.9082,-0.9168,-0.9279,-0.943,-0.9582,-0.9733,-0.9846,-0.9992,-1.0105,-1.0218,-1.0325,-1.0438,-1.0438,-1.0513,-1.0663,-1.0775,-1.0887,-1.0962,-1.1037,-1.1143,-1.1292,-1.1409,-1.1521,-1.1632,-1.1855,-1.2077,-1.2298,-1.2562,-1.282,-1.3083,-1.3302,-1.3528,-1.3855,-1.4245,-1.4461,-1.4605,-1.4856,-1.5141,-1.5426,-1.5674,-1.5721,-1.5687,-1.553,-1.5343,-1.516,-1.4897,-1.4611,-1.4485,-1.4485,-1.4485,-1.4515,-1.4536,-1.4586,-1.4636,-1.4754,-1.4872,-1.5,-1.5156,-1.5332,-1.5458,-1.5276,-1.5019,-1.472,-1.4624,-1.4656,0.1316,0.1044,0.059,0.0363,0.0273,0.0091,-0.0136,-0.0363,-0.0454,-0.0817,-0.1327,-0.1624,-0.2121,-0.2874,-0.3363,-0.3671,-0.3841,-0.4168,-0.4292,-0.4426,-0.4802,-0.5023,-0.5266,-0.555,-0.5746,-0.5968,-0.6208,-0.6352,-0.635,-0.632,-0.6301,-0.6298,-0.6192,-0.6157,-0.6138,-0.6102,-0.6064,-0.6024,-0.5972,-0.6068,-0.6294,-0.6659,-0.7028,-0.7293,-0.7498,-0.7661,-0.7811,-0.7963,-0.8041,-0.8184,-0.8558,-0.8746,-0.8899,-0.9089,-0.9241,-0.9354,-0.9468,-0.962,-0.9728,-0.9803,-0.9916,-1.0143,-1.018,-1.025,-1.0406,-1.0519,-1.0631,-1.0818,-1.0887,-1.1037,-1.1149,-1.1186,-1.1304,-1.1484,-1.1669,-1.1855,-1.204,-1.2261,-1.2482,-1.2709,-1.2936,-1.32,-1.3535,-1.3855,-1.4065,-1.4245,-1.4561,-1.4883,-1.5177,-1.539,-1.5611,-1.5591,-1.5566,-1.5528,-1.5339,-1.506,-1.4799,-1.4629,-1.4455,-1.4387,-1.4387,-1.4485,-1.4536,-1.4556,-1.4636,-1.4754,-1.4843,-1.497,-1.4974,-1.5042,-1.4895,-1.4674,-1.4364,-1.4142,-1.4205]}]]